[[{"header":{"parameterUnit":"m.s-1","parameterCategory":1,"la1":31.0,"la2":29.5877,"lo1":-88.7671,"lo2":-86.6584,"dy":0.0162,"dx":0.0185,"nx":115,"ny":88,"refTime":"2024-09-05T00:00:00:Z","depth":0,"parameterNumber":2,"parameterNumberName":"U-component_of_WINDS"},"data":[0.0,0.0,0.0,0.0,0.0,0.0,0.0,0.0,0.0,0.0,0.0,0.0,0.0,0.0,0.0,0.0,0.0,0.0,0.0,0.0,0.0,0.0,0.0,0.0,0.0,0.0,0.0,0.0,0.0,0.0,0.0,0.0,0.0,0.0,0.0,0.0,0.0,0.0,0.0,0.0,0.0,0.0,0.0,0.0,0.0,0.0,0.0,0.0,0.0,0.0,0.0,0.0,0.0,0.0,0.0,0.0,0.0,0.0,0.0,0.0,0.0,0.0,0.0,0.0,0.0,0.0,0.0,0.0,0.0,0.0,0.0,0.0,0.0,0.0,0.0,0.0,0.0,0.0,0.0,0.0,0.0,0.0,0.0,0.0,0.0,0.0,0.0,0.0,0.0,0.0,0.0,0.0,0.0,0.0,0.0,0.0,0.0,0.0,0.0,0.0,0.0,0.0,0.0,0.0,0.0,0.0,0.0,0.0,0.0,0.0,0.0,0.0,0.0,0.0,0.0,0.0,0.0,0.0,0.0,0.0,0.0,0.0,0.0,0.0,0.0,0.0,0.0,0.0,0.0,0.0,0.0,0.0,0.0,0.0,0.0,0.0,0.0,0.0,0.0,0.0,0.0,0.0,0.0,0.0,0.0,0.0,0.0,0.0,0.0,0.0,0.0,0.0,0.0,0.0,0.0,0.0,0.0,0.0,0.0,0.0,0.0,0.0,0.0,0.0,0.0,0.0,0.0,0.0,0.0,0.0,0.0,0.0,0.0,0.0,0.0,0.0,0.0,0.0,0.0,0.0,0.0,0.0,0.0,0.0,0.0,0.0,0.0,0.0,0.0,0.0,0.0,0.0,0.0,0.0,0.0,0.0,0.0,0.0,0.0,0.0,0.0,0.0,0.0,0.0,0.0,0.0,0.0,0.0,0.0,0.0,0.0,0.0,0.0,0.0,0.0,0.0,0.0,0.0,0.0,0.0,0.0,0.0,0.0,0.0,0.0,0.0,0.0,0.0,0.0,0.0,0.0,0.0,0.0,0.0,0.0,0.0,0.0,0.0,0.0,0.0,0.0,0.0,0.0,0.0,0.0,0.0,0.0,0.0,0.0,0.0,0.0,0.0,0.0,0.0,0.0,0.0,0.0,0.0,0.0,0.0,0.0,0.0,0.0,0.0,0.0,0.0,0.0,0.0,0.0,0.0,0.0,0.0,0.0,0.0,0.0,0.0,0.0,0.0,0.0,0.0,0.0,0.0,0.0,0.0,0.0,0.0,0.0,0.0,0.0,0.0,0.0,0.0,0.0,0.0,0.0,0.0,0.0,0.0,0.0,0.0,0.0,0.0,0.0,0.0,0.0,0.0,0.0,0.0,0.0,0.0,0.0,0.0,0.0,0.0,0.0,0.0,0.0,0.0,0.0,0.0,0.0,0.0,0.0,0.0,0.0,0.0,0.0,0.0,0.0,0.0,0.0,0.0,0.0,0.0,0.0,0.0,0.0,0.0,0.0,0.0,0.0,0.0,0.0,0.0,0.0,0.0,0.0,0.0,0.0,0.0,0.0,0.0,0.0,0.0,0.0,0.0,0.0,0.0,0.0,0.0,0.0,0.0,0.0,0.0,0.0,0.0,0.0,0.0,0.0,0.0,0.0,0.0,0.0,0.0,0.0,0.0,0.0,0.0,0.0,0.0,0.0,0.0,0.0,0.0,0.0,0.0,0.0,0.0,0.0,0.0,0.0,0.0,0.0,0.0,0.0,0.0,0.0,0.0,0.0,0.0,0.0,0.0,0.0,0.0,0.0,0.0,0.0,0.0,0.0,0.0,0.0,0.0,0.0,0.0,0.0,0.0,0.0,0.0,0.0,0.0,0.0,0.0,0.0,0.0,0.0,0.0,0.0,0.0,0.0,0.0,0.0,0.0,0.0,0.0,0.0,0.0,0.0,0.0,0.0,0.0,0.0,0.0,0.0,0.0,0.0,0.0,0.0,0.0,0.0,0.0,0.0,0.0,0.0,0.0,0.0,0.0,0.0,0.0,0.0,0.0,0.0,0.0,0.0,0.0,0.0,0.0,0.0,0.0,0.0,0.0,0.0,0.0,0.0,0.0,0.0,0.0,0.0,0.0,0.0,0.0,0.0,0.0,0.0,0.0,0.0,0.0,0.0,0.0,0.0,0.0,0.0,0.0,0.0,0.0,0.0,0.0,0.0,0.0,0.0,0.0,0.0,0.0,0.0,0.0,0.0,0.0,0.0,0.0,0.0,0.0,0.0,0.0,0.0,0.0,0.0,0.0,0.0,0.0,0.0,0.0,0.0,0.0,0.0,0.0,0.0,0.0,0.0,0.0,0.0,0.0,0.0,0.0,0.0,0.0,0.0,0.0,0.0,0.0,0.0,0.0,0.0,0.0,0.0,0.0,0.0,0.0,0.0,0.0,0.0,0.0,0.0,0.0,0.0,0.0,0.0,0.0,0.0,0.0,0.0,0.0,0.0,0.0,0.0,0.0,0.0,0.0,0.0,0.0,0.0,0.0,0.0,0.0,0.0,0.0,0.0,0.0,0.0,0.0,0.0,0.0,0.0,0.0,0.0,0.0,0.0,0.0,0.0,0.0,0.0,0.0,0.0,0.0,0.0,0.0,0.0,0.0,0.0,0.0,0.0,0.0,0.0,0.0,0.0,0.0,0.0,0.0,0.0,0.0,0.0,0.0,0.0,0.0,0.0,0.0,0.0,0.0,0.0,0.0,0.0,0.0,0.0,0.0,0.0,0.0,0.0,0.0,0.0,0.0,0.0,0.0,0.0,0.0,0.0,0.0,0.0,0.0,0.0,0.0,0.0,0.0,0.0,0.0,0.0,0.0,0.0,0.0,0.0,0.0,0.0,0.0,0.0,0.0,0.0,0.0,0.0,0.0,0.0,0.0,0.0,0.0,0.0,0.0,0.0,0.0,0.0,0.0,0.0,0.0,0.0,0.0,0.0,0.0,0.0,0.0,0.0,0.0,0.0,0.0,0.0,0.0,0.0,0.0,0.0,0.0,0.0,0.0,0.0,0.0,0.0,0.0,0.0,0.0,0.0,0.0,0.0,0.0,0.0,0.0,0.0,0.0,0.0,0.0,0.0,0.0,0.0,0.0,0.0,0.0,0.0,0.0,0.0,0.0,0.0,0.0,0.0,0.0,0.0,0.0,0.0,0.0,0.0,0.0,0.0,0.0,0.0,0.0,0.0,0.0,0.0,0.0,0.0,0.0,0.0,0.0,0.0,0.0,0.0,0.0,0.0,0.0,0.0,0.0,0.0,0.0,0.0,0.0,0.0,0.0,0.0,0.0,0.0,0.0,0.0,0.0,0.0,0.0,0.0,0.0,0.0,0.0,0.0,0.0,0.0,0.0,0.0,0.0,0.0,0.0,0.0,0.0,0.0,0.0,0.0,0.0,0.0,0.0,0.0,0.0,0.0,0.0,0.0,0.0,0.0,0.0,0.0,0.0,0.0,0.0,0.0,0.0,0.0,0.0,0.0,0.0,0.0,0.0,0.0,0.0,0.0,0.0,0.0,0.0,0.0,0.0,0.0,0.0,0.0,0.0,0.0,0.0,0.0,0.0,0.0,0.0,0.0,0.0,0.0,0.0,0.0,0.0,0.0,0.0,0.0,0.0,0.0,0.0,0.0,0.0,0.0,0.0,0.0,0.0,0.0,0.0,0.0,0.0,0.0,0.0,0.0,0.0,0.0,0.0,0.0,0.0,0.0,0.0,0.0,0.0,0.0,0.0,0.0,0.0,0.0,0.0,0.0,0.0,0.0,0.0,0.0,0.0,0.0,0.0,0.0,0.0,0.0,0.0,0.0,0.0,0.0,0.0,0.0,0.0,0.0,0.0,0.0,0.0,0.0,0.0,0.0,0.0,0.0,0.0,0.0,0.0,0.0,0.0,0.0,0.0,0.0,0.0,0.0,0.0,0.0,0.0,0.0,0.0,0.0,0.0,0.0,0.0,0.0,0.0,0.0,0.0,0.0,0.0,0.0,0.0,0.0,0.0,0.0,0.0,0.0,0.0,0.0,0.0,0.0,0.0,0.0,0.0,0.0,0.0,0.0,0.0,0.0,0.0,0.0,0.0,0.0,0.0,0.0,0.0,0.0,0.0,0.0,0.0,0.0,0.0,0.0,0.0,0.0,0.0,0.0,0.0,0.0,0.0,0.0,0.0,0.0,0.0,0.0,0.0,0.0,0.0,0.0,0.0,0.0,0.0,0.0,0.0,0.0,0.0,0.0,0.0,0.0,0.0,4.094,0.0,0.0,0.0,0.0,0.0,0.0,0.0,0.0,0.0,0.0,0.0,0.0,0.0,0.0,0.0,0.0,0.0,0.0,0.0,0.0,0.0,0.0,0.0,0.0,0.0,0.0,0.0,0.0,0.0,0.0,0.0,0.0,0.0,0.0,0.0,0.0,0.0,0.0,0.0,0.0,0.0,0.0,0.0,0.0,0.0,0.0,0.0,0.0,0.0,0.0,0.0,0.0,0.0,0.0,0.0,0.0,0.0,0.0,0.0,0.0,0.0,0.0,0.0,0.0,0.0,0.0,0.0,0.0,0.0,0.0,0.0,0.0,0.0,0.0,0.0,0.0,0.0,0.0,0.0,0.0,0.0,0.0,0.0,0.0,0.0,0.0,0.0,0.0,0.0,0.0,0.0,0.0,0.0,0.0,0.0,0.0,0.0,0.0,0.0,0.0,0.0,0.0,0.0,0.0,0.0,0.0,0.0,0.0,0.0,0.0,4.269,4.3469,4.2849,4.1941,4.0659,0.0,0.0,0.0,0.0,0.0,0.0,0.0,0.0,0.0,0.0,0.0,0.0,0.0,0.0,0.0,0.0,0.0,0.0,0.0,0.0,0.0,0.0,0.0,0.0,0.0,0.0,0.0,0.0,0.0,0.0,0.0,0.0,0.0,0.0,0.0,0.0,0.0,0.0,0.0,0.0,0.0,0.0,0.0,0.0,0.0,0.0,0.0,0.0,0.0,0.0,0.0,0.0,0.0,0.0,0.0,0.0,0.0,0.0,0.0,0.0,0.0,0.0,0.0,0.0,0.0,0.0,0.0,0.0,0.0,0.0,0.0,0.0,0.0,0.0,0.0,0.0,0.0,0.0,0.0,0.0,0.0,0.0,0.0,0.0,0.0,0.0,0.0,0.0,0.0,0.0,0.0,0.0,0.0,0.0,0.0,0.0,0.0,0.0,0.0,0.0,0.0,0.0,0.0,0.0,0.0,0.0,0.0,0.0,0.0,0.0,0.0,0.0,4.3198,4.2115,4.0226,0.0,0.0,0.0,0.0,0.0,0.0,0.0,0.0,0.0,0.0,0.0,0.0,0.0,0.0,0.0,0.0,0.0,0.0,0.0,0.0,0.0,0.0,0.0,0.0,0.0,0.0,0.0,0.0,0.0,0.0,0.0,0.0,0.0,0.0,0.0,0.0,0.0,0.0,0.0,0.0,0.0,0.0,0.0,0.0,0.0,0.0,0.0,0.0,0.0,0.0,0.0,0.0,0.0,0.0,0.0,0.0,0.0,0.0,0.0,0.0,0.0,0.0,0.0,0.0,0.0,0.0,0.0,0.0,0.0,0.0,0.0,0.0,0.0,0.0,0.0,0.0,0.0,0.0,0.0,0.0,0.0,0.0,0.0,0.0,0.0,0.0,0.0,0.0,0.0,0.0,0.0,0.0,0.0,0.0,0.0,0.0,0.0,0.0,0.0,0.0,0.0,0.0,0.0,0.0,0.0,0.0,0.0,0.0,0.0,0.0,4.1525,4.386,4.3875,0.0,4.0013,0.0,0.0,0.0,0.0,0.0,0.0,0.0,0.0,0.0,0.0,0.0,0.0,0.0,0.0,0.0,0.0,0.0,0.0,0.0,0.0,0.0,0.0,0.0,0.0,0.0,0.0,0.0,0.0,0.0,0.0,0.0,0.0,0.0,0.0,0.0,0.0,0.0,0.0,0.0,0.0,0.0,0.0,0.0,0.0,0.0,0.0,0.0,0.0,0.0,0.0,0.0,0.0,0.0,0.0,0.0,0.0,0.0,0.0,0.0,0.0,0.0,0.0,0.0,0.0,0.0,0.0,0.0,0.0,0.0,0.0,0.0,0.0,0.0,0.0,0.0,0.0,0.0,0.0,0.0,0.0,0.0,0.0,0.0,0.0,0.0,0.0,0.0,0.0,0.0,0.0,0.0,0.0,0.0,0.0,0.0,0.0,0.0,0.0,0.0,0.0,0.0,0.0,0.0,0.0,0.0,0.0,0.0,0.0,0.0,0.0,0.0,4.4507,4.3015,4.1105,0.0,0.0,0.0,0.0,0.0,0.0,0.0,0.0,0.0,0.0,0.0,0.0,0.0,0.0,0.0,0.0,0.0,0.0,0.0,0.0,0.0,0.0,0.0,0.0,0.0,0.0,0.0,0.0,0.0,0.0,0.0,0.0,0.0,0.0,0.0,0.0,0.0,0.0,0.0,0.0,0.0,0.0,0.0,0.0,0.0,0.0,0.0,0.0,0.0,0.0,0.0,0.0,0.0,0.0,0.0,0.0,0.0,0.0,0.0,0.0,0.0,0.0,0.0,0.0,0.0,0.0,0.0,0.0,0.0,0.0,0.0,0.0,0.0,0.0,0.0,0.0,0.0,0.0,0.0,0.0,0.0,0.0,0.0,0.0,0.0,0.0,0.0,0.0,0.0,0.0,0.0,0.0,0.0,0.0,0.0,0.0,0.0,0.0,0.0,0.0,0.0,0.0,0.0,0.0,0.0,0.0,0.0,0.0,0.0,0.0,4.1907,0.0,4.4003,4.2555,4.0377,3.7709,0.0,0.0,0.0,0.0,0.0,0.0,0.0,0.0,0.0,0.0,0.0,0.0,0.0,0.0,0.0,0.0,0.0,0.0,0.0,0.0,0.0,0.0,0.0,0.0,0.0,0.0,0.0,0.0,0.0,0.0,0.0,0.0,0.0,0.0,0.0,0.0,0.0,0.0,0.0,0.0,0.0,0.0,0.0,0.0,0.0,0.0,0.0,0.0,0.0,0.0,0.0,0.0,0.0,0.0,0.0,0.0,0.0,0.0,0.0,0.0,0.0,0.0,0.0,0.0,0.0,0.0,0.0,0.0,0.0,0.0,0.0,0.0,0.0,0.0,0.0,0.0,0.0,0.0,0.0,0.0,0.0,0.0,0.0,0.0,0.0,0.0,0.0,0.0,0.0,0.0,0.0,0.0,0.0,0.0,0.0,0.0,0.0,0.0,0.0,0.0,0.0,0.0,0.0,0.0,0.0,0.0,0.0,0.0,0.0,4.1671,4.1208,4.249,4.2976,4.1264,0.0,0.0,0.0,0.0,0.0,0.0,0.0,0.0,0.0,0.0,0.0,0.0,0.0,0.0,0.0,0.0,0.0,0.0,0.0,0.0,0.0,0.0,0.0,0.0,0.0,0.0,0.0,0.0,0.0,0.0,0.0,0.0,0.0,0.0,0.0,0.0,0.0,0.0,0.0,0.0,0.0,0.0,0.0,0.0,0.0,0.0,0.0,0.0,0.0,0.0,0.0,0.0,0.0,0.0,0.0,0.0,0.0,0.0,0.0,0.0,0.0,0.0,0.0,0.0,0.0,0.0,0.0,0.0,0.0,0.0,0.0,0.0,0.0,0.0,0.0,0.0,0.0,0.0,0.0,0.0,0.0,0.0,0.0,0.0,0.0,0.0,0.0,0.0,0.0,0.0,0.0,0.0,0.0,0.0,0.0,0.0,0.0,0.0,0.0,0.0,0.0,0.0,0.0,0.0,0.0,0.0,0.0,0.0,0.0,4.0708,4.1248,4.2482,4.429,4.1969,3.9817,0.0,0.0,0.0,0.0,0.0,0.0,0.0,0.0,0.0,0.0,0.0,0.0,0.0,0.0,0.0,0.0,0.0,0.0,0.0,0.0,0.0,0.0,0.0,0.0,0.0,0.0,0.0,0.0,0.0,0.0,0.0,0.0,0.0,0.0,0.0,0.0,0.0,0.0,0.0,0.0,0.0,0.0,0.0,0.0,0.0,0.0,0.0,0.0,0.0,0.0,0.0,0.0,0.0,0.0,0.0,0.0,0.0,0.0,0.0,0.0,0.0,0.0,0.0,0.0,0.0,0.0,0.0,0.0,0.0,0.0,0.0,0.0,0.0,0.0,0.0,0.0,0.0,0.0,0.0,0.0,0.0,0.0,0.0,0.0,0.0,0.0,0.0,0.0,0.0,0.0,0.0,0.0,0.0,0.0,0.0,0.0,0.0,0.0,0.0,0.0,0.0,0.0,0.0,0.0,0.0,0.0,0.0,0.0,0.0,3.965,0.0,4.3347,0.0,4.1339,3.9039,0.0,0.0,0.0,0.0,0.0,0.0,0.0,0.0,0.0,0.0,0.0,0.0,0.0,0.0,0.0,0.0,0.0,0.0,0.0,0.0,0.0,0.0,0.0,0.0,0.0,0.0,0.0,0.0,0.0,0.0,0.0,0.0,0.0,0.0,0.0,0.0,0.0,0.0,0.0,0.0,0.0,0.0,0.0,0.0,0.0,0.0,0.0,0.0,0.0,0.0,0.0,0.0,0.0,0.0,0.0,0.0,0.0,0.0,0.0,0.0,0.0,0.0,0.0,0.0,0.0,0.0,0.0,0.0,0.0,0.0,0.0,0.0,0.0,0.0,0.0,0.0,0.0,0.0,0.0,0.0,0.0,0.0,0.0,0.0,0.0,0.0,0.0,0.0,0.0,0.0,0.0,0.0,0.0,0.0,0.0,0.0,0.0,0.0,0.0,0.0,0.0,0.0,0.0,0.0,0.0,0.0,0.0,0.0,3.8097,4.0839,4.3187,4.3444,4.1407,4.1136,3.9039,0.0,0.0,0.0,0.0,0.0,0.0,0.0,0.0,0.0,0.0,0.0,0.0,0.0,0.0,0.0,0.0,0.0,0.0,0.0,0.0,0.0,0.0,0.0,0.0,0.0,0.0,0.0,0.0,0.0,0.0,0.0,0.0,0.0,0.0,0.0,0.0,0.0,0.0,0.0,0.0,0.0,0.0,0.0,0.0,0.0,0.0,0.0,0.0,0.0,0.0,0.0,0.0,0.0,0.0,0.0,0.0,0.0,0.0,0.0,0.0,0.0,0.0,0.0,0.0,0.0,0.0,0.0,0.0,0.0,0.0,0.0,0.0,0.0,0.0,0.0,0.0,0.0,0.0,0.0,0.0,0.0,0.0,0.0,0.0,0.0,0.0,0.0,0.0,0.0,0.0,0.0,0.0,0.0,0.0,0.0,0.0,0.0,0.0,0.0,0.0,0.0,0.0,0.0,0.0,0.0,0.0,0.0,0.0,0.0,4.058,4.1679,4.2672,4.3382,4.0527,3.8531,0.0,0.0,0.0,0.0,0.0,0.0,0.0,0.0,0.0,0.0,0.0,0.0,0.0,0.0,0.0,0.0,0.0,0.0,0.0,0.0,0.0,0.0,0.0,0.0,0.0,0.0,0.0,0.0,0.0,0.0,0.0,0.0,0.0,0.0,0.0,0.0,0.0,0.0,0.0,0.0,0.0,0.0,0.0,0.0,0.0,0.0,0.0,0.0,0.0,0.0,0.0,0.0,0.0,0.0,0.0,0.0,0.0,0.0,0.0,0.0,0.0,0.0,0.0,0.0,0.0,0.0,0.0,0.0,0.0,0.0,0.0,0.0,0.0,0.0,0.0,0.0,0.0,0.0,0.0,0.0,0.0,0.0,0.0,0.0,0.0,0.0,0.0,0.0,0.0,0.0,0.0,0.0,0.0,0.0,0.0,0.0,0.0,0.0,0.0,0.0,0.0,0.0,0.0,0.0,0.0,0.0,0.0,0.0,0.0,4.1041,4.1675,4.2557,4.3721,4.073,3.8836,3.8137,0.0,0.0,0.0,0.0,0.0,0.0,0.0,0.0,0.0,0.0,0.0,0.0,0.0,0.0,0.0,0.0,0.0,0.0,0.0,0.0,0.0,0.0,0.0,0.0,0.0,0.0,0.0,0.0,0.0,0.0,0.0,0.0,0.0,0.0,0.0,0.0,0.0,0.0,0.0,0.0,0.0,0.0,0.0,0.0,0.0,0.0,0.0,0.0,0.0,0.0,0.0,0.0,0.0,0.0,0.0,0.0,0.0,0.0,0.0,0.0,0.0,0.0,0.0,0.0,0.0,0.0,0.0,0.0,0.0,0.0,0.0,0.0,0.0,0.0,0.0,0.0,0.0,0.0,0.0,0.0,0.0,0.0,0.0,0.0,0.0,0.0,0.0,0.0,0.0,0.0,0.0,0.0,0.0,0.0,0.0,0.0,0.0,0.0,0.0,0.0,0.0,0.0,0.0,0.0,0.0,0.0,0.0,0.0,4.1952,4.2904,4.3132,4.2557,4.1644,3.9884,0.0,0.0,0.0,0.0,0.0,0.0,0.0,0.0,0.0,0.0,0.0,0.0,0.0,0.0,0.0,0.0,0.0,0.0,0.0,0.0,0.0,0.0,0.0,0.0,0.0,0.0,0.0,0.0,0.0,0.0,0.0,0.0,0.0,0.0,0.0,0.0,0.0,0.0,0.0,0.0,0.0,0.0,0.0,0.0,0.0,0.0,0.0,0.0,0.0,0.0,0.0,0.0,0.0,0.0,0.0,0.0,0.0,0.0,0.0,0.0,0.0,0.0,0.0,0.0,0.0,0.0,0.0,0.0,0.0,0.0,0.0,0.0,0.0,0.0,0.0,0.0,0.0,0.0,0.0,0.0,0.0,0.0,0.0,0.0,0.0,0.0,0.0,0.0,0.0,0.0,0.0,0.0,0.0,0.0,0.0,0.0,0.0,0.0,0.0,0.0,0.0,0.0,0.0,0.0,0.0,0.0,0.0,0.0,0.0,4.1414,4.2678,4.3862,4.4722,4.2489,4.0595,0.0,0.0,0.0,0.0,0.0,0.0,0.0,0.0,0.0,0.0,0.0,0.0,0.0,0.0,0.0,0.0,0.0,0.0,0.0,0.0,0.0,0.0,0.0,0.0,0.0,0.0,0.0,0.0,0.0,0.0,0.0,0.0,0.0,0.0,0.0,0.0,0.0,0.0,0.0,0.0,0.0,0.0,0.0,0.0,0.0,0.0,0.0,0.0,0.0,0.0,0.0,0.0,0.0,0.0,0.0,0.0,0.0,0.0,0.0,0.0,0.0,0.0,0.0,0.0,0.0,0.0,0.0,0.0,0.0,0.0,0.0,0.0,0.0,0.0,0.0,0.0,0.0,0.0,0.0,0.0,0.0,0.0,0.0,0.0,0.0,0.0,0.0,0.0,0.0,0.0,0.0,0.0,0.0,0.0,0.0,0.0,0.0,0.0,0.0,0.0,0.0,0.0,0.0,0.0,0.0,0.0,0.0,0.0,4.0753,4.1657,4.2814,4.4012,4.5196,4.3234,4.1339,0.0,0.0,0.0,0.0,0.0,0.0,0.0,0.0,0.0,0.0,0.0,0.0,0.0,0.0,0.0,0.0,0.0,0.0,0.0,0.0,0.0,0.0,0.0,0.0,0.0,0.0,0.0,0.0,0.0,0.0,0.0,0.0,0.0,0.0,0.0,0.0,0.0,0.0,0.0,0.0,0.0,0.0,0.0,0.0,0.0,0.0,0.0,0.0,0.0,0.0,0.0,0.0,0.0,0.0,0.0,0.0,0.0,0.0,0.0,0.0,0.0,0.0,0.0,0.0,0.0,0.0,0.0,0.0,0.0,0.0,0.0,0.0,0.0,0.0,0.0,0.0,0.0,0.0,0.0,0.0,0.0,0.0,0.0,0.0,0.0,0.0,0.0,0.0,0.0,0.0,0.0,0.0,0.0,0.0,0.0,0.0,0.0,0.0,0.0,0.0,0.0,0.0,0.0,0.0,0.0,0.0,0.0,0.0,4.1407,4.2063,4.2861,4.3639,4.4296,4.3572,4.1901,0.0,0.0,0.0,0.0,0.0,0.0,0.0,0.0,0.0,0.0,0.0,0.0,0.0,0.0,0.0,0.0,0.0,0.0,0.0,0.0,0.0,0.0,0.0,0.0,0.0,0.0,0.0,0.0,0.0,0.0,0.0,0.0,0.0,0.0,0.0,0.0,0.0,0.0,0.0,0.0,0.0,0.0,0.0,0.0,0.0,0.0,0.0,0.0,0.0,0.0,0.0,0.0,0.0,0.0,0.0,0.0,0.0,0.0,0.0,0.0,0.0,0.0,0.0,0.0,0.0,0.0,0.0,0.0,0.0,0.0,0.0,0.0,0.0,0.0,0.0,0.0,0.0,0.0,0.0,0.0,0.0,0.0,0.0,0.0,0.0,0.0,0.0,0.0,0.0,0.0,0.0,0.0,0.0,0.0,0.0,0.0,0.0,0.0,0.0,0.0,0.0,0.0,0.0,0.0,0.0,0.0,0.0,0.0,4.0405,4.0587,4.186,4.2638,4.2773,4.2049,4.1102,0.0,0.0,0.0,0.0,0.0,0.0,0.0,0.0,0.0,0.0,0.0,0.0,0.0,0.0,0.0,0.0,0.0,0.0,0.0,0.0,0.0,0.0,0.0,0.0,0.0,0.0,0.0,0.0,0.0,0.0,0.0,0.0,0.0,0.0,0.0,0.0,0.0,0.0,0.0,0.0,0.0,0.0,0.0,0.0,0.0,0.0,0.0,0.0,3.285,0.0,0.0,0.0,0.0,0.0,0.0,0.0,0.0,0.0,0.0,0.0,0.0,0.0,0.0,0.0,0.0,0.0,0.0,0.0,0.0,0.0,0.0,0.0,0.0,0.0,0.0,0.0,0.0,0.0,0.0,0.0,0.0,0.0,0.0,0.0,0.0,0.0,0.0,0.0,0.0,0.0,0.0,0.0,0.0,0.0,0.0,0.0,0.0,0.0,0.0,0.0,0.0,0.0,0.0,0.0,0.0,0.0,0.0,0.0,4.0641,4.0641,4.1373,4.1948,4.2232,4.1238,4.0337,0.0,0.0,0.0,0.0,0.0,0.0,0.0,0.0,0.0,0.0,0.0,0.0,0.0,0.0,0.0,0.0,0.0,0.0,0.0,0.0,0.0,0.0,0.0,0.0,0.0,0.0,0.0,0.0,0.0,0.0,0.0,0.0,0.0,0.0,0.0,0.0,0.0,0.0,0.0,0.0,0.0,0.0,0.0,0.0,0.0,0.0,0.0,0.0,0.0,0.0,0.0,0.0,0.0,0.0,0.0,0.0,0.0,0.0,0.0,0.0,0.0,0.0,0.0,0.0,0.0,0.0,0.0,0.0,0.0,0.0,0.0,0.0,0.0,0.0,0.0,0.0,0.0,0.0,0.0,0.0,0.0,0.0,0.0,0.0,0.0,0.0,0.0,0.0,0.0,0.0,0.0,0.0,0.0,0.0,0.0,0.0,0.0,0.0,0.0,0.0,0.0,0.0,0.0,0.0,0.0,0.0,0.0,3.9094,4.0819,4.1035,4.1035,4.1305,4.1927,4.0756,3.9639,3.8679,0.0,0.0,0.0,0.0,0.0,0.0,0.0,0.0,0.0,0.0,0.0,0.0,0.0,0.0,0.0,0.0,0.0,0.0,0.0,0.0,0.0,0.0,0.0,0.0,0.0,0.0,0.0,0.0,0.0,0.0,0.0,0.0,0.0,0.0,0.0,0.0,0.0,0.0,3.378,3.5086,0.0,0.0,0.0,0.0,0.0,0.0,0.0,0.0,3.1257,0.0,0.0,0.0,0.0,0.0,0.0,0.0,0.0,0.0,0.0,0.0,0.0,0.0,0.0,0.0,0.0,0.0,0.0,0.0,0.0,0.0,0.0,0.0,0.0,0.0,0.0,0.0,0.0,0.0,0.0,0.0,0.0,0.0,0.0,0.0,0.0,0.0,0.0,0.0,0.0,0.0,0.0,0.0,0.0,0.0,0.0,0.0,0.0,0.0,0.0,0.0,0.0,0.0,0.0,0.0,0.0,3.7471,3.8113,3.9039,4.0248,4.0269,4.035,4.0451,4.0248,3.9153,3.7269,0.0,0.0,0.0,0.0,0.0,0.0,0.0,0.0,0.0,0.0,0.0,0.0,0.0,0.0,0.0,0.0,0.0,0.0,0.0,0.0,0.0,0.0,0.0,0.0,0.0,0.0,0.0,0.0,0.0,0.0,0.0,0.0,0.0,0.0,0.0,0.0,0.0,0.0,0.0,3.6911,3.7248,0.0,0.0,0.0,0.0,0.0,0.0,0.0,0.0,3.0071,0.0,0.0,0.0,0.0,0.0,0.0,0.0,0.0,0.0,0.0,0.0,0.0,0.0,0.0,0.0,0.0,0.0,0.0,0.0,0.0,0.0,0.0,0.0,0.0,0.0,0.0,0.0,0.0,0.0,0.0,0.0,0.0,0.0,0.0,0.0,0.0,0.0,0.0,0.0,0.0,0.0,0.0,0.0,0.0,0.0,0.0,0.0,0.0,0.0,0.0,0.0,0.0,0.0,0.0,0.0,3.6625,3.8227,3.9389,4.0079,4.0113,4.0113,4.0079,3.9356,3.8307,0.0,0.0,0.0,0.0,0.0,0.0,0.0,0.0,0.0,0.0,0.0,0.0,0.0,0.0,0.0,0.0,0.0,0.0,0.0,0.0,0.0,0.0,0.0,0.0,0.0,0.0,0.0,0.0,0.0,0.0,0.0,0.0,0.0,0.0,0.0,0.0,0.0,0.0,0.0,0.0,3.6938,3.7016,3.6712,0.0,0.0,0.0,0.0,0.0,0.0,3.0398,2.9214,0.0,0.0,0.0,0.0,0.0,0.0,0.0,0.0,0.0,0.0,0.0,0.0,0.0,0.0,0.0,0.0,0.0,0.0,0.0,0.0,0.0,0.0,0.0,0.0,0.0,0.0,0.0,0.0,0.0,0.0,0.0,0.0,0.0,0.0,0.0,0.0,0.0,0.0,0.0,0.0,0.0,0.0,0.0,0.0,0.0,0.0,0.0,0.0,0.0,0.0,0.0,0.0,0.0,0.0,0.0,3.5633,3.8261,3.9795,4.0079,4.0113,4.0113,4.0079,3.8937,3.7787,0.0,0.0,0.0,0.0,0.0,0.0,0.0,0.0,0.0,0.0,0.0,0.0,0.0,0.0,0.0,0.0,0.0,0.0,0.0,0.0,0.0,0.0,0.0,0.0,0.0,0.0,0.0,0.0,0.0,0.0,0.0,0.0,0.0,0.0,0.0,0.0,0.0,0.0,0.0,0.0,0.0,3.6626,3.64,3.5894,0.0,0.0,0.0,0.0,3.1384,2.9913,0.0,0.0,0.0,0.0,0.0,0.0,0.0,0.0,0.0,0.0,0.0,0.0,0.0,0.0,0.0,0.0,0.0,0.0,0.0,0.0,0.0,0.0,0.0,0.0,0.0,0.0,0.0,0.0,0.0,0.0,0.0,0.0,0.0,0.0,0.0,0.0,0.0,0.0,0.0,0.0,0.0,0.0,0.0,0.0,0.0,0.0,0.0,0.0,0.0,0.0,0.0,0.0,0.0,0.0,0.0,0.0,3.5532,3.7268,3.8802,4.0045,4.0113,4.0113,4.0113,3.9943,3.8577,0.0,0.0,0.0,0.0,0.0,0.0,0.0,0.0,0.0,0.0,0.0,0.0,0.0,0.0,0.0,0.0,0.0,0.0,0.0,0.0,0.0,0.0,0.0,0.0,0.0,0.0,0.0,0.0,0.0,0.0,0.0,0.0,0.0,0.0,0.0,0.0,0.0,0.0,0.0,0.0,0.0,3.7016,3.5808,3.5554,3.5152,0.0,0.0,3.1339,3.0494,2.9512,0.0,0.0,0.0,0.0,0.0,0.0,0.0,0.0,0.0,0.0,0.0,0.0,0.0,0.0,0.0,0.0,0.0,0.0,0.0,0.0,0.0,0.0,0.0,0.0,0.0,0.0,0.0,0.0,0.0,0.0,0.0,0.0,0.0,0.0,0.0,0.0,0.0,0.0,0.0,0.0,0.0,0.0,0.0,0.0,0.0,0.0,0.0,0.0,0.0,0.0,0.0,0.0,0.0,0.0,0.0,3.348,3.56,3.791,3.9469,4.0079,4.0113,4.0113,4.0113,3.8894,3.719,0.0,0.0,0.0,0.0,0.0,0.0,0.0,0.0,0.0,0.0,0.0,0.0,0.0,0.0,0.0,0.0,0.0,0.0,0.0,0.0,0.0,0.0,0.0,0.0,0.0,0.0,0.0,0.0,0.0,0.0,0.0,0.0,0.0,0.0,0.0,0.0,0.0,0.0,0.0,0.0,0.0,0.0,3.5394,3.5522,0.0,0.0,0.0,3.1235,3.0816,0.0,0.0,0.0,0.0,0.0,0.0,0.0,0.0,0.0,0.0,0.0,0.0,0.0,0.0,0.0,0.0,0.0,0.0,0.0,0.0,0.0,0.0,0.0,0.0,0.0,0.0,0.0,0.0,0.0,0.0,0.0,0.0,0.0,0.0,0.0,0.0,0.0,0.0,0.0,0.0,0.0,0.0,0.0,0.0,0.0,0.0,0.0,0.0,0.0,0.0,0.0,0.0,0.0,0.0,0.0,0.0,0.0,3.56,3.8577,4.0113,4.0113,4.0113,4.0113,4.0079,3.8307,0.0,0.0,0.0,0.0,0.0,0.0,0.0,0.0,0.0,0.0,0.0,0.0,0.0,0.0,0.0,0.0,0.0,0.0,0.0,0.0,0.0,0.0,0.0,0.0,0.0,0.0,0.0,2.7932,0.0,0.0,0.0,0.0,0.0,0.0,0.0,0.0,0.0,0.0,0.0,0.0,0.0,0.0,3.6533,3.4957,3.5239,3.5044,0.0,0.0,3.1111,3.0876,2.989,2.8881,0.0,0.0,0.0,0.0,0.0,0.0,0.0,0.0,0.0,0.0,0.0,0.0,0.0,0.0,0.0,0.0,0.0,0.0,0.0,0.0,0.0,0.0,0.0,0.0,0.0,0.0,0.0,0.0,0.0,0.0,0.0,0.0,0.0,0.0,0.0,0.0,0.0,0.0,0.0,0.0,0.0,0.0,0.0,0.0,0.0,0.0,0.0,0.0,0.0,0.0,0.0,0.0,0.0,0.0,0.0,3.5645,3.8565,4.0113,4.0113,4.0113,4.0113,4.0066,3.9288,3.7787,0.0,0.0,0.0,0.0,0.0,0.0,0.0,0.0,0.0,0.0,0.0,0.0,0.0,0.0,0.0,0.0,0.0,0.0,0.0,0.0,0.0,0.0,0.0,0.0,0.0,0.0,0.0,0.0,0.0,0.0,0.0,0.0,0.0,0.0,0.0,0.0,0.0,0.0,0.0,0.0,0.0,3.5586,3.4482,3.4426,3.4144,0.0,0.0,3.0895,3.0024,2.9812,2.9377,2.8273,0.0,0.0,0.0,0.0,0.0,0.0,0.0,0.0,0.0,0.0,0.0,0.0,0.0,0.0,0.0,0.0,0.0,0.0,0.0,0.0,0.0,0.0,0.0,0.0,0.0,0.0,0.0,0.0,0.0,0.0,0.0,0.0,0.0,0.0,0.0,0.0,0.0,0.0,0.0,0.0,0.0,0.0,0.0,0.0,0.0,0.0,0.0,0.0,0.0,0.0,0.0,0.0,0.0,3.4123,3.56,3.8577,4.0113,4.0113,4.0113,4.0113,4.0113,3.9389,3.7922,0.0,0.0,0.0,0.0,0.0,0.0,0.0,0.0,0.0,0.0,0.0,0.0,0.0,0.0,0.0,0.0,0.0,0.0,0.0,0.0,0.0,0.0,0.0,0.0,0.0,0.0,0.0,0.0,3.1012,3.1117,3.1447,0.0,0.0,0.0,0.0,0.0,0.0,0.0,0.0,0.0,0.0,3.501,3.3584,3.3472,0.0,0.0,3.0836,3.0216,2.9856,2.9779,2.9316,2.7846,2.744,0.0,0.0,0.0,0.0,0.0,0.0,0.0,0.0,0.0,0.0,0.0,0.0,0.0,0.0,0.0,0.0,0.0,0.0,0.0,0.0,0.0,0.0,0.0,0.0,0.0,0.0,0.0,0.0,0.0,0.0,0.0,0.0,0.0,0.0,0.0,0.0,0.0,0.0,0.0,0.0,0.0,0.0,0.0,0.0,0.0,0.0,0.0,0.0,0.0,0.0,0.0,0.0,3.437,3.56,3.8577,4.0113,4.0113,4.0113,4.0113,4.0079,3.9389,3.8125,0.0,0.0,0.0,0.0,0.0,0.0,0.0,0.0,0.0,0.0,0.0,0.0,0.0,0.0,0.0,0.0,0.0,0.0,0.0,0.0,0.0,0.0,0.0,0.0,0.0,0.0,0.0,0.0,3.1396,3.1102,3.1011,0.0,0.0,0.0,0.0,0.0,0.0,0.0,0.0,0.0,0.0,3.4276,3.2828,3.2572,3.2062,3.0783,3.0156,2.9682,2.9346,2.9307,2.8714,2.7062,0.0,0.0,0.0,0.0,0.0,0.0,0.0,0.0,0.0,0.0,0.0,0.0,0.0,0.0,0.0,0.0,0.0,0.0,0.0,0.0,0.0,0.0,0.0,0.0,0.0,0.0,0.0,0.0,0.0,0.0,3.4236,0.0,0.0,0.0,0.0,0.0,0.0,0.0,0.0,0.0,0.0,0.0,0.0,0.0,0.0,0.0,0.0,0.0,0.0,0.0,0.0,0.0,0.0,3.4844,3.5633,3.8577,4.0113,4.0113,4.0113,4.0113,4.0079,3.9389,3.8645,3.7809,0.0,0.0,0.0,0.0,0.0,0.0,0.0,0.0,0.0,0.0,0.0,0.0,0.0,0.0,0.0,0.0,0.0,0.0,0.0,0.0,0.0,0.0,0.0,0.0,0.0,0.0,3.2393,3.1188,3.0236,0.0,0.0,0.0,0.0,0.0,0.0,0.0,0.0,0.0,0.0,3.3297,3.334,3.2306,3.1733,3.112,3.0578,3.0072,2.9385,2.8307,2.8148,2.7555,0.0,0.0,0.0,0.0,0.0,0.0,0.0,0.0,0.0,0.0,0.0,0.0,0.0,0.0,0.0,0.0,0.0,0.0,0.0,0.0,0.0,0.0,0.0,0.0,0.0,0.0,0.0,3.6592,3.5948,0.0,0.0,0.0,0.0,0.0,0.0,0.0,0.0,0.0,0.0,0.0,3.4805,3.5446,0.0,0.0,0.0,0.0,0.0,0.0,0.0,0.0,0.0,0.0,0.0,0.0,3.5115,3.6445,3.8814,4.0113,4.0113,4.0113,4.0113,4.0113,3.9876,3.8916,3.7224,0.0,0.0,0.0,0.0,0.0,0.0,0.0,0.0,0.0,0.0,0.0,0.0,0.0,0.0,0.0,0.0,0.0,0.0,0.0,0.0,0.0,0.0,0.0,0.0,0.0,3.2011,0.0,0.0,0.0,0.0,0.0,0.0,0.0,0.0,0.0,0.0,0.0,3.2949,3.2439,3.226,3.1635,3.0205,2.9228,2.8488,0.0,0.0,0.0,0.0,0.0,0.0,0.0,0.0,0.0,0.0,0.0,0.0,0.0,0.0,2.3912,2.2792,2.2189,2.1809,2.1526,0.0,0.0,0.0,0.0,0.0,0.0,0.0,0.0,0.0,0.0,0.0,0.0,0.0,0.0,3.7265,0.0,3.5822,0.0,0.0,0.0,0.0,0.0,0.0,0.0,0.0,3.7085,3.7047,3.6207,3.6836,3.6806,0.0,3.5955,3.5001,0.0,0.0,0.0,0.0,0.0,0.0,0.0,0.0,3.579,3.6791,3.8974,4.0113,4.0113,4.0113,4.0113,4.0113,4.0113,3.93,3.7608,3.7043,3.6118,0.0,0.0,0.0,0.0,0.0,0.0,0.0,0.0,0.0,0.0,0.0,0.0,0.0,0.0,0.0,0.0,0.0,0.0,0.0,0.0,0.0,0.0,0.0,3.1584,0.0,0.0,0.0,0.0,0.0,0.0,0.0,0.0,0.0,3.2002,3.2796,3.3046,3.2271,3.168,3.0729,2.9009,0.0,0.0,0.0,0.0,0.0,0.0,0.0,2.5699,2.4402,2.4413,2.4415,2.3884,2.4258,2.4648,2.4625,0.0,0.0,2.3359,2.2832,2.2411,2.2026,2.1392,2.0702,1.9996,1.9079,1.8126,0.0,0.0,0.0,0.0,0.0,0.0,0.0,0.0,3.9751,3.9276,0.0,3.7727,0.0,0.0,0.0,0.0,0.0,3.7141,0.0,0.0,3.8724,3.8673,3.7554,3.8123,3.8093,3.7507,3.8033,3.7332,3.5554,3.4134,0.0,0.0,0.0,0.0,0.0,0.0,3.6743,3.6812,3.8912,4.0087,4.0113,4.0113,4.0113,4.0113,4.0113,3.9728,3.9085,3.9017,3.8328,3.6884,3.6016,0.0,0.0,0.0,0.0,0.0,0.0,0.0,0.0,0.0,0.0,0.0,0.0,0.0,0.0,0.0,0.0,0.0,0.0,0.0,0.0,3.1241,0.0,0.0,0.0,0.0,0.0,0.0,0.0,0.0,0.0,0.0,3.2183,3.2685,3.2816,3.2187,0.0,0.0,0.0,0.0,2.7565,2.7055,2.6988,2.645,2.4998,2.5078,2.481,2.3356,0.0,0.0,2.3769,2.4535,2.5082,2.5102,2.5031,2.4894,2.4438,2.3926,2.3296,2.2144,2.1414,2.0759,1.9679,1.8449,1.7561,3.8995,0.0,0.0,0.0,0.0,3.9527,3.9939,4.02,3.9712,3.9103,3.8415,3.7729,0.0,0.0,0.0,0.0,0.0,0.0,3.7684,3.815,3.8527,3.8721,3.8823,3.902,3.9002,3.8793,3.8063,3.7404,3.6806,3.5533,3.4147,3.2706,0.0,0.0,0.0,0.0,3.6424,3.7492,3.8666,3.9532,4.01,4.0113,4.0113,4.0113,4.0113,4.0011,3.9774,3.9795,3.9085,3.7576,3.6796,0.0,0.0,0.0,0.0,0.0,0.0,0.0,0.0,0.0,0.0,0.0,0.0,0.0,0.0,0.0,0.0,0.0,0.0,0.0,3.0325,3.0364,3.038,0.0,0.0,0.0,0.0,0.0,0.0,0.0,0.0,0.0,3.2539,3.1946,3.1669,0.0,0.0,2.8238,2.6984,2.6007,2.534,2.5196,2.4934,0.0,0.0,2.3881,2.3612,2.3164,2.3376,2.3848,2.4593,2.4926,2.52,2.5445,2.4733,2.4048,2.3895,2.3317,2.2366,2.1118,1.9865,1.8957,1.8533,1.7368,1.6362,4.1305,4.0894,4.0339,3.9995,3.9853,4.0297,4.0467,4.0397,3.9978,3.9409,3.8781,3.8374,3.7597,3.666,3.6774,0.0,0.0,0.0,3.8153,3.8781,3.8811,3.9002,3.9391,3.9421,3.9421,3.9361,3.8332,3.7656,3.7387,3.6387,3.5007,3.3312,0.0,0.0,3.4341,3.5449,3.6617,3.7763,3.8515,3.9289,4.0087,4.0113,4.0113,4.0113,4.0113,4.0113,4.0113,4.0113,3.9512,3.8282,3.7551,3.6059,0.0,0.0,0.0,0.0,0.0,0.0,0.0,0.0,0.0,0.0,0.0,2.9066,2.7604,0.0,0.0,0.0,2.952,3.0276,3.066,3.0945,0.0,0.0,0.0,0.0,0.0,0.0,0.0,3.2624,3.2113,3.1878,3.2128,3.0573,2.9721,3.0732,2.9001,2.7251,2.6104,0.0,2.4609,2.443,2.4199,2.3926,2.3571,2.3435,2.3318,2.312,2.3073,2.3453,2.4364,2.397,2.368,2.4119,2.3426,2.2365,2.1824,2.1281,2.0756,2.0045,1.8962,1.8001,1.7505,1.6522,1.5808,4.329,4.308,4.0707,4.0098,4.0618,4.0636,4.0606,4.0546,4.0516,4.0127,3.9481,3.9421,3.908,3.8422,3.7823,0.0,3.8482,3.8499,3.8793,3.9391,3.9421,3.9421,3.9421,3.9421,3.9421,3.9391,3.8661,3.8003,3.7404,3.6746,3.5805,3.4639,3.5187,3.5491,3.5443,3.6183,3.695,3.7688,3.8428,3.9236,4.0087,4.0113,4.0113,4.0113,4.0113,4.0113,4.0113,4.0016,3.9636,3.8821,3.8095,3.6524,3.3937,0.0,0.0,0.0,0.0,0.0,0.0,0.0,0.0,0.0,0.0,0.0,0.0,0.0,0.0,0.0,2.9502,0.0,3.1174,3.2144,0.0,0.0,0.0,3.2888,3.3012,3.2797,3.2441,3.1993,0.0,0.0,3.1238,2.881,2.7455,2.8628,2.8025,2.703,2.5888,2.5395,2.4984,2.4528,2.441,2.4098,2.3374,2.3363,2.3271,2.2896,2.2299,2.2199,2.3085,2.2087,2.1356,2.231,2.1473,2.0321,1.895,1.8794,1.8647,1.8929,1.84,1.7601,1.6624,1.6056,1.5808,4.329,4.323,4.2632,4.2472,4.2622,4.2622,4.2342,4.1901,4.1403,4.0804,4.0109,3.9631,3.9302,3.917,3.9002,3.9002,3.917,3.9152,3.9242,3.9391,3.9421,3.9421,3.9421,3.9421,3.9421,3.9331,3.8212,3.7537,3.7345,3.6297,3.5579,3.5296,3.5427,3.5251,3.48,3.5426,3.6152,3.6873,3.7659,3.8737,4.0062,4.0113,4.0113,4.0113,4.0113,4.0113,4.01,3.9519,3.8827,3.809,3.7325,3.6085,3.4379,3.3019,0.0,0.0,0.0,0.0,0.0,0.0,0.0,0.0,0.0,2.9153,2.7282,0.0,2.8831,0.0,2.8381,2.8987,2.9509,2.9806,0.0,0.0,3.0927,3.1134,3.2331,3.2087,3.1891,3.2165,3.1095,3.0242,3.0155,2.832,2.6996,2.7038,2.6521,2.6038,2.5723,2.5596,2.543,2.5004,2.4609,2.4215,2.3621,2.2602,2.1876,2.1743,2.083,2.0326,2.0899,2.063,2.0499,2.1006,2.0111,1.9155,1.8724,1.7916,1.725,1.7268,1.7007,1.6648,1.6332,1.6032,1.5808,4.329,4.329,4.329,4.329,4.329,4.329,4.2791,4.1912,4.1553,4.0864,3.993,3.9571,3.9421,3.9421,3.9421,3.9421,3.9421,3.9421,3.9421,3.9421,3.9421,3.9421,3.9421,3.9421,3.9421,3.9361,3.8063,3.7387,3.7327,3.6101,3.5489,3.5489,3.5489,3.531,3.4997,3.531,3.5878,3.6584,3.7717,3.8723,3.9545,3.9914,4.0113,4.0113,4.0113,3.9927,3.9584,3.9156,3.8251,3.6926,3.6406,3.5539,3.4115,3.2685,3.1391,0.0,0.0,0.0,0.0,0.0,0.0,0.0,0.0,0.0,0.0,0.0,2.8906,2.8315,2.8903,2.9429,2.9742,3.0189,3.0726,3.1334,3.1131,3.1312,3.2191,3.1507,3.1084,3.1371,3.0062,2.9047,2.8803,2.7594,2.666,2.6431,2.6016,2.5698,2.5698,2.5698,2.5484,2.4883,2.457,2.3974,2.2884,2.1935,2.1083,2.0522,1.9497,1.8936,1.9645,1.891,1.8447,1.9138,1.8303,1.7418,1.7355,1.6836,1.6313,1.6299,1.6192,1.6139,1.627,1.6032,1.5808,4.3429,4.3429,4.3319,4.329,4.329,4.329,4.2622,4.1523,4.1433,4.0636,3.9421,3.9421,3.9421,3.9421,3.9421,3.9421,3.9403,3.9265,3.9265,3.9403,3.9265,3.9265,3.9421,3.9421,3.9421,3.9331,3.8045,3.7387,3.7357,3.6118,3.5489,3.5489,3.5489,3.5489,3.5489,3.5489,3.5878,3.66,3.8015,3.8813,3.8908,3.9675,4.0028,3.9952,3.994,3.9571,3.8799,3.8663,3.7711,3.5867,3.5642,3.4973,3.36,3.2171,3.126,0.0,2.9504,0.0,0.0,0.0,0.0,0.0,0.0,0.0,0.0,2.8761,2.9212,2.8978,2.9827,3.0397,3.0419,3.1218,3.1774,3.1774,3.18,3.1774,3.1746,3.0747,3.0042,3.0042,2.8651,2.7708,2.7617,2.69,2.6412,2.6269,2.5952,2.5718,2.5698,2.5698,2.5382,2.4528,2.4293,2.3547,2.2106,2.1324,2.0657,1.9633,1.8342,1.7847,1.8734,1.7288,1.6211,1.7106,1.6664,1.593,1.5808,1.5845,1.5821,1.5848,1.5835,1.5901,1.6112,1.6005,1.5821,4.4117,4.4057,4.3529,4.329,4.329,4.329,4.288,4.2171,4.1613,4.0636,3.9421,3.9421,3.9421,3.9421,3.9421,3.9421,3.9355,3.849,3.8564,3.9355,3.8509,3.8564,3.9355,3.9421,3.9421,3.9331,3.8033,3.7387,3.7357,3.6118,3.5489,3.5489,3.5489,3.5489,3.5489,0.0,0.0,0.0,3.7528,3.8288,3.8894,3.9675,3.9799,3.9169,3.9143,0.0,3.8019,3.7396,3.6856,3.6445,3.5855,0.0,0.0,0.0,0.0,0.0,0.0,0.0,0.0,0.0,0.0,0.0,2.9197,2.8154,2.7737,2.8364,2.8797,2.8765,2.8742,2.8765,2.8765,2.8912,2.9059,2.9059,2.9039,2.9059,2.9059,2.8847,2.8681,2.8661,2.8094,2.7545,2.7168,2.6699,2.625,2.5913,2.5732,2.5693,2.5698,2.5698,2.5367,2.4547,2.3884,2.3271,2.2816,2.1078,1.9844,1.9268,1.7576,1.6433,1.6527,1.6301,1.5832,1.6221,1.5961,1.5808,1.5808,1.5808,1.5808,1.5808,1.5808,1.5821,1.5875,1.5848,1.5808,4.4616,0.0,4.3938,4.3609,0.0,4.329,4.313,4.2761,4.1822,4.0655,3.9385,3.8852,3.8907,3.9373,3.8852,3.8907,3.9337,3.8304,3.8088,3.8546,3.751,3.7587,3.8601,3.8601,3.8711,3.8853,3.7883,3.7255,3.6896,3.5968,3.5489,3.5489,3.5489,3.5489,3.5489,3.5489,3.57,3.6023,3.6783,3.7396,3.7772,3.8553,3.8778,3.8372,0.0,0.0,0.0,0.0,0.0,0.0,0.0,0.0,0.0,0.0,0.0,3.1608,3.1351,3.0871,3.0163,3.0001,2.9852,2.9595,2.8654,2.8088,2.8121,2.8185,2.8309,2.8505,2.8371,2.8301,2.8301,2.8301,2.8301,2.8301,2.8301,2.8301,2.8301,2.8301,2.8203,2.8015,2.7617,2.7187,2.6758,2.6328,2.5991,2.5732,2.5698,2.5698,2.5698,2.5698,2.5386,2.4551,2.3669,2.2662,2.1498,2.0449,1.8971,1.7878,1.6631,1.5913,1.5808,1.5808,1.5808,1.5808,1.5808,1.5808,1.5808,1.5808,1.5808,1.5808,1.5808,1.5808,1.5808,1.5808,1.5808,4.5155,4.4625,4.4416,4.3967,4.3489,4.3349,4.325,4.307,0.0,0.0,0.0,3.8256,3.8275,3.9035,3.8013,3.8013,3.873,3.7748,3.7338,3.7472,3.6428,3.6613,3.7786,3.7824,3.8068,3.8524,3.7793,3.7118,3.6626,3.5878,3.5489,3.5489,3.5489,3.5489,3.5489,3.5489,3.5489,3.5522,3.6228,3.6584,3.66,3.7381,3.7735,3.7572,3.7572,3.7203,3.643,3.6399,3.5842,3.4639,3.3831,3.3505,3.3631,3.2199,3.1608,3.2289,3.2079,3.1391,3.0319,3.0502,2.9939,2.8237,2.7921,2.804,2.8608,2.8109,2.7956,2.8262,2.8301,2.8301,2.8301,2.8301,2.8301,2.8301,2.8301,2.8301,2.8301,2.8301,2.8171,2.7741,2.733,2.6855,2.6445,2.601,2.5698,2.5693,2.5698,2.5698,2.5674,2.562,2.5289,2.4508,2.3767,2.2539,2.0804,2.0042,1.8948,1.725,1.648,1.6079,1.5866,1.5808,1.5808,1.5808,1.5808,1.5808,1.5808,1.5808,1.5808,1.5808,1.5808,1.5808,1.5808,1.5808,1.5808,4.6091,4.5912,4.4796,4.4237,4.4117,4.3529,4.303,4.2481,4.1733,4.0636,3.9319,3.8256,3.7881,3.7975,3.6877,3.6507,3.6585,3.5601,3.5601,3.635,3.5379,3.5922,3.7767,3.7824,3.832,3.9128,3.8003,3.7357,3.7165,3.6088,3.5489,3.5489,3.5489,3.5489,3.5489,3.5489,3.5489,3.5506,3.6228,3.6584,3.66,3.7381,3.7487,3.6813,3.6767,3.6399,3.57,3.5667,3.5406,3.4888,3.4715,3.414,3.3016,3.2683,3.2023,3.0846,3.067,3.0323,2.9579,2.8961,2.8397,2.7847,2.8035,2.8244,2.8318,2.827,2.8223,2.8281,2.8301,2.8301,2.8301,2.8301,2.8301,2.8301,2.8301,2.8301,2.8301,2.8301,2.8151,2.7741,2.7311,2.683,2.6445,2.5991,2.5698,2.5698,2.5698,2.5698,2.5659,2.5391,2.498,2.4469,2.4023,2.3418,2.2321,2.1614,2.0342,1.9245,1.7948,1.6927,1.5937,1.5808,1.5808,1.5808,1.5808,1.5808,1.5808,1.5808,1.5808,1.5808,1.5808,1.5808,1.5808,1.5808,1.5808,4.6629,4.6241,4.5642,4.4954,4.4237,4.3559,4.297,4.2322,4.1381,4.0412,3.94,3.8031,3.7588,3.775,3.6716,3.6429,3.6629,3.5597,3.521,3.5305,3.4304,3.463,3.6088,3.6671,3.731,3.7941,3.7996,3.7764,3.7345,3.6477,3.6028,3.6028,3.5699,3.5489,3.5489,3.5489,3.5489,3.5519,3.5846,3.6006,3.6006,3.6383,3.6352,3.6022,3.6006,3.5862,3.5535,3.5848,3.5697,3.4922,3.4721,3.4203,3.3337,3.2169,3.1297,3.0862,3.0226,2.9444,2.8473,2.7886,2.7607,2.7695,2.8073,2.8301,2.8301,2.8301,2.8301,2.8301,2.8301,2.8301,2.8301,2.8301,2.8301,2.8301,2.8301,2.8301,2.8301,2.8301,2.8125,2.7741,2.7285,2.6855,2.6445,2.5991,2.5693,2.5698,2.5698,2.5698,2.5698,2.5566,2.5176,2.4531,2.404,2.33,2.2369,2.1721,2.0562,1.8833,1.8102,1.7194,1.6103,1.5808,1.5808,1.5808,1.5808,1.5808,1.5808,1.5808,1.5808,1.5808,1.5808,1.5808,1.5808,1.5808,1.5808,4.701,4.651,4.636,4.5397,4.389,4.3187,4.2504,4.1753,4.0682,3.9864,3.9099,3.7593,3.7166,3.7407,3.6414,3.6176,3.6386,3.5579,3.4909,3.4455,3.3522,3.3658,3.4712,3.5714,3.6489,3.7094,3.7961,3.8123,3.7614,3.7002,3.6686,3.6643,3.6028,3.5729,3.5729,3.5579,3.5489,3.5489,3.5489,3.5489,3.5489,3.5489,3.5489,3.5519,3.5685,3.5729,3.5759,3.6127,3.5949,3.5032,3.452,3.4046,3.3537,3.1681,3.0663,3.0684,2.967,2.8556,2.7555,2.7177,2.7246,2.78,2.8105,2.8301,2.8301,2.8301,2.8301,2.8301,2.8301,2.8301,2.8301,2.8301,2.8301,2.8301,2.8301,2.8301,2.8301,2.8301,2.8125,2.7741,2.7285,2.6855,2.6426,2.5971,2.5718,2.5698,2.5698,2.5698,2.5698,2.5698,2.5367,2.4785,2.4277,2.3615,2.2158,2.1935,2.1028,1.8835,1.8342,1.7707,1.6678,1.6079,1.5808,1.5808,1.5808,1.5848,1.5888,1.5848,1.5848,1.5901,1.5965,1.5915,1.5952,1.5848,1.5808,4.7258,4.713,4.6548,4.4917,4.2799,4.2092,4.1182,4.0178,3.9372,3.8754,3.8163,3.6897,3.6431,3.6305,3.5372,3.4993,3.4978,3.4344,3.407,3.3965,3.3359,3.3683,3.4703,3.5742,3.6713,3.7604,3.8179,3.8422,3.8272,3.7644,3.7298,3.7255,3.6716,3.6387,3.6344,3.5818,3.5519,3.5503,3.5489,3.5489,3.5489,3.5489,3.5489,3.5503,3.6088,3.6404,3.635,3.6114,3.5752,3.5249,3.4303,3.3584,3.3085,3.1833,3.064,2.9624,2.8425,2.7548,2.7105,2.7024,2.7383,2.8125,2.8262,2.8301,2.8301,2.8301,2.8301,2.8301,2.8301,2.8301,2.8301,2.8301,2.8301,2.8301,2.8301,2.8301,2.8301,2.8301,2.8151,2.7767,2.7305,2.6855,2.6465,2.601,2.5718,2.5698,2.5698,2.5698,2.5698,2.5698,2.5581,2.5156,2.4965,2.4547,2.3677,2.3551,2.2633,2.1131,2.0014,1.9028,1.7953,1.681,1.5893,1.679,1.6218,1.6409,1.6399,1.607,1.6133,1.6432,1.6427,1.6257,1.623,1.6059,1.5901,4.6638,4.7214,4.6211,4.4518,4.2559,4.1481,4.0827,4.0289,3.8981,3.83,3.7987,3.6864,3.6368,3.6322,3.5888,3.5506,3.5157,3.4954,3.4678,3.4399,3.4148,3.4135,3.4362,3.6001,3.6817,3.7002,3.8289,3.899,3.8853,3.8302,3.7793,3.7417,3.7135,3.7015,3.6985,3.6776,3.6626,3.6656,3.6626,3.6626,3.655,3.6267,3.6088,3.6164,3.6716,3.6726,3.6236,3.6317,3.578,3.4497,3.4305,3.3585,3.2062,3.0822,2.9624,2.8423,2.7441,2.6938,2.6998,2.7246,2.7682,2.8242,2.8301,2.8301,2.8301,2.8301,2.8301,2.8301,2.8301,2.8301,2.8301,2.8301,2.8301,2.8301,2.8301,2.8301,2.8301,2.8301,2.823,2.8008,2.7441,2.6973,2.6719,2.6128,2.5757,2.5698,2.5698,2.5698,2.5698,2.5698,2.564,2.5484,2.5449,2.5078,2.4375,2.416,2.3519,2.2447,2.17,2.0914,1.9754,1.9241,1.8788,1.8701,1.8527,1.8558,1.9054,1.8791,1.8658,1.8008,1.6873,1.6526,1.6551,1.6433,1.6353,4.5711,4.607,4.5057,4.3612,4.1949,4.089,4.0273,3.9803,3.8471,3.7843,3.7748,3.6832,3.6405,3.6405,3.6405,3.6155,3.5757,3.5558,3.5282,3.4929,3.4778,3.4502,3.4344,3.5992,3.6668,3.6596,3.8236,3.9249,3.9307,3.896,3.8422,3.7985,3.7764,3.7674,3.7644,3.7524,3.7387,3.7387,3.7387,3.7387,3.7327,3.7165,3.6926,3.6789,3.704,3.6881,3.6212,3.6202,3.5557,3.4064,3.4177,3.3331,3.1334,3.0171,2.8921,2.7593,2.6893,2.6758,2.7168,2.7526,2.7878,2.8223,2.8301,2.8301,2.8301,2.8301,2.8301,2.8301,2.8301,2.8301,2.8301,2.8301,2.8301,2.8301,2.8301,2.8301,2.8301,2.8301,2.8301,2.8223,2.7682,2.707,2.6797,2.6167,2.5698,2.5698,2.5698,2.5698,2.5698,2.5698,2.5698,2.5698,2.5698,2.5386,2.4766,2.459,2.4062,2.3397,2.2832,2.2138,2.136,2.1145,2.0745,1.987,2.0568,2.0442,1.959,1.9786,1.9957,1.8622,1.7568,1.6943,1.6846,1.6792,1.67,4.4748,4.3633,4.2943,4.2022,4.0839,4.0134,3.9204,3.8306,3.7556,3.7281,3.7253,3.6704,3.6406,3.643,3.643,3.6405,3.6281,3.5782,3.5533,3.5408,3.5004,3.4703,3.4743,3.5825,3.6356,3.6572,3.809,3.9067,3.9445,3.9391,3.9361,3.9242,3.8661,3.835,3.8272,3.7823,3.7434,3.7537,3.7537,3.7447,3.7507,3.8003,3.7956,3.7369,3.7043,3.6843,3.6586,3.5506,3.4721,3.4645,3.3679,3.2547,3.1248,3.0353,2.8933,2.7316,2.6979,2.7168,2.7565,2.7702,2.7897,2.8203,2.8301,2.8301,2.8301,2.8301,2.8301,2.8301,2.8301,2.8301,2.8301,2.8301,2.8301,2.8301,2.8301,2.8301,2.8301,2.8301,2.8301,2.8242,2.7897,2.733,2.6562,2.5991,2.5796,2.5757,2.5737,2.5698,2.5698,2.5698,2.5698,2.5698,2.5679,2.5542,2.516,2.5063,2.484,2.4352,2.3588,2.2813,2.2245,2.1758,2.134,2.1069,2.1466,2.1101,1.9782,1.9165,1.9104,1.849,1.8046,1.7596,1.817,1.7227,1.7312,4.2714,4.2277,4.2013,4.1227,4.0081,3.9469,3.8966,3.8517,3.7939,3.7713,3.7613,3.716,3.6909,3.6909,3.6532,3.6405,3.638,3.618,3.6081,3.6031,3.5879,3.5579,3.5344,3.6308,3.7084,3.7609,3.8698,3.9547,3.9987,4.0038,3.981,3.9421,3.917,3.9032,3.902,3.8811,3.8673,3.8673,3.8673,3.8691,3.8673,3.8913,3.8614,3.7726,3.7502,3.7101,3.6443,3.5292,3.4387,3.3725,3.2822,3.1745,3.0468,2.8927,2.7803,2.7139,2.7285,2.7526,2.7682,2.793,2.8151,2.8262,2.8301,2.8301,2.8301,2.8301,2.8301,2.8301,2.8301,2.8301,2.8301,2.8301,2.8301,2.8301,2.8301,2.8301,2.8301,2.8301,2.8301,2.8242,2.7956,2.7448,2.6914,2.6406,2.6172,2.6113,2.5893,2.5713,2.5698,2.5698,2.5698,2.5698,2.5698,2.5659,2.5542,2.5464,2.5382,2.5232,2.4818,2.4655,2.4261,2.4018,2.3723,2.3499,2.3408,2.3135,2.2265,2.1395,2.0864,2.0689,2.01,1.927,2.0081,1.927,1.9406,4.1244,4.1518,4.1144,4.0516,3.9698,3.9321,3.9145,3.9095,3.8517,3.8316,3.8191,3.7713,3.7462,3.7387,3.7061,3.6909,3.6859,3.6581,3.6405,3.6405,3.6405,3.6205,3.5972,3.6539,3.7097,3.7693,3.8797,3.9627,4.0142,4.0528,4.0487,4.0098,4.0019,4.0038,4.0068,4.0068,4.0038,4.0019,4.0038,4.0068,4.0031,3.9639,3.9143,3.8409,3.772,3.6888,3.6001,3.4982,3.4229,3.3599,3.2693,3.146,2.9884,2.8202,2.7285,2.7441,2.7695,2.7897,2.7917,2.8171,2.8301,2.8301,2.8301,2.8301,2.8301,2.8301,2.8301,2.8301,2.8301,2.8301,2.8301,2.8301,2.8301,2.8301,2.8301,2.8301,2.8301,2.8301,2.8301,2.8242,2.7956,2.7585,2.7226,2.6719,2.6426,2.6412,2.5971,2.5718,2.5698,2.5698,2.5698,2.5698,2.5698,2.5698,2.564,2.562,2.562,2.5489,2.5445,2.5635,2.5698,2.5698,2.5698,2.5698,2.5601,2.5455,2.4873,2.3899,2.3434,2.3235,2.2038,2.0772,2.1197,2.1458,2.1351,4.0465,4.1269,4.0236,3.98,3.9697,3.9647,3.9647,3.9572,3.912,3.8894,3.8818,3.8266,3.8015,3.799,3.7864,3.7914,3.7688,3.6959,3.6556,3.6505,3.648,3.6406,3.6329,3.6398,3.6584,3.6808,3.8204,3.9207,3.9783,4.0713,4.1192,4.1324,4.1224,4.1164,4.1343,4.1224,4.1283,4.1186,4.1099,4.1121,4.1192,4.0003,3.9295,3.9053,3.7403,3.6156,3.5558,3.4528,3.4208,3.439,3.3303,3.1653,2.9661,2.8319,2.7858,2.8125,2.8262,2.8281,2.8262,2.8308,2.8301,2.8301,2.8301,2.8301,2.8301,2.8301,2.8301,2.8301,2.8301,2.8301,2.8301,2.8301,2.8301,2.8301,2.8301,2.8301,2.8301,2.8301,2.8301,2.8242,2.7995,2.7741,2.7545,2.7076,2.6627,2.6529,2.6172,2.5854,2.5835,2.5815,2.5757,2.5698,2.5698,2.5698,2.5698,2.5698,2.5698,2.5674,2.5654,2.5698,2.5698,2.5698,2.5698,2.5698,2.5698,2.5528,2.5045,2.4122,2.3484,2.3092,2.2316,2.2324,2.2642,2.2868,2.2542,3.9929,4.0236,3.9878,3.9697,3.9697,3.9697,3.9697,3.9697,3.9496,3.9421,3.9346,3.8869,3.8642,3.8517,3.8191,3.8015,3.7965,3.7613,3.7311,3.7009,3.6959,3.6758,3.6505,3.643,3.6826,3.7674,3.8927,3.9809,4.0241,4.0679,4.0999,4.1341,4.1414,4.1403,4.1425,4.1403,4.1403,4.1327,4.0578,4.0178,4.008,3.9054,3.8124,3.735,3.663,3.6035,3.5494,3.4808,3.455,3.466,3.2866,3.0899,2.9077,2.8324,2.8191,2.8262,2.8301,2.8301,2.8301,2.8301,2.8301,2.8301,2.8301,2.8301,2.8301,2.8301,2.8301,2.8301,2.8301,2.8301,2.8301,2.8301,2.8301,2.8301,2.8301,2.8301,2.8301,2.8301,2.8301,2.8281,2.8184,2.8105,2.8008,2.7519,2.7233,2.7194,2.6836,2.6479,2.625,2.6152,2.601,2.5796,2.5757,2.5757,2.5796,2.5776,2.5698,2.5698,2.5698,2.5698,2.5698,2.5698,2.5698,2.5698,2.5698,2.5504,2.502,2.4584,2.4048,2.4146,2.427,2.4369,2.4436,2.4196,2.3807,3.9998,3.9973,3.9772,3.9697,3.9697,3.9697,3.9697,3.9697,3.9697,3.9697,3.9597,3.9371,3.9195,3.912,3.8793,3.8642,3.8642,3.8642,3.8341,3.7838,3.7563,3.7287,3.7009,3.7009,3.7319,3.8205,3.9528,4.0089,3.9974,4.0663,4.1154,4.1401,4.1065,4.1094,4.1342,4.1016,4.0837,4.0697,4.011,3.9713,3.9485,3.8577,3.7682,3.7003,3.6564,3.6189,3.5828,3.5504,3.5098,3.4284,3.2341,3.0193,2.8502,2.8281,2.8301,2.8301,2.8301,2.8301,2.8301,2.8301,2.8301,2.8301,2.8301,2.8301,2.8301,2.8301,2.8301,2.8301,2.8301,2.8359,2.8476,2.8359,2.8359,2.8516,2.8379,2.832,2.8301,2.8301,2.8301,2.8301,2.8281,2.8301,2.8223,2.7956,2.7721,2.7643,2.7285,2.6947,2.666,2.6465,2.6289,2.6069,2.5913,2.5913,2.5952,2.5854,2.5718,2.5698,2.5698,2.5698,2.5698,2.5698,2.5698,2.5698,2.5698,2.5698,2.5308,2.5406,2.5167,2.565,2.5698,2.5455,2.5118,2.5284,2.502,4.0524,4.0424,3.9973,3.9747,3.9697,3.9697,3.9697,3.9697,3.9697,3.9697,3.9672,3.9647,3.9647,3.9672,3.9521,3.9521,3.9672,3.9546,3.9295,3.8843,3.8417,3.8065,3.7839,3.7789,3.7887,3.8227,3.9565,3.9851,3.9356,4.0445,4.1499,4.1329,4.0541,4.0468,4.1133,4.0453,4.0173,4.0272,4.0017,3.9837,3.9716,3.8604,3.7945,3.7779,3.6882,3.6373,3.6328,3.5902,3.5331,3.4141,3.1752,2.9812,2.8621,2.832,2.8301,2.8301,2.8301,2.8301,2.8301,2.8301,2.8301,2.8301,2.8301,2.8301,2.8301,2.8301,2.8301,2.8301,2.8301,2.8457,2.8691,2.8594,2.8574,2.8828,2.8574,2.832,2.8301,2.8301,2.8301,2.8301,2.8301,2.8301,2.8281,2.7976,2.7839,2.7721,2.7441,2.7246,2.7031,2.6894,2.6758,2.6523,2.6264,2.6264,2.6362,2.6303,2.6147,2.5952,2.5893,2.5835,2.5737,2.5698,2.5698,2.5698,2.5698,2.5698,2.5698,2.5698,2.5698,2.5698,2.5698,2.5698,2.5698,2.5698,2.5698,4.0851,4.0474,4.0349,4.0074,3.9722,3.9697,3.9697,3.9697,3.9697,3.9697,3.9697,3.9697,3.9697,3.9697,3.9697,3.9697,3.9697,3.9697,3.9647,3.9522,3.9346,3.8718,3.814,3.8015,3.804,3.8163,3.8767,3.9023,3.9515,3.9696,4.0165,4.0888,4.0205,4.0183,4.0745,4.0565,4.0725,4.0881,4.0164,3.9554,3.9047,3.807,3.7257,3.6828,3.657,3.6406,3.6218,3.4743,3.3807,3.3302,3.1412,2.984,2.8854,2.8496,2.834,2.834,2.8301,2.8301,2.8301,2.8301,2.8301,2.8301,2.8301,2.8301,2.8301,2.8301,2.8301,2.8301,2.8301,2.8476,2.8809,2.882,2.8984,2.9246,2.8789,2.8379,2.8359,2.8301,2.8301,2.8301,2.832,2.832,2.8262,2.8203,2.8132,2.8093,2.7949,2.7773,2.7519,2.7344,2.7233,2.6992,2.6791,2.6771,2.6771,2.6732,2.6596,2.6328,2.6191,2.6055,2.5874,2.5698,2.5698,2.5698,2.5698,2.5698,2.5698,2.5698,2.5698,2.5698,2.5698,2.5698,2.5698,2.5698,2.5698,4.1505,4.1153,4.07,4.0299,4.0023,3.9823,3.9697,3.9697,3.9697,3.9697,3.9697,3.9697,3.9697,3.9697,3.9697,3.9697,3.9697,3.9697,3.9697,3.9697,3.9672,3.9295,3.8843,3.8718,3.8718,3.8743,3.8964,3.9231,3.9395,3.9309,3.9724,4.0037,3.949,3.9516,4.0244,3.9764,3.9737,3.9841,3.9351,3.8859,3.8453,3.7672,3.7156,3.6708,3.6557,3.6291,3.5649,3.4213,3.3265,3.2649,3.1148,2.9749,2.9239,2.8789,2.8555,2.8555,2.8398,2.8301,2.8301,2.8301,2.8379,2.8476,2.8418,2.8398,2.8476,2.8418,2.8301,2.8301,2.8437,2.8769,2.9121,2.9336,2.9473,2.952,2.9149,2.8855,2.8855,2.8867,2.873,2.8633,2.8555,2.8457,2.8367,2.8301,2.8301,2.8281,2.8242,2.8105,2.7995,2.7839,2.7702,2.75,2.7201,2.7129,2.7129,2.7084,2.6967,2.6719,2.6328,2.6211,2.5971,2.5757,2.5698,2.5698,2.5698,2.5698,2.5698,2.5698,2.5698,2.5698,2.5698,2.5698,2.5698,2.5698,2.5698,4.2263,4.2085,4.1078,4.06,4.045,3.9998,3.9772,3.9697,3.9697,3.9697,3.9697,3.9697,3.9697,3.9697,3.9697,3.9697,3.9697,3.9697,3.9697,3.9697,3.9697,3.9597,3.9546,3.9471,3.9496,3.9574,4.0225,3.9848,3.9395,3.9498,3.9625,3.9499,3.8627,3.8701,3.9356,3.8778,3.8214,3.8564,3.869,3.8539,3.8287,3.7812,3.7512,3.7262,3.6959,3.6234,3.5342,3.4288,3.3588,3.2908,3.0785,2.979,2.9559,2.9219,2.8996,2.8945,2.873,2.8535,2.8476,2.8555,2.8613,2.8867,2.8672,2.8574,2.8848,2.873,2.8574,2.8594,2.8789,2.918,2.9618,3.0,3.0078,2.995,2.9755,2.9735,2.9715,2.9657,2.9442,2.9062,2.8984,2.8789,2.8574,2.8379,2.8379,2.8496,2.8418,2.8242,2.8171,2.8034,2.8054,2.8086,2.7754,2.7383,2.7422,2.7461,2.7279,2.7064,2.6562,2.6289,2.603,2.5854,2.5757,2.5698,2.5698,2.5698,2.5698,2.5698,2.5718,2.5698,2.5698,2.5698,2.5698,2.5698,2.5698,4.2587,4.2187,4.1934,4.1304,4.0576,4.0375,4.0099,3.9722,3.9722,3.9772,3.9722,3.9722,3.9722,3.9697,3.9722,3.9697,3.9697,3.9697,3.9697,3.9697,3.9697,3.9697,3.9697,3.9697,3.9697,3.975,3.9803,3.9752,3.9524,3.9272,3.9118,3.9018,3.8639,3.8365,3.8943,3.8943,3.8919,3.922,3.9295,3.9019,3.8743,3.8542,3.8215,3.7839,3.7614,3.6899,3.5736,3.4758,3.3685,3.2274,3.0747,2.9833,2.9941,2.9696,2.9453,2.9394,2.9364,2.9285,2.9305,2.9266,2.9344,2.9403,2.9324,2.9364,2.9422,2.9364,2.9285,2.9324,2.9422,2.9609,3.0039,3.0497,3.0615,3.0537,3.0537,3.0556,3.0488,3.0028,2.9657,2.95,2.9442,2.9422,2.9258,2.8906,2.8828,2.875,2.8594,2.8359,2.8262,2.8249,2.8242,2.834,2.8144,2.7793,2.7812,2.7812,2.7695,2.748,2.6992,2.6641,2.6381,2.6005,2.5947,2.581,2.5698,2.5718,2.5757,2.5776,2.5815,2.5757,2.5718,2.5698,2.5698,2.5698,2.5698,4.2838,4.2537,4.2313,4.1858,4.1304,4.0976,4.07,4.0474,4.0449,4.0299,4.0199,4.0299,4.0174,3.9747,3.9948,3.9973,3.9722,3.9697,3.9697,3.9697,3.9697,3.9697,3.9697,3.9697,3.9697,3.9697,3.9723,3.9697,3.9597,3.9421,3.9347,3.9271,3.8919,3.9019,3.922,3.9271,3.9371,3.9572,3.9697,3.9521,3.9321,3.8994,3.8592,3.7992,3.7566,3.6699,3.5195,3.4238,3.3048,3.1778,3.0721,3.0302,3.0419,3.0098,2.9883,2.9844,2.9676,2.9618,2.9598,2.9618,2.9657,2.9872,2.9735,2.9755,2.9755,2.9735,2.9598,2.9657,2.9794,3.0067,3.0469,3.0713,3.0908,3.0928,3.0928,3.0928,3.0849,3.0497,3.0106,2.9989,2.9891,2.9755,2.9551,2.9375,2.9277,2.9199,2.916,2.8945,2.8625,2.8594,2.8418,2.8418,2.834,2.8223,2.8223,2.8184,2.8105,2.7871,2.7519,2.7291,2.7115,2.6654,2.62,2.6064,2.5932,2.5815,2.5835,2.5874,2.5913,2.5796,2.5713,2.5718,2.5718,2.5757,2.5737,4.309,4.2964,4.2512,4.2288,4.211,4.1656,4.1378,4.1277,4.1302,4.0951,4.075,4.1127,4.0725,4.0224,4.03,4.0174,3.9823,3.9697,3.9697,3.9697,3.9697,3.9697,3.9697,3.9697,3.9697,3.9697,3.9697,3.9697,3.9697,3.9697,3.9597,3.9672,3.9672,3.9546,3.9647,3.9697,3.9647,3.9697,3.9697,3.9697,3.9597,3.9271,3.8818,3.8391,3.7448,3.6315,3.4895,3.3732,3.246,3.1054,3.0928,3.0928,3.0801,3.0566,3.0312,3.0293,3.0067,2.997,2.997,2.9911,3.0028,3.0273,3.0048,2.998,3.0137,3.0106,2.9961,2.9961,3.0156,3.0449,3.084,3.0908,3.0908,3.0928,3.0928,3.0928,3.0928,3.0928,3.0625,3.041,3.0312,3.0243,3.0028,2.9805,2.9755,2.9676,2.9665,2.9548,2.9262,2.9047,2.8972,2.866,2.8555,2.8359,2.832,2.8301,2.8242,2.8132,2.7858,2.7721,2.7545,2.7051,2.6557,2.6323,2.6186,2.6147,2.6186,2.6323,2.6245,2.5952,2.5966,2.6186,2.6089,2.5874,2.5835,4.3388,4.3014,4.2914,4.2612,4.2238,4.2085,4.1781,4.1352,4.1403,4.1277,4.1227,4.1277,4.125,4.0951,4.06,4.0224,3.9898,3.9747,3.9697,3.9697,3.9697,3.9697,3.9697,3.9697,3.9697,3.9697,3.9697,3.9697,3.9697,3.9697,3.9697,3.9697,3.9697,3.9697,3.9697,3.9697,3.9697,3.9697,3.9697,3.9697,3.9647,3.9546,3.9421,3.9041,3.7847,3.644,3.5131,3.3781,3.2436,3.1083,3.0928,3.0928,3.0879,3.0781,3.0742,3.0713,3.0654,3.0537,3.0556,3.0634,3.0713,3.0762,3.0654,3.0634,3.0732,3.0713,3.0527,3.0566,3.0654,3.0801,3.0908,3.0928,3.0928,3.0928,3.0928,3.0928,3.0928,3.0879,3.0859,3.0703,3.0732,3.0713,3.0458,3.0263,3.0185,3.0237,3.0393,3.0282,3.006,2.9901,2.9809,2.9344,2.8848,2.8594,2.8359,2.832,2.8262,2.8184,2.8015,2.7839,2.7624,2.7246,2.6934,2.692,2.6797,2.6732,2.6791,2.6836,2.6732,2.6518,2.6615,2.6732,2.6518,2.6284,2.6191,4.3639,4.3388,4.3087,4.2864,4.2637,4.2612,4.2462,4.2208,4.2183,4.2007,4.1907,4.2007,4.1804,4.1453,4.143,4.0927,4.0249,3.9772,3.9722,3.9697,3.9697,3.9697,3.9697,3.9697,3.9697,3.9697,3.9697,3.9697,3.9697,3.9697,3.9697,3.9697,3.9697,3.9697,3.9697,3.9697,3.9697,3.9697,3.9697,3.9697,3.9697,3.9697,3.9697,3.9206,3.761,3.6081,3.5123,3.2985,3.171,3.1054,3.0928,3.0928,3.0928,3.0928,3.0928,3.0928,3.0928,3.0928,3.0928,3.0928,3.0908,3.0908,3.0928,3.0928,3.0928,3.0888,3.0928,3.0928,3.0928,3.0928,3.0928,3.0928,3.0928,3.0928,3.0928,3.0928,3.0928,3.0928,3.0986,3.1015,3.0985,3.0946,3.082,3.0664,3.0586,3.0736,3.1091,3.1143,3.1088,3.1264,3.1409,3.1037,3.058,2.9702,2.9393,2.914,2.9019,2.8814,2.8655,2.8476,2.8344,2.8293,2.8001,2.7774,2.763,2.7324,2.7168,2.7109,2.7109,2.7109,2.7025,2.6947,2.685,2.6713,2.6777,4.4066,4.3915,4.3489,4.3266,4.3165,4.3165,4.309,4.3014,4.2964,4.2713,4.2462,4.2713,4.2459,4.1907,4.1731,4.1455,4.0626,4.0023,3.9772,3.9873,3.9747,3.9697,3.9697,3.9697,3.9697,3.9697,3.9697,3.9697,3.9697,3.9697,3.9697,3.9697,3.9697,3.9697,3.9697,3.9697,3.9697,3.9697,3.9697,3.9697,3.9697,3.9697,3.9697,3.9413,3.6838,3.5343,3.5041,3.2579,3.1286,3.0957,3.0928,3.0928,3.0928,3.0928,3.0928,3.0928,3.0928,3.0928,3.0928,3.0928,3.0928,3.0928,3.0928,3.0928,3.0928,3.0928,3.0928,3.0928,3.0928,3.0928,3.0928,3.0928,3.0928,3.0928,3.0928,3.0928,3.0928,3.1015,3.1286,3.1286,3.1257,3.1441,3.1652,3.1805,3.1864,3.2676,3.3036,3.3077,3.3087,3.3589,3.3661,3.3287,3.2601,3.1349,3.073,3.0363,3.0229,3.0099,3.0052,2.9948,2.9834,2.9709,2.9312,2.8884,2.8087,2.7761,2.7585,2.7513,2.7598,2.7578,2.7363,2.7536,2.8053,2.8025,2.7864,4.4995,4.4518,4.4468,4.4166,4.374,4.3689,4.3413,4.3037,4.3039,4.2989,4.2838,4.2964,4.2914,4.2559,4.1781,4.1403,4.0951,4.035,4.0099,4.0325,4.0049,3.9873,3.9772,3.9697,3.9798,3.9772,3.9722,3.9697,3.9697,3.9697,3.9697,3.9697,3.9697,3.9697,3.9697,3.9697,3.9697,3.9697,3.9697,3.9697,3.9697,3.9697,3.9697,3.8842,3.7022,3.5178,3.4736,3.2407,3.1015,3.0928,3.0928,3.0928,3.0928,3.0928,3.0928,3.0928,3.0928,3.0928,3.0928,3.0928,3.0928,3.0928,3.0928,3.0928,3.0928,3.0928,3.0928,3.0928,3.0928,3.0928,3.0928,3.0928,3.0928,3.0928,3.0928,3.0928,3.0928,3.0928,3.1228,3.1854,3.1911,3.2473,3.2879,3.3049,3.3283,3.4181,3.4902,3.4919,3.5176,3.5631,3.5513,3.5009,3.4449,3.3276,3.2237,3.182,3.1555,3.1434,3.1369,3.1347,3.1133,3.0901,3.054,2.9985,2.9239,2.8793,2.8868,2.8744,2.837,2.8503,2.8842,2.9306,2.9798,2.9543,2.9124,4.5623,4.5095,4.474,4.4464,4.4242,4.394,4.3664,4.3413,4.314,4.3014,4.3014,4.3014,4.3014,4.2813,4.2135,4.1831,4.163,4.0953,4.07,4.0876,4.0701,4.0601,4.0549,4.0325,4.0174,4.0099,3.9873,3.9697,3.9697,3.9697,3.9697,3.9697,3.9697,3.9697,3.9697,3.9697,3.9697,3.9697,3.9697,3.9697,3.9697,3.9645,3.9336,3.8477,3.6406,3.5096,3.3838,3.2178,3.0986,3.0928,3.0928,3.0928,3.0928,3.0928,3.0928,3.0928,3.0928,3.0928,3.0928,3.0928,3.0928,3.0928,3.0928,3.0928,3.0928,3.0928,3.0928,3.0928,3.0928,3.0928,3.0928,3.0928,3.0928,3.0957,3.1286,3.1257,3.1228,3.0937,3.1141,3.1883,3.2758,3.3649,3.4431,3.4681,3.4875,3.5316,3.6108,3.6491,3.6949,3.7642,3.7228,3.6477,3.5902,3.5169,3.4147,3.3422,3.2982,3.2801,3.2638,3.2578,3.2345,3.2053,3.198,3.2063,3.1927,3.1367,3.0639,3.0021,2.9693,3.0078,3.0592,3.0953,3.1217,3.1048,3.0668,4.6075,4.5648,4.5192,4.4941,4.4794,4.4242,4.3915,4.374,4.324,4.3014,4.3014,4.3014,4.3014,4.2889,4.2462,4.221,4.2336,4.1656,4.1478,4.1453,4.1378,4.1252,4.1076,4.0851,4.07,4.0675,4.0224,3.9998,3.9898,3.9772,3.9697,3.9697,3.9697,3.9697,3.9697,3.9697,3.9697,3.9697,3.9697,3.9697,3.9697,3.9697,3.9103,3.7952,3.6352,3.4792,3.3614,3.1767,3.0957,3.0928,3.0928,3.0928,3.0928,3.0928,3.0928,3.0928,3.0928,3.0928,3.0928,3.0928,3.0928,3.0928,3.0928,3.0928,3.0928,3.0928,3.0928,3.0928,3.0928,3.0928,3.1015,3.1199,3.1623,3.1883,3.2084,3.1969,3.1998,3.2207,3.2928,3.4181,3.5068,3.5508,3.6135,3.6406,3.6592,3.6646,3.7156,3.7849,3.8425,3.8999,3.8662,3.7832,3.7639,3.7076,3.6374,3.5465,3.4892,3.4406,3.4242,3.4308,3.4405,3.4188,3.4028,3.4165,3.4129,3.3533,3.2536,3.1746,3.103,3.1261,3.1546,3.2205,3.2492,3.2396,3.236,4.6301,4.625,4.62,4.5874,4.5397,4.479,4.4292,4.384,4.3263,4.3039,4.3014,4.3014,4.3014,4.2889,4.2587,4.2512,4.2864,4.1779,4.1806,4.1831,4.163,4.1528,4.1453,4.1403,4.1252,4.1177,4.0725,4.0474,4.0299,3.9973,3.9823,3.9697,3.9722,3.9722,3.9697,3.9697,3.9697,3.9697,3.9697,3.9697,3.9697,3.9697,3.9491,3.879,3.6888,3.5206,3.4958,3.2379,3.0928,3.0928,3.0928,3.0928,3.0928,3.0928,3.0928,3.0928,3.0928,3.0928,3.0928,3.0928,3.0928,3.0928,3.0928,3.0928,3.0928,3.0928,3.0928,3.0928,3.0928,3.0928,3.1315,3.1911,3.2121,3.2672,3.2957,3.3529,3.3726,3.4174,3.5013,3.6514,3.7052,3.6972,3.7477,3.7713,3.8005,3.8084,3.8214,3.8868,3.8999,3.9439,3.9516,3.9208,3.9311,3.9012,3.8665,3.791,3.7128,3.6709,3.6566,3.6796,3.7072,3.6725,3.5807,3.5558,3.534,3.4896,3.4506,3.3771,3.3062,3.2448,3.2582,3.3527,3.3995,3.4049,3.4075,4.6296,4.6296,4.6296,4.62,4.5949,4.5397,4.4819,4.4267,4.3714,4.3263,4.3014,4.3014,4.3014,4.2939,4.2864,4.2788,4.2939,4.261,4.2537,4.2562,4.2434,4.2359,4.2258,4.2007,4.1858,4.1731,4.1304,4.1001,4.0926,4.045,4.0275,4.0149,3.9923,3.9722,3.9697,3.9697,3.9697,3.9697,3.9697,3.9697,3.9697,3.962,3.9284,3.8163,3.6595,3.4847,3.3761,3.1977,3.1199,3.0928,3.0957,3.1025,3.0995,3.1015,3.0986,3.0966,3.0995,3.0928,3.0928,3.0928,3.0928,3.0928,3.0928,3.0928,3.0928,3.0928,3.0928,3.0928,3.0995,3.1112,3.1141,3.1469,3.1825,3.2843,3.3873,3.482,3.5398,3.5863,3.6054,3.7079,3.7373,3.74,3.8137,3.8895,3.9232,3.9542,3.9645,3.9697,3.9697,3.9697,3.9697,3.9697,3.9697,3.9697,3.9346,3.922,3.9145,3.8843,3.8542,3.8442,3.8341,3.7916,3.7146,3.6871,3.6622,3.6354,3.6062,3.5721,3.5111,3.4383,3.4508,3.5162,3.5475,3.5499,3.5403,4.6522,4.6496,4.6376,4.6296,4.6225,4.5723,4.5171,4.4593,4.4016,4.3489,4.3014,4.3014,4.3014,4.3014,4.2989,4.2989,4.3014,4.2939,4.2964,4.2964,4.2939,4.3014,4.2889,4.2688,4.2411,4.2286,4.1909,4.158,4.1555,4.1001,4.08,4.0651,4.0375,4.0149,3.9697,3.9697,3.9697,3.9697,3.9697,3.9697,3.9697,3.9645,3.8973,3.7636,3.6108,3.4653,3.3529,3.2236,3.1498,3.1267,3.1296,3.1565,3.1441,3.1267,3.1199,3.1267,3.1199,3.0986,3.0957,3.0928,3.0928,3.0928,3.0928,3.0928,3.0928,3.0957,3.1025,3.171,3.1652,3.1652,3.1911,3.3162,3.3901,3.5211,3.6054,3.6865,3.7103,3.7447,3.7263,3.745,3.7769,3.8348,3.8635,3.9336,3.9439,3.9697,3.9697,3.9697,3.9697,3.9697,3.9697,3.9697,3.9697,3.9697,3.9672,3.9521,3.9396,3.9371,3.912,3.8994,3.8793,3.8492,3.8442,3.8265,3.804,3.7865,3.7268,3.6504,3.6327,3.6218,3.6192,3.5977,3.6049,3.6002,3.6121,4.7074,4.7023,4.6496,4.6296,4.622,4.5748,4.5196,4.4669,4.4066,4.3489,4.3039,4.3014,4.3014,4.3014,4.3014,4.3014,4.3014,4.3014,4.3014,4.3014,4.3014,4.3014,4.2989,4.2914,4.2813,4.2813,4.2462,4.216,4.216,4.158,4.1327,4.1252,4.1051,4.0675,3.9823,3.9722,3.9722,3.9722,3.9747,3.9697,3.9697,3.9697,3.8921,3.7899,3.6135,3.4626,3.3861,3.2711,3.1919,3.1426,3.2067,3.2423,3.2489,3.1705,3.1839,3.2727,3.1787,3.1286,3.1083,3.1044,3.1239,3.1015,3.0928,3.0918,3.0918,3.1015,3.1529,3.2387,3.2542,3.3388,3.4709,3.5863,3.6054,3.6892,3.761,3.819,3.8319,3.8607,3.8372,3.8216,3.8947,3.962,3.9594,3.9671,3.9645,3.9697,3.9697,3.9697,3.9697,3.9697,3.9697,3.9697,3.9697,3.9697,3.9697,3.9697,3.9647,3.9673,3.9597,3.9396,3.9371,3.9245,3.927,3.9421,3.9044,3.8492,3.7838,3.7137,3.6833,3.6531,3.643,3.631,3.6381,3.6405,3.6405,4.7068,4.7048,4.6522,4.6296,4.6276,4.6125,4.5698,4.5095,4.4242,4.3489,4.309,4.3014,4.3014,4.3014,4.3014,4.3014,4.3014,4.3014,4.3014,4.3014,4.3014,4.3014,4.3014,4.3014,4.3014,4.2964,4.2763,4.2688,4.2713,4.216,4.1959,4.1858,4.1578,4.1127,4.075,4.0474,4.0249,4.0148,3.9948,3.9697,3.9697,3.9671,3.9388,3.8687,3.6541,3.5257,3.474,3.3534,3.2542,3.2137,3.2962,3.3071,3.3156,3.2509,3.3078,3.3756,3.3272,3.3838,3.3946,3.3968,3.3135,3.1975,3.1239,3.1386,3.1289,3.1016,3.191,3.2897,3.3015,3.3791,3.4792,3.4453,3.482,3.6838,3.7796,3.8453,3.8818,3.9232,3.9336,3.9284,3.9671,3.9697,3.9697,3.9697,3.9697,3.9697,3.9697,3.9697,3.9697,3.9697,3.9697,3.9697,3.9697,3.9697,3.9697,3.9697,3.9697,3.9672,3.9672,3.9622,3.9647,3.9697,3.9672,3.9546,3.932,3.8994,3.8266,3.7537,3.6934,3.6606,3.6606,3.6505,3.6405,3.6405,3.6405,4.755,4.7324,4.6798,4.6476,4.6326,4.6296,4.5999,4.5347,4.4317,4.3589,4.3288,4.3115,4.3014,4.3014,4.3014,4.3014,4.3014,4.3014,4.3014,4.3014,4.3014,4.3014,4.3014,4.3014,4.3014,4.3014,4.3014,4.2989,4.2939,4.2637,4.2487,4.2386,4.2082,4.2007,4.1679,4.1277,4.0775,4.0625,4.0375,4.0049,3.9973,3.9796,3.9413,3.8504,3.7203,3.6041,3.5597,3.4755,3.3768,3.3856,3.4149,3.4425,3.4651,3.4628,3.5055,3.5404,3.5051,3.5388,3.5235,3.5296,3.4229,3.2998,3.2617,3.2835,3.3102,3.3397,3.4318,3.4797,3.396,3.5203,3.6475,3.5653,3.6333,3.8441,3.8642,3.9349,3.9283,3.9696,3.9697,3.9697,3.9697,3.9697,3.9697,3.9697,3.9697,3.9697,3.9697,3.9697,3.9697,3.9697,3.9697,3.9697,3.9697,3.9697,3.9697,3.9697,3.9697,3.9697,3.9697,3.9697,3.9697,3.9697,3.9697,3.9647,3.9295,3.8969,3.8517,3.7939,3.7436,3.7085,3.6934,3.6733,3.648,3.6405,3.6405,4.8435,4.7883,4.7324,4.6798,4.6401,4.6351,4.5999,4.5426,4.4317,4.384,4.374,4.3215,4.3014,4.3014,4.3014,4.3014,4.3014,4.3014,4.3014,4.3014,4.3014,4.3014,4.3014,4.3014,4.3014,4.3014,4.3014,4.3014,4.3014,4.2889,4.2889,4.2939,4.2763,4.2685,4.2384,4.2007,4.1478,4.1254,4.0826,4.0526,4.0325,3.9997,3.933,3.8419,3.7328,3.6795,3.6615,3.6477,3.664,3.7087,3.7759,3.8414,3.8424,3.7678,3.7832,3.7625,3.6612,3.6452,3.6187,3.6434,3.6274,3.5801,3.6139,3.6224,3.5852,3.5659,3.6441,3.7291,3.7279,3.8907,4.0158,3.993,3.9805,4.025,4.0134,4.012,3.9795,3.9772,3.9722,3.9697,3.9697,3.9697,3.9697,3.9697,3.9697,3.9697,3.9697,3.9697,3.9697,3.9697,3.9697,3.9697,3.9697,3.9697,3.9697,3.9697,3.9697,3.9697,3.9697,3.9697,3.9697,3.9697,3.9697,3.9572,3.9245,3.8894,3.8592,3.8341,3.804,3.7713,3.7411,3.706,3.6808,3.648,3.6405,4.8686,4.8435,4.75,4.6998,4.6823,4.6476,4.5999,4.5422,4.4669,4.4163,4.3736,4.3266,4.3014,4.3014,4.3014,4.3014,4.3014,4.3014,4.3014,4.3014,4.3014,4.3014,4.3014,4.3014,4.3014,4.3014,4.3014,4.3014,4.3014,4.3014,4.3014,4.2989,4.3014,4.3014,4.2889,4.2688,4.2283,4.1856,4.1327,4.0901,4.0575,4.0275,3.9581,3.8936,3.7537,3.7343,3.8086,3.7098,3.717,3.8115,3.8258,3.8507,3.8384,3.8758,3.9407,4.0316,4.0106,4.0046,3.9328,3.9691,3.9604,3.9005,3.9546,3.8498,3.7632,3.7292,3.8168,3.9042,3.9243,4.0051,4.0873,4.1042,4.1106,4.1068,4.0926,4.0651,4.0325,4.0099,4.0023,3.9823,3.9823,3.9697,3.9697,3.9697,3.9697,3.9697,3.9697,3.9697,3.9697,3.9697,3.9697,3.9697,3.9697,3.9697,3.9697,3.9697,3.9697,3.9697,3.9697,3.9697,3.9697,3.9697,3.9697,3.9597,3.9421,3.912,3.8793,3.8642,3.8567,3.8165,3.7789,3.7462,3.7135,3.6833,3.6505,4.8868,4.836,4.7732,4.7174,4.6747,4.6421,4.61,4.5698,4.4941,4.4418,4.4041,4.3313,4.3014,4.3014,4.3014,4.3014,4.3014,4.3014,4.3014,4.3014,4.3014,4.3014,4.3014,4.3014,4.3014,4.3014,4.3014,4.3014,4.3014,4.3014,4.3014,4.3014,4.3014,4.3014,4.2964,4.2914,4.2813,4.2308,4.1781,4.1227,4.0851,4.0501,4.0099,3.9758,3.8136,3.8807,3.9709,3.8183,3.881,3.9861,4.0076,4.0105,4.0151,4.0656,4.0846,4.1545,4.1341,4.111,4.0682,4.1062,4.1198,4.1279,4.163,4.0909,4.0178,3.9786,4.0387,4.0974,4.0311,4.0054,4.0776,4.1357,4.1479,4.1572,4.1351,4.1103,4.0827,4.0551,4.0325,4.0074,3.9898,3.9747,3.9697,3.9697,3.9697,3.9697,3.9697,3.9697,3.9697,3.9697,3.9697,3.9697,3.9697,3.9697,3.9697,3.9697,3.9697,3.9697,3.9697,3.9697,3.9697,3.9697,3.9697,3.9697,3.9672,3.9421,3.9145,3.9195,3.912,3.8693,3.8391,3.8165,3.7788,3.7261,3.6909,4.8962,4.8008,4.7883,4.723,4.6376,4.6296,4.6271,4.6175,4.5095,4.4564,4.4367,4.3463,4.3014,4.3014,4.3014,4.3014,4.3014,4.3014,4.3014,4.3014,4.3014,4.3014,4.3014,4.3014,4.3014,4.3014,4.3014,4.3014,4.3014,4.3014,4.3014,4.3014,4.3014,4.3014,4.3014,4.3014,4.2914,4.2738,4.2057,4.1428,4.1177,4.06,4.0074,4.0448,4.0378,4.0701,4.1638,4.2038,4.2351,4.2702,4.2849,4.2653,4.2479,4.2279,4.2226,4.2155,4.1982,4.1706,4.1528,4.1704,4.163,4.1656,4.1907,4.1938,4.1645,4.1548,4.1966,4.2096,4.1538,4.1485,4.2041,4.2207,4.2298,4.2155,4.1932,4.1683,4.1404,4.1078,4.07,4.0424,4.0149,3.9973,3.9697,3.9697,3.9697,3.9697,3.9697,3.9697,3.9697,3.9697,3.9697,3.9697,3.9697,3.9697,3.9697,3.9697,3.9697,3.9697,3.9697,3.9697,3.9697,3.9697,3.9697,3.9697,3.9697,3.9697,3.9572,3.9572,3.9522,3.9421,3.9145,3.8969,3.8517,3.7889,3.7311,4.9188,4.8517,4.7657,4.6898,4.6351,4.6296,4.6296,4.62,4.5091,4.4614,4.4389,4.3539,4.3014,4.3014,4.3014,4.3014,4.3014,4.3014,4.3014,4.3014,4.3014,4.3014,4.3014,4.3014,4.3014,4.3014,4.3014,4.3014,4.3014,4.3014,4.3014,4.3014,4.3014,4.3014,4.3014,4.3014,4.2989,4.2939,4.2436,4.1957,4.1858,4.1783,4.1555,4.1078,4.0807,4.0999,4.1568,4.1559,4.2068,4.2653,4.293,4.2958,4.2961,4.2864,4.2813,4.2735,4.2559,4.2283,4.2133,4.2183,4.2233,4.221,4.2411,4.2663,4.2836,4.2964,4.2989,4.3014,4.3014,4.3014,4.3014,4.2989,4.2939,4.2688,4.2462,4.2235,4.1984,4.158,4.1127,4.08,4.0475,4.0149,3.9848,3.9697,3.9697,3.9697,3.9697,3.9697,3.9697,3.9697,3.9697,3.9697,3.9697,3.9697,3.9697,3.9697,3.9697,3.9697,3.9697,3.9697,3.9697,3.9697,3.9697,3.9697,3.9697,3.9697,3.9697,3.9672,3.9647,3.9673,3.9597,3.9321,3.9044,3.8517,3.7889,4.8912,4.8259,4.723,4.6572,4.6321,4.6296,4.6296,4.615,4.5372,4.4869,4.4439,4.3539,4.3014,4.3014,4.3014,4.3014,4.3014,4.3014,4.3014,4.3014,4.3014,4.3014,4.3014,4.3014,4.3014,4.3014,4.3014,4.3014,4.3014,4.3014,4.3014,4.3014,4.3014,4.3014,4.3014,4.3014,4.3014,4.2989,4.2663,4.2537,4.2411,4.2135,4.1932,4.1323,4.1412,4.1601,4.187,4.1945,4.2301,4.2765,4.2986,4.3014,4.3014,4.2964,4.2989,4.2989,4.2914,4.2864,4.2738,4.2738,4.2838,4.2738,4.2738,4.2914,4.2939,4.3014,4.3014,4.3014,4.3014,4.3014,4.3014,4.2989,4.2989,4.2838,4.2763,4.2637,4.2386,4.211,4.1781,4.1555,4.1053,4.0349,4.0099,3.9798,3.9772,3.9697,3.9697,3.9697,3.9697,3.9697,3.9697,3.9697,3.9697,3.9697,3.9697,3.9697,3.9697,3.9697,3.9697,3.9697,3.9697,3.9697,3.9697,3.9697,3.9697,3.9697,3.9697,3.9697,3.9697,3.9672,3.9673,3.9597,3.9321,3.9044,3.8416,4.8335,4.7682,4.6697,4.6296,4.6296,4.6296,4.6296,4.6225,4.5723,4.5196,4.464,4.3614,4.314,4.3014,4.3014,4.3014,4.3014,4.3014,4.3014,4.3014,4.3014,4.3014,4.3014,4.3014,4.3014,4.3014,4.3014,4.3014,4.3014,4.3014,4.3014,4.3014,4.3014,4.3014,4.3014,4.3014,4.3014,4.3014,4.2914,4.2964,4.2559,4.2108,4.2082,4.2185,4.2336,4.2562,4.2836,4.2961,4.2961,4.2986,4.3014,4.3014,4.3014,4.3014,4.3014,4.3014,4.3014,4.2964,4.2964,4.2939,4.2989,4.2989,4.3014,4.3014,4.3014,4.3014,4.3014,4.3014,4.3014,4.3014,4.3014,4.3014,4.3014,4.3014,4.2964,4.2939,4.2738,4.2537,4.2361,4.2185,4.1557,4.0802,4.035,4.0049,3.9848,3.9772,3.9697,3.9697,3.9697,3.9697,3.9697,3.9697,3.9697,3.9697,3.9697,3.9697,3.9697,3.9697,3.9697,3.9697,3.9697,3.9697,3.9697,3.9697,3.9697,3.9697,3.9697,3.9697,3.9697,3.9697,3.9672,3.9673,3.9597,3.9271,3.8843,4.7757,4.7199,4.6577,4.6296,4.6296,4.6296,4.6296,4.6225,4.5748,4.5397,4.5045,4.4166,4.3438,4.3014,4.3014,4.3014,4.3014,4.3014,4.3014,4.3014,4.3014,4.3014,4.3014,4.3014,4.3014,4.3014,4.3014,4.3014,4.3014,4.3014,4.3014,4.3014,4.3014,4.3014,4.3014,4.3014,4.3014,4.3014,4.3014,4.3014,4.3014,4.2735,4.2788,4.2838,4.2864,4.2914,4.2961,4.3014,4.3014,4.3014,4.3014,4.3014,4.3014,4.3014,4.3014,4.3014,4.3014,4.3014,4.3014,4.3014,4.3014,4.3014,4.3014,4.3014,4.3014,4.3014,4.3014,4.3014,4.3014,4.3014,4.3014,4.3014,4.3014,4.3014,4.2989,4.2989,4.2889,4.2788,4.2688,4.2411,4.2062,4.1331,4.0676,4.04,4.0124,3.9973,3.9722,3.9722,3.9697,3.9697,3.9697,3.9697,3.9697,3.9697,3.9697,3.9697,3.9697,3.9697,3.9697,3.9697,3.9697,3.9697,3.9697,3.9697,3.9697,3.9697,3.9697,3.9697,3.9697,3.9697,3.9697,3.9672,3.9673,3.9547,3.912]},{"header":{"parameterUnit":"m.s-1","parameterCategory":1,"la1":31.0,"la2":29.5877,"lo1":-88.7671,"lo2":-86.6584,"dy":0.0162,"dx":0.0185,"nx":115,"ny":88,"refTime":"2024-09-05T00:00:00:Z","depth":0,"parameterNumber":3,"parameterNumberName":"V-component_of_WINDS"},"data":[0.0,0.0,0.0,0.0,0.0,0.0,0.0,0.0,0.0,0.0,0.0,0.0,0.0,0.0,0.0,0.0,0.0,0.0,0.0,0.0,0.0,0.0,0.0,0.0,0.0,0.0,0.0,0.0,0.0,0.0,0.0,0.0,0.0,0.0,0.0,0.0,0.0,0.0,0.0,0.0,0.0,0.0,0.0,0.0,0.0,0.0,0.0,0.0,0.0,0.0,0.0,0.0,0.0,0.0,0.0,0.0,0.0,0.0,0.0,0.0,0.0,0.0,0.0,0.0,0.0,0.0,0.0,0.0,0.0,0.0,0.0,0.0,0.0,0.0,0.0,0.0,0.0,0.0,0.0,0.0,0.0,0.0,0.0,0.0,0.0,0.0,0.0,0.0,0.0,0.0,0.0,0.0,0.0,0.0,0.0,0.0,0.0,0.0,0.0,0.0,0.0,0.0,0.0,0.0,0.0,0.0,0.0,0.0,0.0,0.0,0.0,0.0,0.0,0.0,0.0,0.0,0.0,0.0,0.0,0.0,0.0,0.0,0.0,0.0,0.0,0.0,0.0,0.0,0.0,0.0,0.0,0.0,0.0,0.0,0.0,0.0,0.0,0.0,0.0,0.0,0.0,0.0,0.0,0.0,0.0,0.0,0.0,0.0,0.0,0.0,0.0,0.0,0.0,0.0,0.0,0.0,0.0,0.0,0.0,0.0,0.0,0.0,0.0,0.0,0.0,0.0,0.0,0.0,0.0,0.0,0.0,0.0,0.0,0.0,0.0,0.0,0.0,0.0,0.0,0.0,0.0,0.0,0.0,0.0,0.0,0.0,0.0,0.0,0.0,0.0,0.0,0.0,0.0,0.0,0.0,0.0,0.0,0.0,0.0,0.0,0.0,0.0,0.0,0.0,0.0,0.0,0.0,0.0,0.0,0.0,0.0,0.0,0.0,0.0,0.0,0.0,0.0,0.0,0.0,0.0,0.0,0.0,0.0,0.0,0.0,0.0,0.0,0.0,0.0,0.0,0.0,0.0,0.0,0.0,0.0,0.0,0.0,0.0,0.0,0.0,0.0,0.0,0.0,0.0,0.0,0.0,0.0,0.0,0.0,0.0,0.0,0.0,0.0,0.0,0.0,0.0,0.0,0.0,0.0,0.0,0.0,0.0,0.0,0.0,0.0,0.0,0.0,0.0,0.0,0.0,0.0,0.0,0.0,0.0,0.0,0.0,0.0,0.0,0.0,0.0,0.0,0.0,0.0,0.0,0.0,0.0,0.0,0.0,0.0,0.0,0.0,0.0,0.0,0.0,0.0,0.0,0.0,0.0,0.0,0.0,0.0,0.0,0.0,0.0,0.0,0.0,0.0,0.0,0.0,0.0,0.0,0.0,0.0,0.0,0.0,0.0,0.0,0.0,0.0,0.0,0.0,0.0,0.0,0.0,0.0,0.0,0.0,0.0,0.0,0.0,0.0,0.0,0.0,0.0,0.0,0.0,0.0,0.0,0.0,0.0,0.0,0.0,0.0,0.0,0.0,0.0,0.0,0.0,0.0,0.0,0.0,0.0,0.0,0.0,0.0,0.0,0.0,0.0,0.0,0.0,0.0,0.0,0.0,0.0,0.0,0.0,0.0,0.0,0.0,0.0,0.0,0.0,0.0,0.0,0.0,0.0,0.0,0.0,0.0,0.0,0.0,0.0,0.0,0.0,0.0,0.0,0.0,0.0,0.0,0.0,0.0,0.0,0.0,0.0,0.0,0.0,0.0,0.0,0.0,0.0,0.0,0.0,0.0,0.0,0.0,0.0,0.0,0.0,0.0,0.0,0.0,0.0,0.0,0.0,0.0,0.0,0.0,0.0,0.0,0.0,0.0,0.0,0.0,0.0,0.0,0.0,0.0,0.0,0.0,0.0,0.0,0.0,0.0,0.0,0.0,0.0,0.0,0.0,0.0,0.0,0.0,0.0,0.0,0.0,0.0,0.0,0.0,0.0,0.0,0.0,0.0,0.0,0.0,0.0,0.0,0.0,0.0,0.0,0.0,0.0,0.0,0.0,0.0,0.0,0.0,0.0,0.0,0.0,0.0,0.0,0.0,0.0,0.0,0.0,0.0,0.0,0.0,0.0,0.0,0.0,0.0,0.0,0.0,0.0,0.0,0.0,0.0,0.0,0.0,0.0,0.0,0.0,0.0,0.0,0.0,0.0,0.0,0.0,0.0,0.0,0.0,0.0,0.0,0.0,0.0,0.0,0.0,0.0,0.0,0.0,0.0,0.0,0.0,0.0,0.0,0.0,0.0,0.0,0.0,0.0,0.0,0.0,0.0,0.0,0.0,0.0,0.0,0.0,0.0,0.0,0.0,0.0,0.0,0.0,0.0,0.0,0.0,0.0,0.0,0.0,0.0,0.0,0.0,0.0,0.0,0.0,0.0,0.0,0.0,0.0,0.0,0.0,0.0,0.0,0.0,0.0,0.0,0.0,0.0,0.0,0.0,0.0,0.0,0.0,0.0,0.0,0.0,0.0,0.0,0.0,0.0,0.0,0.0,0.0,0.0,0.0,0.0,0.0,0.0,0.0,0.0,0.0,0.0,0.0,0.0,0.0,0.0,0.0,0.0,0.0,0.0,0.0,0.0,0.0,0.0,0.0,0.0,0.0,0.0,0.0,0.0,0.0,0.0,0.0,0.0,0.0,0.0,0.0,0.0,0.0,0.0,0.0,0.0,0.0,0.0,0.0,0.0,0.0,0.0,0.0,0.0,0.0,0.0,0.0,0.0,0.0,0.0,0.0,0.0,0.0,0.0,0.0,0.0,0.0,0.0,0.0,0.0,0.0,0.0,0.0,0.0,0.0,0.0,0.0,0.0,0.0,0.0,0.0,0.0,0.0,0.0,0.0,0.0,0.0,0.0,0.0,0.0,0.0,0.0,0.0,0.0,0.0,0.0,0.0,0.0,0.0,0.0,0.0,0.0,0.0,0.0,0.0,0.0,0.0,0.0,0.0,0.0,0.0,0.0,0.0,0.0,0.0,0.0,0.0,0.0,0.0,0.0,0.0,0.0,0.0,0.0,0.0,0.0,0.0,0.0,0.0,0.0,0.0,0.0,0.0,0.0,0.0,0.0,0.0,0.0,0.0,0.0,0.0,0.0,0.0,0.0,0.0,0.0,0.0,0.0,0.0,0.0,0.0,0.0,0.0,0.0,0.0,0.0,0.0,0.0,0.0,0.0,0.0,0.0,0.0,0.0,0.0,0.0,0.0,0.0,0.0,0.0,0.0,0.0,0.0,0.0,0.0,0.0,0.0,0.0,0.0,0.0,0.0,0.0,0.0,0.0,0.0,0.0,0.0,0.0,0.0,0.0,0.0,0.0,0.0,0.0,0.0,0.0,0.0,0.0,0.0,0.0,0.0,0.0,0.0,0.0,0.0,0.0,0.0,0.0,0.0,0.0,0.0,0.0,0.0,0.0,0.0,0.0,0.0,0.0,0.0,0.0,0.0,0.0,0.0,0.0,0.0,0.0,0.0,0.0,0.0,0.0,0.0,0.0,0.0,0.0,0.0,0.0,0.0,0.0,0.0,0.0,0.0,0.0,0.0,0.0,0.0,0.0,0.0,0.0,0.0,0.0,0.0,0.0,0.0,0.0,0.0,0.0,0.0,0.0,0.0,0.0,0.0,0.0,0.0,0.0,0.0,0.0,0.0,0.0,0.0,0.0,0.0,0.0,0.0,0.0,0.0,0.0,0.0,0.0,0.0,0.0,0.0,0.0,0.0,0.0,0.0,0.0,0.0,0.0,0.0,0.0,0.0,0.0,0.0,0.0,0.0,0.0,0.0,0.0,0.0,0.0,0.0,0.0,0.0,0.0,0.0,0.0,0.0,0.0,0.0,0.0,0.0,0.0,0.0,0.0,0.0,0.0,0.0,0.0,0.0,0.0,0.0,0.0,0.0,0.0,0.0,0.0,0.0,0.0,0.0,0.0,0.0,0.0,0.0,0.0,0.0,0.0,0.0,0.0,0.0,0.0,0.0,0.0,0.0,0.0,0.0,0.0,0.0,0.0,0.0,0.0,0.0,0.0,0.0,0.0,0.0,0.0,0.0,0.0,0.0,0.0,0.0,0.0,0.0,0.0,0.0,0.0,0.0,0.0,0.0,0.0,0.0,0.0,0.0,0.0,0.0,0.0,0.0,0.0,0.0,0.0,0.0,0.0,0.0,0.0,0.0,0.0,0.0,0.0,0.0,0.0,0.0,0.0,0.0,0.0,0.0,0.0,0.0,0.0,0.0,1.4977,0.0,0.0,0.0,0.0,0.0,0.0,0.0,0.0,0.0,0.0,0.0,0.0,0.0,0.0,0.0,0.0,0.0,0.0,0.0,0.0,0.0,0.0,0.0,0.0,0.0,0.0,0.0,0.0,0.0,0.0,0.0,0.0,0.0,0.0,0.0,0.0,0.0,0.0,0.0,0.0,0.0,0.0,0.0,0.0,0.0,0.0,0.0,0.0,0.0,0.0,0.0,0.0,0.0,0.0,0.0,0.0,0.0,0.0,0.0,0.0,0.0,0.0,0.0,0.0,0.0,0.0,0.0,0.0,0.0,0.0,0.0,0.0,0.0,0.0,0.0,0.0,0.0,0.0,0.0,0.0,0.0,0.0,0.0,0.0,0.0,0.0,0.0,0.0,0.0,0.0,0.0,0.0,0.0,0.0,0.0,0.0,0.0,0.0,0.0,0.0,0.0,0.0,0.0,0.0,0.0,0.0,0.0,0.0,0.0,0.0,1.5538,1.5795,1.6341,1.6415,1.5939,0.0,0.0,0.0,0.0,0.0,0.0,0.0,0.0,0.0,0.0,0.0,0.0,0.0,0.0,0.0,0.0,0.0,0.0,0.0,0.0,0.0,0.0,0.0,0.0,0.0,0.0,0.0,0.0,0.0,0.0,0.0,0.0,0.0,0.0,0.0,0.0,0.0,0.0,0.0,0.0,0.0,0.0,0.0,0.0,0.0,0.0,0.0,0.0,0.0,0.0,0.0,0.0,0.0,0.0,0.0,0.0,0.0,0.0,0.0,0.0,0.0,0.0,0.0,0.0,0.0,0.0,0.0,0.0,0.0,0.0,0.0,0.0,0.0,0.0,0.0,0.0,0.0,0.0,0.0,0.0,0.0,0.0,0.0,0.0,0.0,0.0,0.0,0.0,0.0,0.0,0.0,0.0,0.0,0.0,0.0,0.0,0.0,0.0,0.0,0.0,0.0,0.0,0.0,0.0,0.0,0.0,0.0,0.0,0.0,0.0,0.0,0.0,1.7893,1.8149,1.7595,0.0,0.0,0.0,0.0,0.0,0.0,0.0,0.0,0.0,0.0,0.0,0.0,0.0,0.0,0.0,0.0,0.0,0.0,0.0,0.0,0.0,0.0,0.0,0.0,0.0,0.0,0.0,0.0,0.0,0.0,0.0,0.0,0.0,0.0,0.0,0.0,0.0,0.0,0.0,0.0,0.0,0.0,0.0,0.0,0.0,0.0,0.0,0.0,0.0,0.0,0.0,0.0,0.0,0.0,0.0,0.0,0.0,0.0,0.0,0.0,0.0,0.0,0.0,0.0,0.0,0.0,0.0,0.0,0.0,0.0,0.0,0.0,0.0,0.0,0.0,0.0,0.0,0.0,0.0,0.0,0.0,0.0,0.0,0.0,0.0,0.0,0.0,0.0,0.0,0.0,0.0,0.0,0.0,0.0,0.0,0.0,0.0,0.0,0.0,0.0,0.0,0.0,0.0,0.0,0.0,0.0,0.0,0.0,0.0,0.0,1.7841,2.0278,2.043,0.0,2.0333,0.0,0.0,0.0,0.0,0.0,0.0,0.0,0.0,0.0,0.0,0.0,0.0,0.0,0.0,0.0,0.0,0.0,0.0,0.0,0.0,0.0,0.0,0.0,0.0,0.0,0.0,0.0,0.0,0.0,0.0,0.0,0.0,0.0,0.0,0.0,0.0,0.0,0.0,0.0,0.0,0.0,0.0,0.0,0.0,0.0,0.0,0.0,0.0,0.0,0.0,0.0,0.0,0.0,0.0,0.0,0.0,0.0,0.0,0.0,0.0,0.0,0.0,0.0,0.0,0.0,0.0,0.0,0.0,0.0,0.0,0.0,0.0,0.0,0.0,0.0,0.0,0.0,0.0,0.0,0.0,0.0,0.0,0.0,0.0,0.0,0.0,0.0,0.0,0.0,0.0,0.0,0.0,0.0,0.0,0.0,0.0,0.0,0.0,0.0,0.0,0.0,0.0,0.0,0.0,0.0,0.0,0.0,0.0,0.0,0.0,0.0,1.97,2.0604,2.1199,0.0,0.0,0.0,0.0,0.0,0.0,0.0,0.0,0.0,0.0,0.0,0.0,0.0,0.0,0.0,0.0,0.0,0.0,0.0,0.0,0.0,0.0,0.0,0.0,0.0,0.0,0.0,0.0,0.0,0.0,0.0,0.0,0.0,0.0,0.0,0.0,0.0,0.0,0.0,0.0,0.0,0.0,0.0,0.0,0.0,0.0,0.0,0.0,0.0,0.0,0.0,0.0,0.0,0.0,0.0,0.0,0.0,0.0,0.0,0.0,0.0,0.0,0.0,0.0,0.0,0.0,0.0,0.0,0.0,0.0,0.0,0.0,0.0,0.0,0.0,0.0,0.0,0.0,0.0,0.0,0.0,0.0,0.0,0.0,0.0,0.0,0.0,0.0,0.0,0.0,0.0,0.0,0.0,0.0,0.0,0.0,0.0,0.0,0.0,0.0,0.0,0.0,0.0,0.0,0.0,0.0,0.0,0.0,0.0,0.0,1.7842,0.0,2.0432,2.1712,2.2152,2.1717,0.0,0.0,0.0,0.0,0.0,0.0,0.0,0.0,0.0,0.0,0.0,0.0,0.0,0.0,0.0,0.0,0.0,0.0,0.0,0.0,0.0,0.0,0.0,0.0,0.0,0.0,0.0,0.0,0.0,0.0,0.0,0.0,0.0,0.0,0.0,0.0,0.0,0.0,0.0,0.0,0.0,0.0,0.0,0.0,0.0,0.0,0.0,0.0,0.0,0.0,0.0,0.0,0.0,0.0,0.0,0.0,0.0,0.0,0.0,0.0,0.0,0.0,0.0,0.0,0.0,0.0,0.0,0.0,0.0,0.0,0.0,0.0,0.0,0.0,0.0,0.0,0.0,0.0,0.0,0.0,0.0,0.0,0.0,0.0,0.0,0.0,0.0,0.0,0.0,0.0,0.0,0.0,0.0,0.0,0.0,0.0,0.0,0.0,0.0,0.0,0.0,0.0,0.0,0.0,0.0,0.0,0.0,0.0,0.0,1.9792,2.0827,2.3978,2.4625,2.3764,0.0,0.0,0.0,0.0,0.0,0.0,0.0,0.0,0.0,0.0,0.0,0.0,0.0,0.0,0.0,0.0,0.0,0.0,0.0,0.0,0.0,0.0,0.0,0.0,0.0,0.0,0.0,0.0,0.0,0.0,0.0,0.0,0.0,0.0,0.0,0.0,0.0,0.0,0.0,0.0,0.0,0.0,0.0,0.0,0.0,0.0,0.0,0.0,0.0,0.0,0.0,0.0,0.0,0.0,0.0,0.0,0.0,0.0,0.0,0.0,0.0,0.0,0.0,0.0,0.0,0.0,0.0,0.0,0.0,0.0,0.0,0.0,0.0,0.0,0.0,0.0,0.0,0.0,0.0,0.0,0.0,0.0,0.0,0.0,0.0,0.0,0.0,0.0,0.0,0.0,0.0,0.0,0.0,0.0,0.0,0.0,0.0,0.0,0.0,0.0,0.0,0.0,0.0,0.0,0.0,0.0,0.0,0.0,0.0,1.7859,1.9951,2.2529,2.5474,2.4261,2.2988,0.0,0.0,0.0,0.0,0.0,0.0,0.0,0.0,0.0,0.0,0.0,0.0,0.0,0.0,0.0,0.0,0.0,0.0,0.0,0.0,0.0,0.0,0.0,0.0,0.0,0.0,0.0,0.0,0.0,0.0,0.0,0.0,0.0,0.0,0.0,0.0,0.0,0.0,0.0,0.0,0.0,0.0,0.0,0.0,0.0,0.0,0.0,0.0,0.0,0.0,0.0,0.0,0.0,0.0,0.0,0.0,0.0,0.0,0.0,0.0,0.0,0.0,0.0,0.0,0.0,0.0,0.0,0.0,0.0,0.0,0.0,0.0,0.0,0.0,0.0,0.0,0.0,0.0,0.0,0.0,0.0,0.0,0.0,0.0,0.0,0.0,0.0,0.0,0.0,0.0,0.0,0.0,0.0,0.0,0.0,0.0,0.0,0.0,0.0,0.0,0.0,0.0,0.0,0.0,0.0,0.0,0.0,0.0,0.0,1.7835,0.0,2.3966,0.0,2.3867,2.2539,0.0,0.0,0.0,0.0,0.0,0.0,0.0,0.0,0.0,0.0,0.0,0.0,0.0,0.0,0.0,0.0,0.0,0.0,0.0,0.0,0.0,0.0,0.0,0.0,0.0,0.0,0.0,0.0,0.0,0.0,0.0,0.0,0.0,0.0,0.0,0.0,0.0,0.0,0.0,0.0,0.0,0.0,0.0,0.0,0.0,0.0,0.0,0.0,0.0,0.0,0.0,0.0,0.0,0.0,0.0,0.0,0.0,0.0,0.0,0.0,0.0,0.0,0.0,0.0,0.0,0.0,0.0,0.0,0.0,0.0,0.0,0.0,0.0,0.0,0.0,0.0,0.0,0.0,0.0,0.0,0.0,0.0,0.0,0.0,0.0,0.0,0.0,0.0,0.0,0.0,0.0,0.0,0.0,0.0,0.0,0.0,0.0,0.0,0.0,0.0,0.0,0.0,0.0,0.0,0.0,0.0,0.0,0.0,1.7287,2.1288,2.4093,2.4987,2.3906,2.375,2.2539,0.0,0.0,0.0,0.0,0.0,0.0,0.0,0.0,0.0,0.0,0.0,0.0,0.0,0.0,0.0,0.0,0.0,0.0,0.0,0.0,0.0,0.0,0.0,0.0,0.0,0.0,0.0,0.0,0.0,0.0,0.0,0.0,0.0,0.0,0.0,0.0,0.0,0.0,0.0,0.0,0.0,0.0,0.0,0.0,0.0,0.0,0.0,0.0,0.0,0.0,0.0,0.0,0.0,0.0,0.0,0.0,0.0,0.0,0.0,0.0,0.0,0.0,0.0,0.0,0.0,0.0,0.0,0.0,0.0,0.0,0.0,0.0,0.0,0.0,0.0,0.0,0.0,0.0,0.0,0.0,0.0,0.0,0.0,0.0,0.0,0.0,0.0,0.0,0.0,0.0,0.0,0.0,0.0,0.0,0.0,0.0,0.0,0.0,0.0,0.0,0.0,0.0,0.0,0.0,0.0,0.0,0.0,0.0,0.0,1.9984,2.2866,2.4606,2.5015,2.3398,2.2246,0.0,0.0,0.0,0.0,0.0,0.0,0.0,0.0,0.0,0.0,0.0,0.0,0.0,0.0,0.0,0.0,0.0,0.0,0.0,0.0,0.0,0.0,0.0,0.0,0.0,0.0,0.0,0.0,0.0,0.0,0.0,0.0,0.0,0.0,0.0,0.0,0.0,0.0,0.0,0.0,0.0,0.0,0.0,0.0,0.0,0.0,0.0,0.0,0.0,0.0,0.0,0.0,0.0,0.0,0.0,0.0,0.0,0.0,0.0,0.0,0.0,0.0,0.0,0.0,0.0,0.0,0.0,0.0,0.0,0.0,0.0,0.0,0.0,0.0,0.0,0.0,0.0,0.0,0.0,0.0,0.0,0.0,0.0,0.0,0.0,0.0,0.0,0.0,0.0,0.0,0.0,0.0,0.0,0.0,0.0,0.0,0.0,0.0,0.0,0.0,0.0,0.0,0.0,0.0,0.0,0.0,0.0,0.0,0.0,2.0462,2.2953,2.457,2.521,2.3516,2.2422,2.1991,0.0,0.0,0.0,0.0,0.0,0.0,0.0,0.0,0.0,0.0,0.0,0.0,0.0,0.0,0.0,0.0,0.0,0.0,0.0,0.0,0.0,0.0,0.0,0.0,0.0,0.0,0.0,0.0,0.0,0.0,0.0,0.0,0.0,0.0,0.0,0.0,0.0,0.0,0.0,0.0,0.0,0.0,0.0,0.0,0.0,0.0,0.0,0.0,0.0,0.0,0.0,0.0,0.0,0.0,0.0,0.0,0.0,0.0,0.0,0.0,0.0,0.0,0.0,0.0,0.0,0.0,0.0,0.0,0.0,0.0,0.0,0.0,0.0,0.0,0.0,0.0,0.0,0.0,0.0,0.0,0.0,0.0,0.0,0.0,0.0,0.0,0.0,0.0,0.0,0.0,0.0,0.0,0.0,0.0,0.0,0.0,0.0,0.0,0.0,0.0,0.0,0.0,0.0,0.0,0.0,0.0,0.0,0.0,2.2277,2.412,2.4902,2.457,2.4043,2.3027,0.0,0.0,0.0,0.0,0.0,0.0,0.0,0.0,0.0,0.0,0.0,0.0,0.0,0.0,0.0,0.0,0.0,0.0,0.0,0.0,0.0,0.0,0.0,0.0,0.0,0.0,0.0,0.0,0.0,0.0,0.0,0.0,0.0,0.0,0.0,0.0,0.0,0.0,0.0,0.0,0.0,0.0,0.0,0.0,0.0,0.0,0.0,0.0,0.0,0.0,0.0,0.0,0.0,0.0,0.0,0.0,0.0,0.0,0.0,0.0,0.0,0.0,0.0,0.0,0.0,0.0,0.0,0.0,0.0,0.0,0.0,0.0,0.0,0.0,0.0,0.0,0.0,0.0,0.0,0.0,0.0,0.0,0.0,0.0,0.0,0.0,0.0,0.0,0.0,0.0,0.0,0.0,0.0,0.0,0.0,0.0,0.0,0.0,0.0,0.0,0.0,0.0,0.0,0.0,0.0,0.0,0.0,0.0,0.0,2.3342,2.4516,2.5356,2.582,2.4531,2.3437,0.0,0.0,0.0,0.0,0.0,0.0,0.0,0.0,0.0,0.0,0.0,0.0,0.0,0.0,0.0,0.0,0.0,0.0,0.0,0.0,0.0,0.0,0.0,0.0,0.0,0.0,0.0,0.0,0.0,0.0,0.0,0.0,0.0,0.0,0.0,0.0,0.0,0.0,0.0,0.0,0.0,0.0,0.0,0.0,0.0,0.0,0.0,0.0,0.0,0.0,0.0,0.0,0.0,0.0,0.0,0.0,0.0,0.0,0.0,0.0,0.0,0.0,0.0,0.0,0.0,0.0,0.0,0.0,0.0,0.0,0.0,0.0,0.0,0.0,0.0,0.0,0.0,0.0,0.0,0.0,0.0,0.0,0.0,0.0,0.0,0.0,0.0,0.0,0.0,0.0,0.0,0.0,0.0,0.0,0.0,0.0,0.0,0.0,0.0,0.0,0.0,0.0,0.0,0.0,0.0,0.0,0.0,0.0,2.2764,2.402,2.475,2.541,2.6094,2.4961,2.3867,0.0,0.0,0.0,0.0,0.0,0.0,0.0,0.0,0.0,0.0,0.0,0.0,0.0,0.0,0.0,0.0,0.0,0.0,0.0,0.0,0.0,0.0,0.0,0.0,0.0,0.0,0.0,0.0,0.0,0.0,0.0,0.0,0.0,0.0,0.0,0.0,0.0,0.0,0.0,0.0,0.0,0.0,0.0,0.0,0.0,0.0,0.0,0.0,0.0,0.0,0.0,0.0,0.0,0.0,0.0,0.0,0.0,0.0,0.0,0.0,0.0,0.0,0.0,0.0,0.0,0.0,0.0,0.0,0.0,0.0,0.0,0.0,0.0,0.0,0.0,0.0,0.0,0.0,0.0,0.0,0.0,0.0,0.0,0.0,0.0,0.0,0.0,0.0,0.0,0.0,0.0,0.0,0.0,0.0,0.0,0.0,0.0,0.0,0.0,0.0,0.0,0.0,0.0,0.0,0.0,0.0,0.0,0.0,2.3906,2.4254,2.4746,2.5195,2.5542,2.5156,2.4222,0.0,0.0,0.0,0.0,0.0,0.0,0.0,0.0,0.0,0.0,0.0,0.0,0.0,0.0,0.0,0.0,0.0,0.0,0.0,0.0,0.0,0.0,0.0,0.0,0.0,0.0,0.0,0.0,0.0,0.0,0.0,0.0,0.0,0.0,0.0,0.0,0.0,0.0,0.0,0.0,0.0,0.0,0.0,0.0,0.0,0.0,0.0,0.0,0.0,0.0,0.0,0.0,0.0,0.0,0.0,0.0,0.0,0.0,0.0,0.0,0.0,0.0,0.0,0.0,0.0,0.0,0.0,0.0,0.0,0.0,0.0,0.0,0.0,0.0,0.0,0.0,0.0,0.0,0.0,0.0,0.0,0.0,0.0,0.0,0.0,0.0,0.0,0.0,0.0,0.0,0.0,0.0,0.0,0.0,0.0,0.0,0.0,0.0,0.0,0.0,0.0,0.0,0.0,0.0,0.0,0.0,0.0,0.0,2.3298,2.3374,2.4137,2.4586,2.4664,2.4277,2.373,0.0,0.0,0.0,0.0,0.0,0.0,0.0,0.0,0.0,0.0,0.0,0.0,0.0,0.0,0.0,0.0,0.0,0.0,0.0,0.0,0.0,0.0,0.0,0.0,0.0,0.0,0.0,0.0,0.0,0.0,0.0,0.0,0.0,0.0,0.0,0.0,0.0,0.0,0.0,0.0,0.0,0.0,0.0,0.0,0.0,0.0,0.0,0.0,2.5206,0.0,0.0,0.0,0.0,0.0,0.0,0.0,0.0,0.0,0.0,0.0,0.0,0.0,0.0,0.0,0.0,0.0,0.0,0.0,0.0,0.0,0.0,0.0,0.0,0.0,0.0,0.0,0.0,0.0,0.0,0.0,0.0,0.0,0.0,0.0,0.0,0.0,0.0,0.0,0.0,0.0,0.0,0.0,0.0,0.0,0.0,0.0,0.0,0.0,0.0,0.0,0.0,0.0,0.0,0.0,0.0,0.0,0.0,0.0,2.3435,2.3435,2.3887,2.4219,2.4352,2.3809,2.3259,0.0,0.0,0.0,0.0,0.0,0.0,0.0,0.0,0.0,0.0,0.0,0.0,0.0,0.0,0.0,0.0,0.0,0.0,0.0,0.0,0.0,0.0,0.0,0.0,0.0,0.0,0.0,0.0,0.0,0.0,0.0,0.0,0.0,0.0,0.0,0.0,0.0,0.0,0.0,0.0,0.0,0.0,0.0,0.0,0.0,0.0,0.0,0.0,0.0,0.0,0.0,0.0,0.0,0.0,0.0,0.0,0.0,0.0,0.0,0.0,0.0,0.0,0.0,0.0,0.0,0.0,0.0,0.0,0.0,0.0,0.0,0.0,0.0,0.0,0.0,0.0,0.0,0.0,0.0,0.0,0.0,0.0,0.0,0.0,0.0,0.0,0.0,0.0,0.0,0.0,0.0,0.0,0.0,0.0,0.0,0.0,0.0,0.0,0.0,0.0,0.0,0.0,0.0,0.0,0.0,0.0,0.0,2.2599,2.3596,2.3691,2.3691,2.3848,2.4176,2.3471,2.2828,2.2303,0.0,0.0,0.0,0.0,0.0,0.0,0.0,0.0,0.0,0.0,0.0,0.0,0.0,0.0,0.0,0.0,0.0,0.0,0.0,0.0,0.0,0.0,0.0,0.0,0.0,0.0,0.0,0.0,0.0,0.0,0.0,0.0,0.0,0.0,0.0,0.0,0.0,0.0,1.9848,2.1765,0.0,0.0,0.0,0.0,0.0,0.0,0.0,0.0,2.7807,0.0,0.0,0.0,0.0,0.0,0.0,0.0,0.0,0.0,0.0,0.0,0.0,0.0,0.0,0.0,0.0,0.0,0.0,0.0,0.0,0.0,0.0,0.0,0.0,0.0,0.0,0.0,0.0,0.0,0.0,0.0,0.0,0.0,0.0,0.0,0.0,0.0,0.0,0.0,0.0,0.0,0.0,0.0,0.0,0.0,0.0,0.0,0.0,0.0,0.0,0.0,0.0,0.0,0.0,0.0,0.0,2.1661,2.2032,2.2539,2.3179,2.322,2.3237,2.3296,2.3179,2.2576,2.1463,0.0,0.0,0.0,0.0,0.0,0.0,0.0,0.0,0.0,0.0,0.0,0.0,0.0,0.0,0.0,0.0,0.0,0.0,0.0,0.0,0.0,0.0,0.0,0.0,0.0,0.0,0.0,0.0,0.0,0.0,0.0,0.0,0.0,0.0,0.0,0.0,0.0,0.0,0.0,2.3487,2.4334,0.0,0.0,0.0,0.0,0.0,0.0,0.0,0.0,2.9422,0.0,0.0,0.0,0.0,0.0,0.0,0.0,0.0,0.0,0.0,0.0,0.0,0.0,0.0,0.0,0.0,0.0,0.0,0.0,0.0,0.0,0.0,0.0,0.0,0.0,0.0,0.0,0.0,0.0,0.0,0.0,0.0,0.0,0.0,0.0,0.0,0.0,0.0,0.0,0.0,0.0,0.0,0.0,0.0,0.0,0.0,0.0,0.0,0.0,0.0,0.0,0.0,0.0,0.0,0.0,2.1172,2.207,2.2713,2.3081,2.3101,2.3101,2.3081,2.2693,2.2088,0.0,0.0,0.0,0.0,0.0,0.0,0.0,0.0,0.0,0.0,0.0,0.0,0.0,0.0,0.0,0.0,0.0,0.0,0.0,0.0,0.0,0.0,0.0,0.0,0.0,0.0,0.0,0.0,0.0,0.0,0.0,0.0,0.0,0.0,0.0,0.0,0.0,0.0,0.0,0.0,2.4449,2.5589,2.6826,0.0,0.0,0.0,0.0,0.0,0.0,3.0036,3.0055,0.0,0.0,0.0,0.0,0.0,0.0,0.0,0.0,0.0,0.0,0.0,0.0,0.0,0.0,0.0,0.0,0.0,0.0,0.0,0.0,0.0,0.0,0.0,0.0,0.0,0.0,0.0,0.0,0.0,0.0,0.0,0.0,0.0,0.0,0.0,0.0,0.0,0.0,0.0,0.0,0.0,0.0,0.0,0.0,0.0,0.0,0.0,0.0,0.0,0.0,0.0,0.0,0.0,0.0,0.0,2.0625,2.209,2.2947,2.3081,2.3101,2.3101,2.3081,2.248,2.1816,0.0,0.0,0.0,0.0,0.0,0.0,0.0,0.0,0.0,0.0,0.0,0.0,0.0,0.0,0.0,0.0,0.0,0.0,0.0,0.0,0.0,0.0,0.0,0.0,0.0,0.0,0.0,0.0,0.0,0.0,0.0,0.0,0.0,0.0,0.0,0.0,0.0,0.0,0.0,0.0,0.0,2.7009,2.8279,2.9229,0.0,0.0,0.0,0.0,3.1867,3.101,0.0,0.0,0.0,0.0,0.0,0.0,0.0,0.0,0.0,0.0,0.0,0.0,0.0,0.0,0.0,0.0,0.0,0.0,0.0,0.0,0.0,0.0,0.0,0.0,0.0,0.0,0.0,0.0,0.0,0.0,0.0,0.0,0.0,0.0,0.0,0.0,0.0,0.0,0.0,0.0,0.0,0.0,0.0,0.0,0.0,0.0,0.0,0.0,0.0,0.0,0.0,0.0,0.0,0.0,0.0,0.0,2.0566,2.1544,2.2402,2.3062,2.3101,2.3101,2.3101,2.3003,2.2245,0.0,0.0,0.0,0.0,0.0,0.0,0.0,0.0,0.0,0.0,0.0,0.0,0.0,0.0,0.0,0.0,0.0,0.0,0.0,0.0,0.0,0.0,0.0,0.0,0.0,0.0,0.0,0.0,0.0,0.0,0.0,0.0,0.0,0.0,0.0,0.0,0.0,0.0,0.0,0.0,0.0,2.8823,2.9518,2.9702,3.0056,0.0,0.0,3.1856,3.288,3.3504,0.0,0.0,0.0,0.0,0.0,0.0,0.0,0.0,0.0,0.0,0.0,0.0,0.0,0.0,0.0,0.0,0.0,0.0,0.0,0.0,0.0,0.0,0.0,0.0,0.0,0.0,0.0,0.0,0.0,0.0,0.0,0.0,0.0,0.0,0.0,0.0,0.0,0.0,0.0,0.0,0.0,0.0,0.0,0.0,0.0,0.0,0.0,0.0,0.0,0.0,0.0,0.0,0.0,0.0,0.0,1.9354,2.0605,2.1915,2.273,2.3081,2.3101,2.3101,2.3101,2.2399,2.1445,0.0,0.0,0.0,0.0,0.0,0.0,0.0,0.0,0.0,0.0,0.0,0.0,0.0,0.0,0.0,0.0,0.0,0.0,0.0,0.0,0.0,0.0,0.0,0.0,0.0,0.0,0.0,0.0,0.0,0.0,0.0,0.0,0.0,0.0,0.0,0.0,0.0,0.0,0.0,0.0,0.0,0.0,3.0971,3.1358,0.0,0.0,0.0,3.3203,3.3593,0.0,0.0,0.0,0.0,0.0,0.0,0.0,0.0,0.0,0.0,0.0,0.0,0.0,0.0,0.0,0.0,0.0,0.0,0.0,0.0,0.0,0.0,0.0,0.0,0.0,0.0,0.0,0.0,0.0,0.0,0.0,0.0,0.0,0.0,0.0,0.0,0.0,0.0,0.0,0.0,0.0,0.0,0.0,0.0,0.0,0.0,0.0,0.0,0.0,0.0,0.0,0.0,0.0,0.0,0.0,0.0,0.0,2.0605,2.2245,2.3101,2.3101,2.3101,2.3101,2.3081,2.2088,0.0,0.0,0.0,0.0,0.0,0.0,0.0,0.0,0.0,0.0,0.0,0.0,0.0,0.0,0.0,0.0,0.0,0.0,0.0,0.0,0.0,0.0,0.0,0.0,0.0,0.0,0.0,1.9901,0.0,0.0,0.0,0.0,0.0,0.0,0.0,0.0,0.0,0.0,0.0,0.0,0.0,0.0,3.0723,3.2562,3.3005,3.3438,0.0,0.0,3.4064,3.4329,3.4574,3.4458,0.0,0.0,0.0,0.0,0.0,0.0,0.0,0.0,0.0,0.0,0.0,0.0,0.0,0.0,0.0,0.0,0.0,0.0,0.0,0.0,0.0,0.0,0.0,0.0,0.0,0.0,0.0,0.0,0.0,0.0,0.0,0.0,0.0,0.0,0.0,0.0,0.0,0.0,0.0,0.0,0.0,0.0,0.0,0.0,0.0,0.0,0.0,0.0,0.0,0.0,0.0,0.0,0.0,0.0,0.0,2.0605,2.2266,2.3101,2.3101,2.3101,2.3101,2.3103,2.2654,2.1816,0.0,0.0,0.0,0.0,0.0,0.0,0.0,0.0,0.0,0.0,0.0,0.0,0.0,0.0,0.0,0.0,0.0,0.0,0.0,0.0,0.0,0.0,0.0,0.0,0.0,0.0,0.0,0.0,0.0,0.0,0.0,0.0,0.0,0.0,0.0,0.0,0.0,0.0,0.0,0.0,0.0,3.3148,3.4295,3.4351,3.4631,0.0,0.0,3.4312,3.5231,3.5411,3.5011,3.3694,0.0,0.0,0.0,0.0,0.0,0.0,0.0,0.0,0.0,0.0,0.0,0.0,0.0,0.0,0.0,0.0,0.0,0.0,0.0,0.0,0.0,0.0,0.0,0.0,0.0,0.0,0.0,0.0,0.0,0.0,0.0,0.0,0.0,0.0,0.0,0.0,0.0,0.0,0.0,0.0,0.0,0.0,0.0,0.0,0.0,0.0,0.0,0.0,0.0,0.0,0.0,0.0,0.0,1.9726,2.0605,2.2245,2.3101,2.3101,2.3101,2.3101,2.3101,2.2713,2.1894,0.0,0.0,0.0,0.0,0.0,0.0,0.0,0.0,0.0,0.0,0.0,0.0,0.0,0.0,0.0,0.0,0.0,0.0,0.0,0.0,0.0,0.0,0.0,0.0,0.0,0.0,0.0,0.0,2.464,2.4696,2.4846,0.0,0.0,0.0,0.0,0.0,0.0,0.0,0.0,0.0,0.0,3.4706,3.539,3.5388,0.0,0.0,3.5512,3.5067,3.5424,3.5489,3.5367,3.4851,3.4575,0.0,0.0,0.0,0.0,0.0,0.0,0.0,0.0,0.0,0.0,0.0,0.0,0.0,0.0,0.0,0.0,0.0,0.0,0.0,0.0,0.0,0.0,0.0,0.0,0.0,0.0,0.0,0.0,0.0,0.0,0.0,0.0,0.0,0.0,0.0,0.0,0.0,0.0,0.0,0.0,0.0,0.0,0.0,0.0,0.0,0.0,0.0,0.0,0.0,0.0,0.0,0.0,1.9844,2.0605,2.2245,2.3101,2.3101,2.3101,2.3101,2.3081,2.2713,2.2012,0.0,0.0,0.0,0.0,0.0,0.0,0.0,0.0,0.0,0.0,0.0,0.0,0.0,0.0,0.0,0.0,0.0,0.0,0.0,0.0,0.0,0.0,0.0,0.0,0.0,0.0,0.0,0.0,2.6815,2.7037,2.7496,0.0,0.0,0.0,0.0,0.0,0.0,0.0,0.0,0.0,0.0,3.608,3.6619,3.6534,3.6359,3.6483,3.5938,3.557,3.5798,3.583,3.5857,3.5953,0.0,0.0,0.0,0.0,0.0,0.0,0.0,0.0,0.0,0.0,0.0,0.0,0.0,0.0,0.0,0.0,0.0,0.0,0.0,0.0,0.0,0.0,0.0,0.0,0.0,0.0,0.0,0.0,0.0,0.0,1.9841,0.0,0.0,0.0,0.0,0.0,0.0,0.0,0.0,0.0,0.0,0.0,0.0,0.0,0.0,0.0,0.0,0.0,0.0,0.0,0.0,0.0,0.0,2.0117,2.0625,2.2245,2.3101,2.3101,2.3101,2.3101,2.3081,2.2713,2.2284,2.1857,0.0,0.0,0.0,0.0,0.0,0.0,0.0,0.0,0.0,0.0,0.0,0.0,0.0,0.0,0.0,0.0,0.0,0.0,0.0,0.0,0.0,0.0,0.0,0.0,0.0,0.0,2.7332,2.7532,2.8288,0.0,0.0,0.0,0.0,0.0,0.0,0.0,0.0,0.0,0.0,3.6617,3.7314,3.8162,3.7776,3.7169,3.6603,3.5957,3.5766,3.6477,3.66,3.6609,0.0,0.0,0.0,0.0,0.0,0.0,0.0,0.0,0.0,0.0,0.0,0.0,0.0,0.0,0.0,0.0,0.0,0.0,0.0,0.0,0.0,0.0,0.0,0.0,0.0,0.0,0.0,2.4335,2.3822,0.0,0.0,0.0,0.0,0.0,0.0,0.0,0.0,0.0,0.0,0.0,2.7841,2.8353,0.0,0.0,0.0,0.0,0.0,0.0,0.0,0.0,0.0,0.0,0.0,0.0,2.0273,2.1015,2.2381,2.3101,2.3101,2.3101,2.3101,2.3101,2.2964,2.244,2.1464,0.0,0.0,0.0,0.0,0.0,0.0,0.0,0.0,0.0,0.0,0.0,0.0,0.0,0.0,0.0,0.0,0.0,0.0,0.0,0.0,0.0,0.0,0.0,0.0,0.0,2.9013,0.0,0.0,0.0,0.0,0.0,0.0,0.0,0.0,0.0,0.0,0.0,3.6194,3.7482,3.866,3.9022,3.8016,3.8134,3.8107,0.0,0.0,0.0,0.0,0.0,0.0,0.0,0.0,0.0,0.0,0.0,0.0,0.0,0.0,3.9406,3.812,3.7297,3.6886,3.7097,0.0,0.0,0.0,0.0,0.0,0.0,0.0,0.0,0.0,0.0,0.0,0.0,0.0,0.0,2.6459,0.0,2.5522,0.0,0.0,0.0,0.0,0.0,0.0,0.0,0.0,2.9367,3.0101,3.0382,3.0909,3.0884,0.0,3.0136,2.847,0.0,0.0,0.0,0.0,0.0,0.0,0.0,0.0,2.0899,2.197,2.2729,2.3101,2.3101,2.3101,2.3101,2.3101,2.3101,2.2633,2.1658,2.1387,2.0879,0.0,0.0,0.0,0.0,0.0,0.0,0.0,0.0,0.0,0.0,0.0,0.0,0.0,0.0,0.0,0.0,0.0,0.0,0.0,0.0,0.0,0.0,0.0,3.0667,0.0,0.0,0.0,0.0,0.0,0.0,0.0,0.0,0.0,3.6412,3.7274,3.8352,3.941,4.0186,4.0183,3.8936,0.0,0.0,0.0,0.0,0.0,0.0,0.0,3.8781,3.9242,3.9741,4.0334,4.1058,4.2016,4.2692,4.2706,0.0,0.0,4.046,3.9546,3.9112,3.933,3.9812,4.0087,3.9833,4.0626,4.1316,0.0,0.0,0.0,0.0,0.0,0.0,0.0,0.0,2.8289,2.808,0.0,2.7222,0.0,0.0,0.0,0.0,0.0,2.8211,0.0,0.0,3.1815,3.2487,3.1512,3.1989,3.1964,3.1507,3.1913,3.129,2.9702,2.7304,0.0,0.0,0.0,0.0,0.0,0.0,2.205,2.3424,2.3294,2.3144,2.3101,2.3101,2.3101,2.3101,2.3101,2.2908,2.2537,2.2498,2.2129,2.1349,2.0899,0.0,0.0,0.0,0.0,0.0,0.0,0.0,0.0,0.0,0.0,0.0,0.0,0.0,0.0,0.0,0.0,0.0,0.0,0.0,0.0,3.1514,0.0,0.0,0.0,0.0,0.0,0.0,0.0,0.0,0.0,0.0,3.8825,3.9169,4.0075,4.1476,0.0,0.0,0.0,0.0,3.9734,3.9137,3.8993,3.8983,3.9005,3.9602,4.0093,4.01,0.0,0.0,4.117,4.2442,4.3389,4.3423,4.3464,4.3227,4.2543,4.1756,4.1439,4.1978,4.1522,4.1242,4.1725,4.2241,4.2659,3.2468,0.0,0.0,0.0,0.0,3.0364,3.0854,3.2228,3.1837,3.1348,3.0832,3.0314,0.0,0.0,0.0,0.0,0.0,0.0,3.0927,3.1344,3.2114,3.2491,3.2612,3.2742,3.2763,3.2587,3.1938,3.1386,3.0884,2.9422,2.7162,2.4229,0.0,0.0,0.0,0.0,2.4023,2.4029,2.422,2.393,2.3123,2.3101,2.3101,2.3101,2.3101,2.3042,2.2906,2.2947,2.308,2.3309,2.2937,0.0,0.0,0.0,0.0,0.0,0.0,0.0,0.0,0.0,0.0,0.0,0.0,0.0,0.0,0.0,0.0,0.0,0.0,0.0,3.2343,3.3686,3.4718,0.0,0.0,0.0,0.0,0.0,0.0,0.0,0.0,0.0,4.1648,4.225,4.2507,0.0,0.0,4.2112,4.1256,4.1418,4.1555,4.1369,4.0888,0.0,0.0,4.029,4.0086,4.0121,4.054,4.1305,4.2544,4.3118,4.3592,4.4127,4.4619,4.4815,4.4587,4.3566,4.2964,4.3418,4.3276,4.3084,4.3268,4.3328,4.3259,3.4698,3.4276,3.2739,3.2605,3.333,3.2668,3.2953,3.3897,3.3545,3.3068,3.2541,3.2236,3.1582,3.0693,2.9879,0.0,0.0,0.0,3.2014,3.2541,3.2566,3.2763,3.309,3.3115,3.3115,3.3065,3.2164,3.1633,3.1406,3.0532,2.8954,2.6706,0.0,0.0,2.5237,2.5373,2.5343,2.5114,2.4893,2.4253,2.3144,2.3101,2.3101,2.3101,2.3101,2.3101,2.3101,2.3101,2.3507,2.4388,2.4009,2.4008,0.0,0.0,0.0,0.0,0.0,0.0,0.0,0.0,0.0,0.0,0.0,2.8438,2.8678,0.0,0.0,0.0,3.1865,3.3186,3.4731,3.6191,0.0,0.0,0.0,0.0,0.0,0.0,0.0,4.0332,4.2907,4.4435,4.3868,4.4588,4.4691,4.3334,4.3199,4.3035,4.2599,0.0,4.2625,4.2367,4.1914,4.1441,4.0878,4.0641,4.0438,4.0146,4.0938,4.1665,4.236,4.3077,4.3726,4.4021,4.4526,4.4981,4.5246,4.4553,4.4197,4.4824,4.4402,4.3999,4.4157,4.3825,4.3506,3.6405,3.6229,3.4195,3.3646,3.412,3.4098,3.4073,3.4022,3.3997,3.3671,3.3165,3.3115,3.2792,3.224,3.1738,0.0,3.229,3.2269,3.2587,3.309,3.3115,3.3115,3.3115,3.3115,3.3115,3.309,3.2441,3.1888,3.1386,3.0834,3.0011,2.8969,2.8114,2.7666,2.7536,2.6622,2.6295,2.6605,2.5525,2.4339,2.3144,2.3101,2.3101,2.3101,2.3101,2.3101,2.3101,2.319,2.3757,2.4851,2.468,2.4926,2.5777,0.0,0.0,0.0,0.0,0.0,0.0,0.0,0.0,0.0,0.0,0.0,0.0,0.0,0.0,0.0,3.5669,0.0,3.7733,3.8908,0.0,0.0,0.0,3.9763,3.9914,4.1743,4.2758,4.2216,0.0,0.0,4.5505,4.6161,4.6436,4.5538,4.4256,4.368,4.4502,4.393,4.322,4.2536,4.2333,4.1792,4.0587,4.0773,4.0871,4.0365,4.1231,4.1861,4.1647,4.2713,4.3606,4.3433,4.3723,4.427,4.4916,4.5024,4.5296,4.5983,4.4975,4.4118,4.4537,4.4039,4.3506,3.6405,3.6355,3.5852,3.5678,3.5803,3.5803,3.5529,3.5082,3.4703,3.4201,3.3693,3.3291,3.3014,3.2867,3.2763,3.2763,3.2867,3.2889,3.2964,3.309,3.3115,3.3115,3.3115,3.3115,3.3115,3.304,3.2064,3.1532,3.1336,3.0457,2.9854,2.9584,2.9366,2.9027,2.8591,2.8751,2.8468,2.7723,2.6646,2.5126,2.3188,2.3101,2.3101,2.3101,2.3101,2.3101,2.3123,2.3951,2.4914,2.6026,2.6778,2.7471,2.8057,2.7128,0.0,0.0,0.0,0.0,0.0,0.0,0.0,0.0,0.0,3.2095,3.1768,0.0,3.4704,0.0,3.8575,4.0404,4.0991,4.1355,0.0,0.0,4.2617,4.2901,4.4397,4.4622,4.4762,4.5094,4.6592,4.7243,4.6323,4.6555,4.6524,4.573,4.4856,4.4369,4.4553,4.4445,4.4045,4.3254,4.2625,4.1995,4.112,4.0932,4.0927,4.0732,4.1381,4.2022,4.2438,4.283,4.3281,4.3732,4.4322,4.4786,4.4926,4.5338,4.568,4.5881,4.5187,4.4528,4.4645,4.4048,4.3506,3.6405,3.6405,3.6405,3.6405,3.6405,3.6405,3.5906,3.513,3.4828,3.4251,3.3542,3.3241,3.3115,3.3115,3.3115,3.3115,3.3115,3.3115,3.3115,3.3115,3.3115,3.3115,3.3115,3.3115,3.3115,3.3065,3.1938,3.1406,3.1356,3.0326,2.9779,2.9779,2.9779,2.9628,2.9333,2.9628,2.9248,2.8104,2.6564,2.5147,2.3908,2.3365,2.3101,2.3101,2.3101,2.3343,2.3844,2.4467,2.5438,2.6798,2.7434,2.7985,2.8499,2.8132,2.7833,0.0,0.0,0.0,0.0,0.0,0.0,0.0,0.0,0.0,0.0,0.0,3.7248,3.9107,4.1277,4.2719,4.3073,4.3619,4.4292,4.5011,4.4771,4.4979,4.608,4.622,4.6411,4.6784,4.7358,4.7576,4.7175,4.6671,4.6177,4.5722,4.506,4.4567,4.4567,4.4567,4.4195,4.3098,4.2557,4.1999,4.1178,4.0984,4.099,4.1273,4.181,4.2282,4.2431,4.2849,4.3262,4.3431,4.3917,4.4359,4.4342,4.4583,4.4819,4.4782,4.4488,4.4342,4.4626,4.4048,4.3506,3.6482,3.6482,3.643,3.6405,3.6405,3.6405,3.5803,3.4803,3.4728,3.4098,3.3115,3.3115,3.3115,3.3115,3.3115,3.3115,3.3136,3.324,3.324,3.3136,3.324,3.324,3.3115,3.3115,3.3115,3.304,3.1959,3.1406,3.1381,3.0306,2.9779,2.9779,2.9779,2.9779,2.9779,2.9779,2.9248,2.8084,2.6066,2.4935,2.4787,2.3692,2.3169,2.3299,2.3321,2.3865,2.4957,2.5168,2.5888,2.7305,2.7535,2.7881,2.8445,2.8777,2.9023,0.0,3.0753,0.0,0.0,0.0,0.0,0.0,0.0,0.0,0.0,3.878,4.0579,4.246,4.3961,4.4802,4.4834,4.585,4.6558,4.6558,4.654,4.6558,4.6625,4.7289,4.7786,4.7786,4.7861,4.7872,4.7654,4.6534,4.5689,4.55,4.5007,4.4601,4.4567,4.4567,4.4073,4.2536,4.213,4.1567,4.098,4.0909,4.1206,4.1746,4.2372,4.2625,4.22,4.2855,4.3358,4.3012,4.3269,4.3545,4.3506,4.3534,4.3543,4.3616,4.3579,4.3763,4.4268,4.3975,4.3543,3.706,3.7009,3.6606,3.6405,3.6405,3.6405,3.5981,3.5307,3.4879,3.4098,3.3115,3.3115,3.3115,3.3115,3.3115,3.3115,3.3133,3.4016,3.3932,3.3133,3.3995,3.3932,3.3133,3.3115,3.3115,3.304,3.1913,3.1406,3.1381,3.0306,2.9779,2.9779,2.9779,2.9779,2.9779,0.0,0.0,0.0,2.683,2.5734,2.4808,2.3692,2.356,2.4446,2.4489,0.0,2.613,2.7014,2.7616,2.7965,2.8841,0.0,0.0,0.0,0.0,0.0,0.0,0.0,0.0,0.0,0.0,0.0,3.9866,3.9607,3.9566,4.245,4.4503,4.4989,4.6846,4.8111,4.8111,4.8296,4.8482,4.8482,4.8448,4.8482,4.8482,4.8608,4.8751,4.8718,4.8235,4.765,4.7056,4.6244,4.5466,4.4939,4.4682,4.4615,4.4567,4.4567,4.3992,4.257,4.142,4.051,4.0275,4.1036,4.1603,4.1916,4.2696,4.3232,4.3196,4.324,4.3497,4.3312,4.3409,4.3506,4.3506,4.3506,4.3506,4.3506,4.3506,4.3543,4.369,4.3616,4.3506,3.7437,0.0,3.6909,3.6632,0.0,3.6405,3.623,3.5881,3.5054,3.4076,3.3158,3.3662,3.3598,3.3111,3.3662,3.3598,3.3154,3.4225,3.4408,3.3953,3.4979,3.4897,3.389,3.389,3.3466,3.2638,3.1788,3.126,3.0959,3.0181,2.9779,2.9779,2.9779,2.9779,2.9779,2.9779,2.9527,2.8944,2.7844,2.7014,2.6418,2.5336,2.5062,2.5609,0.0,0.0,0.0,0.0,0.0,0.0,0.0,0.0,0.0,0.0,0.0,3.4456,3.5319,3.6305,3.7499,3.8573,4.0159,4.2414,4.3757,4.3984,4.2892,4.5216,4.6882,4.7265,4.8345,4.9018,4.9018,4.9018,4.9018,4.9018,4.9018,4.9018,4.9018,4.9018,4.8849,4.8462,4.7834,4.709,4.6346,4.5602,4.5074,4.4682,4.4567,4.4567,4.4567,4.4567,4.4025,4.2523,4.1048,4.0362,4.0861,4.1353,4.2052,4.257,4.3114,4.3426,4.3506,4.3506,4.3506,4.3506,4.3506,4.3506,4.3506,4.3506,4.3506,4.3506,4.3506,4.3506,4.3506,4.3506,4.3506,3.7889,3.7487,3.7311,3.6934,3.6532,3.6455,3.6331,3.618,0.0,0.0,0.0,3.422,3.4199,3.345,3.4491,3.4491,3.3742,3.478,3.5163,3.502,3.5994,3.5862,3.4739,3.4697,3.3903,3.2361,3.1712,3.118,3.0733,3.0105,2.9779,2.9779,2.9779,2.9779,2.9779,2.9779,2.9779,2.974,2.8688,2.8104,2.8084,2.7035,2.6607,2.6769,2.6769,2.7279,2.8367,2.8406,2.8734,2.9454,3.0262,3.1141,3.2089,3.3635,3.5142,3.6576,3.7893,3.9068,4.0053,4.0893,4.2411,4.4861,4.6932,4.7542,4.6287,4.7365,4.836,4.8951,4.9018,4.9018,4.9018,4.9018,4.9018,4.9018,4.9018,4.9018,4.9018,4.9018,4.8732,4.7988,4.7278,4.6515,4.5805,4.5108,4.4567,4.4615,4.4567,4.4567,4.4581,4.4432,4.3856,4.2503,4.1217,4.061,4.1219,4.1552,4.2062,4.2829,4.3214,4.3365,4.3443,4.3506,4.3506,4.3506,4.3506,4.3506,4.3506,4.3506,4.3506,4.3506,4.3506,4.3506,4.3506,4.3506,4.3506,3.8718,3.8567,3.7588,3.716,3.706,3.6606,3.6107,3.5606,3.4979,3.4098,3.3176,3.422,3.4635,3.4532,3.5534,3.5914,3.5834,3.6866,3.6866,3.6073,3.7079,3.6554,3.4759,3.4697,3.409,3.2978,3.1888,3.1381,3.1185,3.0281,2.9779,2.9779,2.9779,2.9779,2.9779,2.9779,2.9779,2.976,2.8688,2.8104,2.8084,2.7035,2.6955,2.7804,2.7864,2.8406,2.9527,2.9566,3.024,3.1656,3.1845,3.2969,3.5174,3.559,3.6757,3.8953,3.9389,4.0148,4.1613,4.3038,4.4898,4.7157,4.8314,4.8735,4.8557,4.872,4.8883,4.8984,4.9018,4.9018,4.9018,4.9018,4.9018,4.9018,4.9018,4.9018,4.9018,4.9018,4.8698,4.7988,4.7244,4.653,4.5805,4.5074,4.4567,4.4567,4.4567,4.4567,4.4499,4.3978,4.3267,4.2435,4.161,4.0921,4.0686,4.0756,4.1362,4.1927,4.2541,4.3041,4.3417,4.3506,4.3506,4.3506,4.3506,4.3506,4.3506,4.3506,4.3506,4.3506,4.3506,4.3506,4.3506,4.3506,4.3506,3.917,3.8843,3.8341,3.7763,3.716,3.6631,3.6056,3.5552,3.5932,3.5675,3.505,3.5737,3.6259,3.6654,3.769,3.7641,3.6789,3.7841,3.7882,3.7204,3.8182,3.7833,3.6444,3.5802,3.4792,3.3457,3.238,3.1687,3.1336,3.0608,3.0231,3.0231,2.9955,2.9779,2.9779,2.9779,2.9779,2.9804,2.9287,2.9028,2.9028,2.8554,2.853,2.9008,2.9028,2.9268,2.9785,3.008,3.086,3.214,3.2985,3.4353,3.6421,3.7457,3.8692,4.013,4.0709,4.147,4.2613,4.4573,4.6346,4.7789,4.8563,4.9018,4.9018,4.9018,4.9018,4.9018,4.9018,4.9018,4.9018,4.9018,4.9018,4.9018,4.9018,4.9018,4.9018,4.9018,4.8714,4.7988,4.7259,4.6515,4.5805,4.5074,4.4615,4.4567,4.4567,4.4567,4.4567,4.4282,4.3606,4.2489,4.169,4.1078,4.0615,4.0744,4.1297,4.2114,4.2518,4.2893,4.3356,4.3506,4.3506,4.3506,4.3506,4.3506,4.3506,4.3506,4.3506,4.3506,4.3506,4.3506,4.3506,4.3506,4.3506,3.9446,3.907,3.8944,3.8389,3.7569,3.7008,3.6664,3.6576,3.736,3.7665,3.7675,3.7758,3.8069,3.8652,3.9695,3.9436,3.8385,3.887,3.8898,3.8518,3.9076,3.8804,3.7757,3.6702,3.5429,3.3991,3.2781,3.1989,3.1562,3.1014,3.0783,3.0713,3.0231,2.998,2.998,2.9854,2.9779,2.9779,2.9779,2.9779,2.9779,2.9779,2.9779,2.9804,2.991,2.998,3.0005,3.0719,3.17,3.2883,3.4257,3.576,3.7452,3.9035,4.0233,4.0951,4.1836,4.2839,4.4044,4.5738,4.7192,4.809,4.868,4.9018,4.9018,4.9018,4.9018,4.9018,4.9018,4.9018,4.9018,4.9018,4.9018,4.9018,4.9018,4.9018,4.9018,4.9018,4.8714,4.7988,4.7259,4.6515,4.5771,4.5041,4.4601,4.4567,4.4567,4.4567,4.4567,4.4567,4.3992,4.2929,4.2049,4.1528,4.113,4.0984,4.1325,4.2241,4.2372,4.2684,4.3096,4.3365,4.3506,4.3506,4.3506,4.3616,4.3726,4.3616,4.3616,4.3763,4.3864,4.38,4.3828,4.3616,4.3506,3.9698,3.9546,3.9145,3.8831,3.8749,3.8192,3.8487,3.9311,3.9072,3.9739,4.079,4.0046,3.9627,3.9794,4.0781,4.1107,4.0863,4.0479,4.02,4.0033,3.9624,3.8833,3.7872,3.673,3.5647,3.4533,3.3006,3.224,3.2114,3.1587,3.1331,3.126,3.0809,3.0532,3.0462,3.0055,2.9804,2.9824,2.9779,2.9779,2.9779,2.9779,2.9779,2.9824,3.0281,3.0512,3.0637,3.1986,3.3485,3.5019,3.6108,3.7463,3.9038,4.0065,4.0985,4.1869,4.2692,4.414,4.6189,4.6688,4.7428,4.8714,4.8951,4.9018,4.9018,4.9018,4.9018,4.9018,4.9018,4.9018,4.9018,4.9018,4.9018,4.9018,4.9018,4.9018,4.9018,4.9018,4.8698,4.7973,4.7293,4.6515,4.5838,4.5108,4.4601,4.4567,4.4567,4.4567,4.4567,4.4567,4.4364,4.3572,4.3186,4.257,4.1583,4.1205,4.1361,4.136,4.1609,4.224,4.2878,4.3296,4.3517,4.3597,4.3522,4.3742,4.408,4.4076,4.3803,4.4317,4.4527,4.459,4.4516,4.4121,4.3763,4.0364,3.9749,4.026,4.0749,4.1009,4.0101,3.9989,4.0421,4.0499,4.0983,4.1592,4.1759,4.1883,4.1922,4.2346,4.2361,4.1991,4.1703,4.1373,4.0995,4.0696,4.0144,3.9226,3.7566,3.6378,3.546,3.3653,3.2717,3.2638,3.2139,3.1712,3.1432,3.116,3.106,3.1035,3.0859,3.0733,3.0758,3.0733,3.0733,3.0703,3.0432,3.0281,3.0312,3.0809,3.1401,3.2024,3.2988,3.4364,3.6193,3.707,3.8297,4.0082,4.0995,4.1869,4.274,4.4022,4.5335,4.6703,4.7192,4.7887,4.8917,4.9018,4.9018,4.9018,4.9018,4.9018,4.9018,4.9018,4.9018,4.9018,4.9018,4.9018,4.9018,4.9018,4.9018,4.9018,4.9018,4.8834,4.8511,4.753,4.6718,4.6278,4.5311,4.4668,4.4567,4.4567,4.4567,4.4567,4.4567,4.4465,4.4195,4.4079,4.3436,4.2219,4.1847,4.1942,4.2216,4.2473,4.2822,4.3283,4.3599,4.3796,4.3791,4.378,4.3852,4.415,4.4135,4.4022,4.4713,4.5279,4.5406,4.5397,4.5149,4.4929,4.1294,4.0894,4.1605,4.2392,4.3062,4.2021,4.1749,4.2036,4.226,4.2353,4.2386,4.303,4.329,4.329,4.329,4.304,4.2661,4.247,4.2141,4.1673,4.1493,4.1164,4.0479,3.8809,3.7682,3.6876,3.4884,3.3559,3.3129,3.2692,3.224,3.1909,3.1687,3.1612,3.1587,3.1486,3.1406,3.1406,3.1406,3.1406,3.1356,3.1185,3.0984,3.0904,3.1635,3.2415,3.3219,3.4317,3.5596,3.7133,3.7875,3.8982,4.0605,4.1718,4.2877,4.4158,4.5316,4.6346,4.7056,4.7616,4.8225,4.8883,4.9018,4.9018,4.9018,4.9018,4.9018,4.9018,4.9018,4.9018,4.9018,4.9018,4.9018,4.9018,4.9018,4.9018,4.9018,4.9018,4.9018,4.8883,4.7887,4.6887,4.6413,4.5379,4.4567,4.4567,4.4567,4.4567,4.4567,4.4567,4.4567,4.4567,4.4567,4.4025,4.2895,4.2591,4.2802,4.2813,4.294,4.3214,4.3734,4.3839,4.3986,4.3917,4.3983,4.4343,4.4854,4.4768,4.4563,4.5307,4.5767,4.6003,4.6205,4.6058,4.5883,4.2279,4.3207,4.2849,4.3373,4.4276,4.3703,4.407,4.4801,4.4363,4.4135,4.4005,4.3549,4.3339,4.3319,4.3319,4.329,4.319,4.269,4.244,4.2291,4.1762,4.1403,4.1268,4.0227,3.9589,3.8962,3.6583,3.4602,3.3208,3.309,3.3065,3.2964,3.2441,3.2144,3.2114,3.1738,3.1411,3.1532,3.1532,3.1457,3.1507,3.1888,3.1884,3.167,3.2881,3.3686,3.408,3.625,3.7643,3.7766,3.8786,3.9791,4.0769,4.226,4.4182,4.6201,4.6669,4.7056,4.7684,4.7921,4.8259,4.8849,4.9018,4.9018,4.9018,4.9018,4.9018,4.9018,4.9018,4.9018,4.9018,4.9018,4.9018,4.9018,4.9018,4.9018,4.9018,4.9018,4.9018,4.8917,4.8259,4.7278,4.6007,4.5074,4.4736,4.4668,4.4635,4.4567,4.4567,4.4567,4.4567,4.4567,4.4533,4.4296,4.3524,4.3355,4.3078,4.3042,4.3331,4.3303,4.3423,4.3581,4.3875,4.4048,4.4074,4.4552,4.5495,4.5843,4.5699,4.5908,4.5959,4.6217,4.6498,4.623,4.6073,4.4279,4.4697,4.4515,4.5139,4.6159,4.5605,4.5573,4.5852,4.5214,4.4945,4.4825,4.4237,4.3938,4.3938,4.3489,4.329,4.326,4.307,4.3,4.294,4.2711,4.2402,4.1936,4.0948,3.9767,3.8565,3.6964,3.5297,3.3777,3.3596,3.3442,3.3115,3.2867,3.2788,3.2742,3.2566,3.2487,3.2487,3.2487,3.2466,3.2487,3.2688,3.298,3.3524,3.4065,3.4673,3.5308,3.6947,3.8107,3.8797,4.0172,4.1324,4.2322,4.4279,4.5818,4.6712,4.7259,4.7616,4.7887,4.8376,4.8698,4.8951,4.9018,4.9018,4.9018,4.9018,4.9018,4.9018,4.9018,4.9018,4.9018,4.9018,4.9018,4.9018,4.9018,4.9018,4.9018,4.9018,4.9018,4.8917,4.836,4.7481,4.6616,4.5737,4.5331,4.5229,4.4905,4.4649,4.4567,4.4567,4.4567,4.4567,4.4567,4.4499,4.4296,4.4161,4.4073,4.3979,4.4034,4.4081,4.4165,4.4121,4.4324,4.4311,4.4315,4.4502,4.5335,4.5752,4.5782,4.5862,4.5952,4.6307,4.6599,4.6307,4.6207,4.5756,4.5508,4.5846,4.6506,4.7206,4.6809,4.66,4.654,4.5903,4.5613,4.5514,4.4945,4.4646,4.4556,4.4167,4.3938,4.3878,4.3499,4.329,4.329,4.329,4.31,4.2633,4.1941,4.0975,3.9677,3.8042,3.6431,3.4857,3.4347,3.3972,3.3646,3.3617,3.3596,3.3621,3.3621,3.3596,3.3617,3.3596,3.3621,3.3664,3.4005,3.4516,3.5273,3.5952,3.6528,3.7077,3.8093,3.9031,4.0086,4.1377,4.2759,4.4253,4.6078,4.7259,4.753,4.797,4.8259,4.8293,4.8732,4.9018,4.9018,4.9018,4.9018,4.9018,4.9018,4.9018,4.9018,4.9018,4.9018,4.9018,4.9018,4.9018,4.9018,4.9018,4.9018,4.9018,4.9018,4.9018,4.8917,4.836,4.7718,4.7158,4.6278,4.5771,4.5689,4.5041,4.4601,4.4567,4.4567,4.4567,4.4567,4.4567,4.4567,4.4465,4.4432,4.4432,4.4372,4.4352,4.4513,4.4567,4.4567,4.4567,4.4567,4.4623,4.4706,4.4988,4.5425,4.5622,4.5724,4.601,4.6381,4.6446,4.6412,4.6247,4.655,4.5734,4.6748,4.7222,4.7309,4.7249,4.7249,4.7108,4.657,4.63,4.6211,4.5603,4.5304,4.5274,4.5125,4.5185,4.4915,4.3997,4.3469,4.3409,4.3379,4.3339,4.32,4.3091,4.2882,4.2483,4.0215,3.8069,3.6375,3.5391,3.4833,3.4675,3.4552,3.4502,3.4653,3.4552,3.4603,3.4597,3.464,3.4735,3.4833,3.5783,3.6444,3.6818,3.8438,3.9242,3.889,3.9807,4.0543,4.1258,4.2339,4.402,4.6224,4.7422,4.8191,4.8714,4.8951,4.8984,4.8951,4.8969,4.9018,4.9018,4.9018,4.9018,4.9018,4.9018,4.9018,4.9018,4.9018,4.9018,4.9018,4.9018,4.9018,4.9018,4.9018,4.9018,4.9018,4.9018,4.9018,4.8917,4.8428,4.7988,4.765,4.6838,4.6061,4.5892,4.5331,4.4838,4.4804,4.477,4.4668,4.4567,4.4567,4.4567,4.4567,4.4567,4.4567,4.4581,4.4547,4.4567,4.4567,4.4567,4.4567,4.4567,4.4567,4.4665,4.4893,4.5307,4.5597,4.5752,4.6136,4.6089,4.5977,4.5865,4.6026,4.7062,4.6748,4.7106,4.7309,4.7309,4.7309,4.7309,4.7309,4.707,4.698,4.6839,4.6271,4.6001,4.5852,4.5514,4.5304,4.5244,4.4825,4.4416,4.4057,4.3997,4.3758,4.3409,4.3319,4.288,4.198,4.0442,3.8738,3.732,3.6667,3.5955,3.4959,3.4751,3.4703,3.4798,3.4703,3.4703,3.4793,3.5546,3.5939,3.6048,3.7101,3.8,3.8761,3.9496,4.0197,4.1192,4.1162,4.1175,4.149,4.3367,4.5594,4.7741,4.8508,4.8766,4.8951,4.9018,4.9018,4.9018,4.9018,4.9018,4.9018,4.9018,4.9018,4.9018,4.9018,4.9018,4.9018,4.9018,4.9018,4.9018,4.9018,4.9018,4.9018,4.9018,4.9018,4.9018,4.9018,4.9018,4.8984,4.8815,4.868,4.8511,4.7665,4.7109,4.7041,4.6481,4.592,4.5466,4.5297,4.5108,4.4736,4.4668,4.4668,4.4736,4.4702,4.4567,4.4567,4.4567,4.4567,4.4567,4.4567,4.4567,4.4567,4.4567,4.4679,4.4906,4.5102,4.5346,4.5294,4.5228,4.5175,4.5182,4.5267,4.5429,4.7668,4.7638,4.7399,4.7309,4.7309,4.7309,4.7309,4.7309,4.7309,4.7309,4.7189,4.6869,4.6659,4.657,4.6232,4.6052,4.6052,4.6052,4.5693,4.5044,4.4766,4.4436,4.4057,4.4057,4.3744,4.2711,4.1111,3.9958,3.924,3.8127,3.7015,3.6148,3.6411,3.6437,3.6097,3.6408,3.6609,3.6764,3.7403,3.7768,3.8006,3.8873,3.9795,4.0426,4.0877,4.1676,4.2651,4.2312,4.2294,4.2957,4.4872,4.6996,4.8811,4.8984,4.9018,4.9018,4.9018,4.9018,4.9018,4.9018,4.9018,4.9018,4.9018,4.9018,4.9018,4.9018,4.9018,4.9018,4.9018,4.912,4.9323,4.912,4.912,4.939,4.9154,4.9052,4.9018,4.9018,4.9018,4.9018,4.8984,4.9018,4.8883,4.836,4.7954,4.7819,4.7259,4.6733,4.6177,4.5838,4.5534,4.521,4.4939,4.4939,4.5007,4.4838,4.4601,4.4567,4.4567,4.4567,4.4567,4.4567,4.4567,4.4567,4.4567,4.4567,4.4789,4.4734,4.4824,4.4595,4.4567,4.4706,4.4852,4.4803,4.4906,4.8349,4.8229,4.7638,4.7369,4.7309,4.7309,4.7309,4.7309,4.7309,4.7309,4.7279,4.7249,4.7249,4.7279,4.71,4.71,4.7279,4.713,4.683,4.6241,4.5783,4.5364,4.5095,4.5035,4.4952,4.4561,4.2474,4.172,4.1974,3.9876,3.8319,3.833,3.8937,3.9293,3.8483,3.9365,3.9651,3.9662,3.9974,4.0099,4.0108,4.1127,4.1683,4.1728,4.2522,4.3061,4.315,4.3505,4.407,4.4999,4.6526,4.7884,4.8832,4.9052,4.9018,4.9018,4.9018,4.9018,4.9018,4.9018,4.9018,4.9018,4.9018,4.9018,4.9018,4.9018,4.9018,4.9018,4.9018,4.9289,4.9695,4.9526,4.9492,4.9932,4.9492,4.9052,4.9018,4.9018,4.9018,4.9018,4.9018,4.9018,4.8984,4.8394,4.8157,4.7954,4.753,4.7192,4.6819,4.6583,4.6346,4.594,4.5548,4.5548,4.5717,4.5616,4.5345,4.5007,4.4905,4.4804,4.4635,4.4567,4.4567,4.4567,4.4567,4.4567,4.4567,4.4567,4.4567,4.4567,4.4567,4.4567,4.4567,4.4567,4.4567,4.8738,4.8289,4.8139,4.7758,4.7339,4.7309,4.7309,4.7309,4.7309,4.7309,4.7309,4.7309,4.7309,4.7309,4.7309,4.7309,4.7309,4.7309,4.7249,4.7048,4.689,4.6142,4.5454,4.5304,4.5334,4.518,4.4351,4.3866,4.3264,4.1922,4.0872,4.0093,4.0118,4.0139,4.0128,4.0476,4.0813,4.1374,4.2232,4.2324,4.2102,4.2936,4.3334,4.293,4.315,4.3339,4.3548,4.5227,4.6318,4.6634,4.7179,4.828,4.9601,4.9357,4.9086,4.9086,4.9018,4.9018,4.9018,4.9018,4.9018,4.9018,4.9018,4.9018,4.9018,4.9018,4.9018,4.9018,4.9018,4.9323,4.9898,4.9981,5.0202,5.0592,4.9864,4.9154,4.912,4.9018,4.9018,4.9018,4.9052,4.9052,4.8951,4.8849,4.8665,4.8597,4.8409,4.8105,4.7665,4.7361,4.7109,4.6752,4.6462,4.6428,4.6428,4.636,4.6123,4.5602,4.5365,4.5128,4.4871,4.4567,4.4567,4.4567,4.4567,4.4567,4.4567,4.4567,4.4567,4.4567,4.4567,4.4567,4.4567,4.4567,4.4567,4.9464,4.9045,4.8558,4.8079,4.7698,4.7407,4.7309,4.7309,4.7309,4.7309,4.7309,4.7309,4.7309,4.7309,4.7309,4.7309,4.7309,4.7309,4.7309,4.7309,4.7279,4.683,4.6292,4.6142,4.6142,4.6019,4.537,4.4932,4.4528,4.3609,4.2646,4.2191,4.2117,4.2145,4.1994,4.2502,4.2847,4.3336,4.3992,4.4115,4.3847,4.4059,4.4036,4.3698,4.3519,4.3538,4.4517,4.6554,4.7617,4.7616,4.8425,4.9571,5.0326,4.9864,4.9458,4.9458,4.9187,4.9018,4.9018,4.9018,4.9154,4.9323,4.9221,4.9187,4.9323,4.9221,4.9018,4.9018,4.9255,4.983,5.0439,5.0811,5.1048,5.1066,5.0423,4.9916,4.9916,4.9999,4.9763,4.9593,4.9458,4.9289,4.907,4.9018,4.9018,4.8984,4.8917,4.868,4.8428,4.8157,4.7921,4.7631,4.7173,4.6989,4.6989,4.6969,4.6766,4.6278,4.5602,4.5399,4.5041,4.4668,4.4567,4.4567,4.4567,4.4567,4.4567,4.4567,4.4567,4.4567,4.4567,4.4567,4.4567,4.4567,4.4567,5.0255,5.0099,4.8955,4.8438,4.8207,4.7668,4.7399,4.7309,4.7309,4.7309,4.7309,4.7309,4.7309,4.7309,4.7309,4.7309,4.7309,4.7309,4.7309,4.7309,4.7309,4.7189,4.713,4.704,4.707,4.6902,4.5566,4.5638,4.572,4.4645,4.4008,4.3964,4.468,4.4668,4.4144,4.4756,4.5341,4.5352,4.545,4.5424,4.5177,4.4913,4.4655,4.4407,4.3997,4.4496,4.5851,4.7465,4.8249,4.777,4.9992,5.0954,5.1133,5.0608,5.0286,5.0135,4.9763,4.9424,4.9323,4.9458,4.956,4.9999,4.9661,4.9492,4.9965,4.9763,4.9492,4.9526,4.9864,5.0541,5.1235,5.1961,5.2097,5.181,5.1472,5.1438,5.1404,5.1302,5.093,5.0338,5.0202,4.9864,4.9492,4.9154,4.9154,4.9357,4.9221,4.8917,4.8732,4.8496,4.8529,4.8646,4.8071,4.7428,4.7496,4.7564,4.7308,4.6936,4.6007,4.5534,4.5142,4.4838,4.4668,4.4567,4.4567,4.4567,4.4567,4.4567,4.4601,4.4567,4.4567,4.4567,4.4567,4.4567,4.4567,5.0697,5.0166,4.992,4.9224,4.8356,4.8117,4.7788,4.7339,4.7339,4.7399,4.7339,4.7339,4.7339,4.7309,4.7339,4.7309,4.7309,4.7309,4.7309,4.7309,4.7309,4.7309,4.7309,4.7309,4.7309,4.7163,4.6965,4.6854,4.674,4.6134,4.57,4.5684,4.5441,4.5469,4.5747,4.5849,4.6381,4.6741,4.683,4.6501,4.6121,4.5882,4.5493,4.5095,4.4926,4.5516,4.673,4.8282,4.9415,5.0116,5.0794,5.1607,5.186,5.137,5.1014,5.0913,5.0795,5.066,5.0694,5.0626,5.0761,5.0863,5.0728,5.0795,5.0897,5.0795,5.066,5.0728,5.0897,5.1285,5.2029,5.2757,5.296,5.2824,5.2824,5.2858,5.2807,5.1945,5.1302,5.1032,5.093,5.0897,5.0676,5.0067,4.9932,4.9796,4.9526,4.912,4.8951,4.8868,4.8917,4.9086,4.8748,4.8139,4.8173,4.8173,4.797,4.7597,4.6752,4.6143,4.5751,4.5156,4.5055,4.4818,4.4567,4.4601,4.4668,4.4702,4.477,4.4668,4.4601,4.4567,4.4567,4.4567,4.4567,5.0996,5.0637,5.0315,4.983,4.9224,4.8887,4.8558,4.8289,4.8259,4.8079,4.7908,4.8079,4.7878,4.7369,4.7608,4.7638,4.7339,4.7309,4.7309,4.7309,4.7309,4.7309,4.7309,4.7309,4.7309,4.7309,4.7287,4.7309,4.7189,4.698,4.6685,4.6749,4.6381,4.645,4.6689,4.6749,4.692,4.716,4.7309,4.71,4.6809,4.642,4.5992,4.568,4.603,4.6973,4.811,4.97,5.1011,5.1858,5.2219,5.2418,5.2621,5.2131,5.1758,5.1691,5.1336,5.1235,5.1201,5.1235,5.1302,5.1674,5.1438,5.1472,5.1472,5.1438,5.1201,5.1302,5.1539,5.2013,5.2773,5.3129,5.3467,5.3501,5.3501,5.3501,5.3365,5.2757,5.208,5.1877,5.1708,5.1472,5.1183,5.0879,5.071,5.0574,5.0507,5.0135,4.9643,4.9526,4.9221,4.9221,4.9086,4.8883,4.8883,4.8815,4.868,4.8274,4.7665,4.721,4.6906,4.6225,4.5495,4.5258,4.4973,4.477,4.4804,4.4871,4.4939,4.4736,4.4649,4.4601,4.4601,4.4668,4.4635,5.1295,5.1146,5.0607,5.0285,5.0129,4.9643,4.9366,4.9247,4.9277,4.8858,4.8618,4.9067,4.8588,4.7938,4.8027,4.7878,4.7459,4.7309,4.7309,4.7309,4.7309,4.7309,4.7309,4.7309,4.7309,4.7309,4.7309,4.7309,4.7309,4.7309,4.7189,4.7279,4.7279,4.713,4.7249,4.7309,4.7249,4.7309,4.7309,4.7309,4.7189,4.6749,4.6262,4.616,4.7079,4.8301,4.9432,5.0843,5.2263,5.3382,5.3501,5.3501,5.3348,5.2942,5.2503,5.2469,5.2013,5.1844,5.1844,5.1742,5.1945,5.2435,5.1979,5.1928,5.2198,5.208,5.1894,5.1894,5.2232,5.2739,5.3416,5.3467,5.3467,5.3501,5.3501,5.3501,5.3501,5.3501,5.3044,5.2672,5.2503,5.2317,5.1945,5.1623,5.1472,5.1336,5.1252,5.105,5.0493,5.0121,4.9803,4.9578,4.9458,4.912,4.9052,4.9018,4.8917,4.8665,4.8191,4.7954,4.765,4.6853,4.6056,4.565,4.5413,4.5345,4.5413,4.565,4.5514,4.5007,4.5089,4.5413,4.5244,4.4871,4.4804,5.1708,5.1206,5.1086,5.0727,5.0226,5.0099,4.9793,4.9337,4.9396,4.9247,4.9187,4.9247,4.9269,4.8858,4.8438,4.7938,4.7549,4.7369,4.7309,4.7309,4.7309,4.7309,4.7309,4.7309,4.7309,4.7309,4.7309,4.7309,4.7309,4.7309,4.7309,4.7309,4.7309,4.7309,4.7309,4.7309,4.7309,4.7309,4.7309,4.7309,4.7249,4.713,4.698,4.689,4.8009,4.9134,5.0173,5.128,5.2416,5.3365,5.3501,5.3501,5.3484,5.3315,5.3247,5.3129,5.3027,5.2824,5.2858,5.2993,5.3129,5.3281,5.3027,5.2993,5.3162,5.3129,5.2875,5.2942,5.3027,5.3348,5.3467,5.3501,5.3501,5.3501,5.3501,5.3501,5.3501,5.3484,5.345,5.3179,5.3162,5.3129,5.2689,5.2351,5.2216,5.1914,5.1597,5.1345,5.0841,5.0572,5.0354,5.0129,4.9965,4.9526,4.912,4.9052,4.8951,4.8815,4.8462,4.8157,4.7785,4.7192,4.665,4.6568,4.6413,4.636,4.6462,4.6481,4.636,4.5988,4.6157,4.636,4.5988,4.5582,4.5365,5.2007,5.1708,5.1349,5.1026,5.0757,5.0727,5.0548,5.0301,5.0272,5.0062,4.9942,5.0062,4.9875,4.9456,4.9374,4.8775,4.7967,4.7399,4.7339,4.7309,4.7309,4.7309,4.7309,4.7309,4.7309,4.7309,4.7309,4.7309,4.7309,4.7309,4.7309,4.7309,4.7309,4.7309,4.7309,4.7309,4.7309,4.7309,4.7309,4.7309,4.7309,4.7309,4.7309,4.7666,4.8738,4.9832,5.0512,5.2026,5.2904,5.3382,5.3501,5.3501,5.3501,5.3501,5.3501,5.3501,5.3501,5.3501,5.3501,5.3501,5.3467,5.3467,5.3501,5.3501,5.3501,5.3433,5.3501,5.3501,5.3501,5.3501,5.3501,5.3501,5.3501,5.3501,5.3501,5.3501,5.3501,5.3501,5.3467,5.345,5.3332,5.3264,5.3382,5.3112,5.2976,5.2573,5.2,5.1513,5.1043,5.0707,5.0387,4.979,4.9477,4.9371,4.8919,4.8797,4.8596,4.8492,4.8404,4.8102,4.7998,4.7438,4.7656,4.7924,4.7736,4.7327,4.7056,4.6955,4.6955,4.6955,4.6868,4.6733,4.6563,4.6327,4.5973,5.2516,5.2336,5.1828,5.1505,5.1385,5.1385,5.1295,5.1206,5.1146,5.0847,5.0548,5.0847,5.0601,4.9942,4.9733,4.9404,4.8416,4.7698,4.7399,4.7519,4.7369,4.7309,4.7309,4.7309,4.7309,4.7309,4.7309,4.7309,4.7309,4.7309,4.7309,4.7309,4.7309,4.7309,4.7309,4.7309,4.7309,4.7309,4.7309,4.7309,4.7309,4.7309,4.7309,4.7495,4.9276,5.0358,5.057,5.2327,5.3246,5.3484,5.3501,5.3501,5.3501,5.3501,5.3501,5.3501,5.3501,5.3501,5.3501,5.3501,5.3501,5.3501,5.3501,5.3501,5.3501,5.3501,5.3501,5.3501,5.3501,5.3501,5.3501,5.3501,5.3501,5.3501,5.3501,5.3501,5.3501,5.345,5.3246,5.3246,5.3263,5.311,5.2939,5.2802,5.2446,5.1852,5.1298,5.1179,5.0707,5.0329,4.9904,4.9119,4.8734,4.8854,4.8646,4.8415,4.8084,4.7704,4.7688,4.7522,4.7686,4.7718,4.8009,4.8131,4.8465,4.8022,4.7718,4.7534,4.78,4.7767,4.7394,4.7158,4.7035,4.6642,4.6146,5.3623,5.3054,5.2995,5.2636,5.2127,5.2067,5.1738,5.1289,5.1236,5.1176,5.0996,5.1146,5.1086,5.072,4.9793,4.9396,4.8858,4.8087,4.7788,4.8057,4.7728,4.7519,4.7399,4.7309,4.7429,4.7399,4.7339,4.7309,4.7309,4.7309,4.7309,4.7309,4.7309,4.7309,4.7309,4.7309,4.7309,4.7309,4.7309,4.7309,4.7309,4.7309,4.7309,4.7913,4.9186,5.0474,5.0779,5.2434,5.345,5.3501,5.3501,5.3501,5.3501,5.3501,5.3501,5.3501,5.3501,5.3501,5.3501,5.3501,5.3501,5.3501,5.3501,5.3501,5.3501,5.3501,5.3501,5.3501,5.3501,5.3501,5.3501,5.3501,5.3501,5.3501,5.3501,5.3501,5.3501,5.3501,5.328,5.2818,5.2783,5.2348,5.2047,5.1939,5.1743,5.1155,5.0665,5.0511,5.0237,4.9723,4.9616,4.8968,4.8407,4.8417,4.8647,4.8361,4.7787,4.7211,4.7114,4.7081,4.7036,4.7189,4.7423,4.7638,4.8008,4.8277,4.7867,4.7896,4.8526,4.8267,4.7472,4.7416,4.7571,4.6993,4.6103,5.4371,5.3743,5.3378,5.3049,5.2725,5.2366,5.2037,5.1738,5.1355,5.1206,5.1206,5.1206,5.1206,5.0966,5.0159,4.9853,4.9613,4.8805,4.8558,4.8768,4.8506,4.8386,4.8379,4.8057,4.7878,4.7788,4.7519,4.7309,4.7309,4.7309,4.7309,4.7309,4.7309,4.7309,4.7309,4.7309,4.7309,4.7309,4.7309,4.7309,4.7309,4.7352,4.7559,4.8157,4.9595,5.0531,5.1428,5.2575,5.3467,5.3501,5.3501,5.3501,5.3501,5.3501,5.3501,5.3501,5.3501,5.3501,5.3501,5.3501,5.3501,5.3501,5.3501,5.3501,5.3501,5.3501,5.3501,5.3501,5.3501,5.3501,5.3501,5.3501,5.3501,5.3484,5.3246,5.3263,5.328,5.345,5.3331,5.28,5.217,5.1506,5.0986,5.0817,5.0684,5.0378,4.9813,4.9484,4.9144,4.8615,4.8736,4.896,4.8463,4.8129,4.843,4.8459,4.7766,4.7227,4.7102,4.6906,4.6354,4.6366,4.6749,4.6597,4.6454,4.6833,4.7406,4.7753,4.7866,4.7671,4.739,4.7155,4.6886,4.6248,4.5467,5.491,5.4401,5.3917,5.3618,5.3384,5.2725,5.2336,5.2127,5.1475,5.1206,5.1206,5.1206,5.1206,5.1056,5.0548,5.0249,5.0398,4.9643,4.9486,4.9456,4.9366,4.9217,4.9007,4.8738,4.8558,4.8528,4.7938,4.7668,4.7549,4.7399,4.7309,4.7309,4.7309,4.7309,4.7309,4.7309,4.7309,4.7309,4.7309,4.7309,4.7309,4.7309,4.77,4.8522,4.9635,5.0741,5.1576,5.287,5.3484,5.3501,5.3501,5.3501,5.3501,5.3501,5.3501,5.3501,5.3501,5.3501,5.3501,5.3501,5.3501,5.3501,5.3501,5.3501,5.3501,5.3501,5.3501,5.3501,5.3501,5.3501,5.345,5.3297,5.2956,5.28,5.2678,5.2748,5.2731,5.2557,5.2062,5.1155,5.055,5.0242,4.9793,4.9595,4.9507,4.9467,4.9085,4.8553,4.8198,4.7785,4.7958,4.8368,4.8122,4.7669,4.7619,4.7765,4.7315,4.7139,4.6968,4.6629,4.6022,4.594,4.6302,4.5909,4.5497,4.589,4.6792,4.6955,4.7104,4.6951,4.6713,4.6261,4.5869,4.5313,4.5003,5.5179,5.5119,5.5059,5.467,5.4102,5.3438,5.2785,5.2247,5.1558,5.1236,5.1206,5.1206,5.1206,5.1056,5.0697,5.0607,5.1026,4.9845,4.9823,4.9853,4.9613,4.9546,4.9456,4.9396,4.9217,4.9127,4.8588,4.8289,4.8079,4.7638,4.7459,4.7309,4.7339,4.7339,4.7309,4.7309,4.7309,4.7309,4.7309,4.7309,4.7309,4.7309,4.743,4.7955,4.9287,5.0455,5.0627,5.2451,5.3501,5.3501,5.3501,5.3501,5.3501,5.3501,5.3501,5.3501,5.3501,5.3501,5.3501,5.3501,5.3501,5.3501,5.3501,5.3501,5.3501,5.3501,5.3501,5.3501,5.3501,5.3501,5.3229,5.2783,5.261,5.2223,5.2044,5.1631,5.1502,5.1206,5.0589,4.9516,4.9114,4.9175,4.8841,4.8708,4.848,4.8418,4.8366,4.7892,4.7785,4.7473,4.746,4.7563,4.7529,4.7168,4.6644,4.6607,4.6834,4.6617,4.6332,4.6,4.5526,4.5656,4.5934,4.6079,4.5901,4.5995,4.5947,4.6006,4.6086,4.6234,4.5996,4.5361,4.5011,4.4676,4.4558,5.5234,5.5234,5.5234,5.5059,5.476,5.4102,5.3414,5.2755,5.2097,5.1558,5.1206,5.1206,5.1206,5.1116,5.1026,5.0936,5.1116,5.078,5.0637,5.0667,5.0571,5.0481,5.0361,5.0062,4.983,4.9733,4.9224,4.8917,4.8828,4.8207,4.7997,4.7848,4.7578,4.7339,4.7309,4.7309,4.7309,4.7309,4.7309,4.7309,4.7309,4.7374,4.7602,4.8356,4.9456,5.0703,5.1433,5.2697,5.3297,5.3501,5.3484,5.3399,5.3416,5.345,5.3467,5.3433,5.3416,5.3501,5.3501,5.3501,5.3501,5.3501,5.3501,5.3501,5.3501,5.3501,5.3501,5.3501,5.3416,5.3348,5.3331,5.3093,5.2835,5.2116,5.1359,5.0722,5.032,4.9989,4.9852,4.9094,4.8871,4.8851,4.8377,4.787,4.7645,4.7439,4.7352,4.7309,4.7309,4.7309,4.7309,4.7309,4.7309,4.7309,4.6839,4.6689,4.6651,4.6292,4.5933,4.5813,4.5693,4.5336,4.5617,4.5889,4.5989,4.5653,4.5386,4.5108,4.4991,4.4961,4.4668,4.4205,4.4004,4.3985,4.4062,5.5504,5.5474,5.5269,5.5234,5.5089,5.4491,5.3832,5.3144,5.2456,5.1828,5.1206,5.1206,5.1206,5.1206,5.1176,5.1176,5.1206,5.1116,5.1146,5.1146,5.1116,5.1206,5.1056,5.0817,5.0488,5.0338,4.989,4.9553,4.9523,4.8917,4.8678,4.8446,4.8117,4.7848,4.7309,4.7309,4.7309,4.7309,4.7309,4.7309,4.7309,4.7352,4.7807,4.8718,4.9813,5.0836,5.1631,5.254,5.3076,5.3213,5.3196,5.2991,5.311,5.3213,5.3297,5.3213,5.3297,5.3467,5.3484,5.3501,5.3501,5.3501,5.3501,5.3501,5.3501,5.3484,5.3399,5.2904,5.2939,5.2939,5.2783,5.1867,5.134,5.0403,4.9852,4.9256,4.9125,4.8913,4.9004,4.8861,4.8615,4.821,4.803,4.7559,4.7473,4.7309,4.7309,4.7309,4.7309,4.7309,4.7309,4.7309,4.7309,4.7309,4.7279,4.71,4.695,4.6869,4.657,4.642,4.6232,4.5873,4.5813,4.6316,4.6147,4.5276,4.4859,4.4679,4.4117,4.3548,4.3468,4.3595,4.3586,4.3625,4.3527,5.6162,5.6102,5.5474,5.5234,5.5144,5.4521,5.3862,5.3234,5.2516,5.1828,5.1236,5.1206,5.1206,5.1206,5.1206,5.1206,5.1206,5.1206,5.1206,5.1206,5.1206,5.1206,5.1176,5.1086,5.0966,5.0966,5.0548,5.0189,5.0189,4.9553,4.9307,4.9217,4.8977,4.8528,4.7459,4.7339,4.7339,4.7339,4.7369,4.7309,4.7309,4.7309,4.7849,4.8563,4.9793,5.0855,5.1647,5.2475,5.3188,5.3753,5.3237,5.2975,5.2888,5.3226,5.3054,5.2373,5.2903,5.3246,5.3365,5.3433,5.3365,5.345,5.3501,5.3551,5.3551,5.345,5.3194,5.2722,5.2396,5.1722,5.0798,4.9989,4.9852,4.9235,4.8738,4.8335,4.8282,4.8103,4.824,4.8314,4.7828,4.7374,4.7396,4.7331,4.7352,4.7309,4.7309,4.7309,4.7309,4.7309,4.7309,4.7309,4.7309,4.7309,4.7309,4.7309,4.7249,4.7228,4.7138,4.6899,4.692,4.677,4.68,4.698,4.6531,4.5873,4.5044,4.4307,4.3848,4.3439,4.3319,4.3369,4.3309,4.329,4.329,5.6218,5.6132,5.5504,5.5234,5.5149,5.497,5.4461,5.3743,5.2725,5.1828,5.1295,5.1206,5.1206,5.1206,5.1206,5.1206,5.1206,5.1206,5.1206,5.1206,5.1206,5.1206,5.1206,5.1206,5.1206,5.1146,5.0907,5.0817,5.0847,5.0189,4.9949,4.983,4.9606,4.9067,4.8618,4.8289,4.7967,4.79,4.7608,4.7309,4.7309,4.7331,4.7516,4.7988,4.9496,5.0705,5.1626,5.2511,5.3497,5.4287,5.3789,5.3769,5.3579,5.3837,5.2937,5.2228,5.2353,5.1428,5.1592,5.181,5.2579,5.3018,5.3365,5.355,5.4059,5.3721,5.3239,5.2774,5.2516,5.1786,5.0741,5.1019,5.0722,4.9276,4.8594,4.8126,4.7882,4.7645,4.7559,4.7602,4.7331,4.7309,4.7309,4.7309,4.7309,4.7309,4.7309,4.7309,4.7309,4.7309,4.7309,4.7309,4.7309,4.7309,4.7309,4.7309,4.7309,4.7279,4.7279,4.7219,4.7249,4.7309,4.7279,4.713,4.686,4.6471,4.5553,4.4685,4.3967,4.3529,4.3529,4.3409,4.329,4.329,4.329,5.6731,5.6462,5.5833,5.5388,5.5209,5.5234,5.482,5.4042,5.2815,5.1947,5.1588,5.1325,5.1206,5.1206,5.1206,5.1206,5.1206,5.1206,5.1206,5.1206,5.1206,5.1206,5.1206,5.1206,5.1206,5.1206,5.1206,5.1176,5.1116,5.0757,5.0578,5.0458,5.0152,5.0062,4.9726,4.9247,4.8648,4.8468,4.8117,4.7728,4.7638,4.7532,4.7495,4.8136,4.9147,5.0295,5.1372,5.2509,5.3519,5.4247,5.4386,5.4166,5.3743,5.3386,5.2402,5.1695,5.1179,5.0422,5.0672,5.082,5.1592,5.211,5.258,5.2996,5.3428,5.306,5.2656,5.2387,5.2608,5.1643,5.0608,5.1095,5.047,4.8982,4.8525,4.8054,4.7654,4.7412,4.7309,4.7309,4.7309,4.7309,4.7309,4.7309,4.7309,4.7309,4.7309,4.7309,4.7309,4.7309,4.7309,4.7309,4.7309,4.7309,4.7309,4.7309,4.7309,4.7309,4.7309,4.7309,4.7309,4.7309,4.7309,4.7249,4.683,4.639,4.5852,4.5164,4.4566,4.4147,4.3967,4.3728,4.3379,4.329,4.329,5.7723,5.7064,5.6462,5.5833,5.5299,5.5239,5.482,5.4077,5.2815,5.2247,5.2127,5.1445,5.1206,5.1206,5.1206,5.1206,5.1206,5.1206,5.1206,5.1206,5.1206,5.1206,5.1206,5.1206,5.1206,5.1206,5.1206,5.1206,5.1206,5.1056,5.1056,5.1116,5.0907,5.087,5.0511,5.0062,4.9486,4.9164,4.8708,4.8297,4.8057,4.772,4.7817,4.8353,4.92,5.0182,5.1037,5.1614,5.2025,5.2235,5.209,5.156,5.1455,5.1859,5.1068,5.0443,5.0219,5.0287,5.0093,5.0204,5.0272,5.0657,5.1136,5.1315,5.1861,5.2372,5.2165,5.1801,5.1665,5.0648,4.9813,4.9696,4.9596,4.8881,4.8471,4.8025,4.7584,4.7399,4.7339,4.7309,4.7309,4.7309,4.7309,4.7309,4.7309,4.7309,4.7309,4.7309,4.7309,4.7309,4.7309,4.7309,4.7309,4.7309,4.7309,4.7309,4.7309,4.7309,4.7309,4.7309,4.7309,4.7309,4.7309,4.716,4.6719,4.63,4.5942,4.5642,4.5334,4.4945,4.4536,4.4117,4.3818,4.3379,4.329,5.8022,5.7723,5.6671,5.6072,5.5863,5.5388,5.482,5.4132,5.3234,5.269,5.2181,5.1505,5.1206,5.1206,5.1206,5.1206,5.1206,5.1206,5.1206,5.1206,5.1206,5.1206,5.1206,5.1206,5.1206,5.1206,5.1206,5.1206,5.1206,5.1206,5.1206,5.1176,5.1206,5.1206,5.1056,5.0817,5.0391,4.9883,4.9307,4.8798,4.8409,4.7997,4.8015,4.8189,4.9532,5.0409,5.083,5.2371,5.3085,5.3374,5.3512,5.3429,5.3565,5.2618,5.1298,4.9786,4.9804,4.9953,4.9277,4.9787,4.9956,4.9533,5.0051,5.1204,5.1796,5.2041,5.1936,5.1577,5.1375,5.0748,5.0138,4.9899,4.9644,4.9269,4.8828,4.8446,4.8057,4.7788,4.7698,4.7459,4.7459,4.7309,4.7309,4.7309,4.7309,4.7309,4.7309,4.7309,4.7309,4.7309,4.7309,4.7309,4.7309,4.7309,4.7309,4.7309,4.7309,4.7309,4.7309,4.7309,4.7309,4.7309,4.7309,4.7189,4.6929,4.657,4.6181,4.6001,4.5963,4.5484,4.5035,4.4646,4.4207,4.3848,4.3409,5.8175,5.7633,5.6885,5.6282,5.5773,5.5384,5.494,5.4461,5.3618,5.2935,5.2486,5.1618,5.1206,5.1206,5.1206,5.1206,5.1206,5.1206,5.1206,5.1206,5.1206,5.1206,5.1206,5.1206,5.1206,5.1206,5.1206,5.1206,5.1206,5.1206,5.1206,5.1206,5.1206,5.1206,5.1146,5.1086,5.0966,5.0421,4.9793,4.9187,4.8738,4.8267,4.7788,4.8123,4.9812,5.0232,5.0768,5.2796,5.3112,5.3259,5.3243,5.3221,5.304,5.1862,5.1064,4.9787,4.9652,4.9539,4.9132,4.9426,4.9262,4.9194,4.9613,5.0462,5.1195,5.15,5.1577,5.1511,5.1537,5.144,5.092,5.0449,5.0095,4.9764,4.9389,4.8985,4.8656,4.8327,4.8057,4.7758,4.7549,4.7369,4.7309,4.7309,4.7309,4.7309,4.7309,4.7309,4.7309,4.7309,4.7309,4.7309,4.7309,4.7309,4.7309,4.7309,4.7309,4.7309,4.7309,4.7309,4.7309,4.7309,4.7309,4.7309,4.7279,4.6929,4.66,4.6659,4.657,4.6112,4.5753,4.5484,4.4984,4.4356,4.3938,5.8351,5.7214,5.7064,5.6286,5.5269,5.5234,5.5204,5.5029,5.3743,5.3169,5.2875,5.1798,5.1206,5.1206,5.1206,5.1206,5.1206,5.1206,5.1206,5.1206,5.1206,5.1206,5.1206,5.1206,5.1206,5.1206,5.1206,5.1206,5.1206,5.1206,5.1206,5.1206,5.1206,5.1206,5.1206,5.1206,5.1086,5.0877,5.0122,4.9426,4.9127,4.8438,4.7758,4.8311,4.8928,4.9319,5.0065,5.0545,5.064,5.106,5.1293,5.1456,5.1245,5.1005,5.049,5.0295,5.0032,4.9703,4.9546,4.9756,4.9613,4.9643,4.9942,5.0425,5.0971,5.1251,5.1364,5.1409,5.141,5.1402,5.0999,5.0862,5.0633,5.0295,4.9972,4.962,4.9344,4.8955,4.8558,4.8229,4.7848,4.7638,4.7309,4.7309,4.7309,4.7309,4.7309,4.7309,4.7309,4.7309,4.7309,4.7309,4.7309,4.7309,4.7309,4.7309,4.7309,4.7309,4.7309,4.7309,4.7309,4.7309,4.7309,4.7309,4.7309,4.7309,4.716,4.7108,4.7048,4.6929,4.66,4.639,4.5852,4.5104,4.4416,5.862,5.7756,5.6795,5.5953,5.5239,5.5234,5.5234,5.5059,5.3797,5.3228,5.2959,5.1887,5.1206,5.1206,5.1206,5.1206,5.1206,5.1206,5.1206,5.1206,5.1206,5.1206,5.1206,5.1206,5.1206,5.1206,5.1206,5.1206,5.1206,5.1206,5.1206,5.1206,5.1206,5.1206,5.1206,5.1206,5.1176,5.1116,5.0518,5.0002,4.983,4.974,4.9523,4.9666,4.989,5.0237,5.0933,5.1493,5.1432,5.1456,5.1276,5.1253,5.1199,5.1026,5.0966,5.093,5.072,5.0391,5.0212,5.0272,5.0331,5.0249,5.0488,5.0787,5.105,5.1146,5.1176,5.1206,5.1206,5.1206,5.1206,5.1176,5.1116,5.0817,5.0548,5.0278,4.9979,4.9553,4.9067,4.8678,4.8237,4.7848,4.7489,4.7309,4.7309,4.7309,4.7309,4.7309,4.7309,4.7309,4.7309,4.7309,4.7309,4.7309,4.7309,4.7309,4.7309,4.7309,4.7309,4.7309,4.7309,4.7309,4.7309,4.7309,4.7309,4.7309,4.7309,4.7279,4.7249,4.7228,4.7138,4.6809,4.648,4.5852,4.5104,5.8291,5.7513,5.6286,5.5564,5.5264,5.5234,5.5234,5.4999,5.4072,5.3473,5.3019,5.1887,5.1206,5.1206,5.1206,5.1206,5.1206,5.1206,5.1206,5.1206,5.1206,5.1206,5.1206,5.1206,5.1206,5.1206,5.1206,5.1206,5.1206,5.1206,5.1206,5.1206,5.1206,5.1206,5.1206,5.1206,5.1206,5.1176,5.0787,5.0637,5.0488,5.0159,4.9972,5.0073,5.0404,5.0804,5.119,5.1683,5.1544,5.1363,5.1229,5.1206,5.1206,5.1146,5.1176,5.1176,5.1086,5.1026,5.0877,5.0877,5.0996,5.0877,5.0877,5.1086,5.1116,5.1206,5.1206,5.1206,5.1206,5.1206,5.1206,5.1176,5.1176,5.0996,5.0907,5.0757,5.0458,5.0129,4.9793,4.9523,4.8925,4.8139,4.7788,4.7429,4.7399,4.7309,4.7309,4.7309,4.7309,4.7309,4.7309,4.7309,4.7309,4.7309,4.7309,4.7309,4.7309,4.7309,4.7309,4.7309,4.7309,4.7309,4.7309,4.7309,4.7309,4.7309,4.7309,4.7309,4.7309,4.7279,4.7228,4.7138,4.6809,4.648,4.5732,5.7603,5.6825,5.5713,5.5234,5.5234,5.5234,5.5234,5.5089,5.4491,5.3862,5.3258,5.1977,5.1355,5.1206,5.1206,5.1206,5.1206,5.1206,5.1206,5.1206,5.1206,5.1206,5.1206,5.1206,5.1206,5.1206,5.1206,5.1206,5.1206,5.1206,5.1206,5.1206,5.1206,5.1206,5.1206,5.1206,5.1206,5.1206,5.1086,5.1146,5.072,5.0182,5.0152,5.0219,5.0398,5.0667,5.105,5.1199,5.1199,5.1229,5.1206,5.1206,5.1206,5.1206,5.1206,5.1206,5.1206,5.1146,5.1146,5.1116,5.1176,5.1176,5.1206,5.1206,5.1206,5.1206,5.1206,5.1206,5.1206,5.1206,5.1206,5.1206,5.1206,5.1206,5.1146,5.1116,5.0877,5.0637,5.0428,5.0219,4.9471,4.8626,4.8087,4.7728,4.7489,4.7399,4.7309,4.7309,4.7309,4.7309,4.7309,4.7309,4.7309,4.7309,4.7309,4.7309,4.7309,4.7309,4.7309,4.7309,4.7309,4.7309,4.7309,4.7309,4.7309,4.7309,4.7309,4.7309,4.7309,4.7309,4.7279,4.7228,4.7138,4.6749,4.6241,5.6915,5.6312,5.5508,5.5234,5.5234,5.5234,5.5234,5.5089,5.4521,5.4102,5.3683,5.2636,5.1768,5.1206,5.1206,5.1206,5.1206,5.1206,5.1206,5.1206,5.1206,5.1206,5.1206,5.1206,5.1206,5.1206,5.1206,5.1206,5.1206,5.1206,5.1206,5.1206,5.1206,5.1206,5.1206,5.1206,5.1206,5.1206,5.1206,5.1206,5.1206,5.093,5.0936,5.0996,5.1026,5.1086,5.1199,5.1206,5.1206,5.1206,5.1206,5.1206,5.1206,5.1206,5.1206,5.1206,5.1206,5.1206,5.1206,5.1206,5.1206,5.1206,5.1206,5.1206,5.1206,5.1206,5.1206,5.1206,5.1206,5.1206,5.1206,5.1206,5.1206,5.1206,5.1176,5.1176,5.1056,5.0936,5.0817,5.0488,5.0016,4.9202,4.8476,4.8147,4.7818,4.7638,4.7339,4.7339,4.7309,4.7309,4.7309,4.7309,4.7309,4.7309,4.7309,4.7309,4.7309,4.7309,4.7309,4.7309,4.7309,4.7309,4.7309,4.7309,4.7309,4.7309,4.7309,4.7309,4.7309,4.7309,4.7309,4.7279,4.7228,4.7078,4.657]}]]